     2.10           OBSERVATION DATA    G (GPS)             RINEX VERSION / TYPE
teqc 2000Jul20 Karen Wendt 20040525 20:09:17UTC             PGM / RUN BY / DATE
Linux 2.0.36|Pentium II|gcc -static|Linux|486/DX+           COMMENT
teqc 2000Jul20 Karen Wendt 20040525 20:09:17UTC             COMMENT
BIT 2 OF LLI FLAGS DATA COLLECTED UNDER A/S CONDITION       COMMENT
flrn Flat_1956_USGS_(Reno_Net)                              MARKER NAME
JLS USGS                                                    OBSERVER / AGENCY
ZE1200331017 ASHTECH UZ-12 ZE00                             REC # / TYPE / VERS
CR619992805 ASH701945B_M NONE                               ANT # / TYPE
 -2389821.0000 -4275607.0000  4074408.0000                  APPROX POSITION XYZ
        1.1691        0.0000        0.0000                  ANTENNA: DELTA H/E/N
     1     1                                                WAVELENGTH FACT L1/2
     5    C1    L1    L2    P1    P2                        # / TYPES OF OBSERV
    30.0000                                                 INTERVAL
                                                            COMMENT
National Earthquake Hazard Reduction Program                COMMENT
Crustal Strain Project                                      COMMENT
345 Middlefield Road, MS/977                                COMMENT
U.S. Geological Survey, Menlo Park, California 94025        COMMENT
Contact: kwendt@usgs.gov (Ph: 650-329-4866)                 COMMENT
Antenna height is vertical to base of antenna               COMMENT
                                                            COMMENT
SNR is mapped to RINEX snr flag value [1-9]                 COMMENT
L1: 1 -> 1; 90 -> 5; 210 -> 9                               COMMENT
L2: 1 -> 1; 150 -> 5; 250 -> 9                              COMMENT
  2004     5    20     0     0    0.0000000     GPS         TIME OF FIRST OBS
                                                            END OF HEADER
 04  5 20  0  0  0.0000000  0  7G11G22G25G14G 1G30G20
  21475813.630   -22131466.64344 -16978435.19842  21475816.015    21475812.219
  24666843.824    -5343861.37943  -4145974.06542  24666844.415    24666842.536
  20645604.706   -24520392.55444 -18685227.52342  20645606.991    20645603.369
  22571694.250   -17551219.84743 -13660310.83842  22571696.525    22571693.048
  23625419.488   -10335764.35543  -8033493.38542  23625421.987    23625422.946
  24074141.776    -9010538.40543  -7016205.07742  24074144.629    24074143.049
  22796998.550   -17109307.66843 -13281500.46142  22797000.594    22796998.672
 04  5 20  0  0 30.0000000  0  7G11G22G25G14G 1G30G20
  21478752.742   -22116021.74644 -16966400.24142  21478755.099    21478751.304
  24683523.394    -5256209.92343  -4077674.35142  24683524.008    24683522.273
  20644535.195   -24526012.73644 -18689606.87742  20644537.493    20644533.875
  22586224.042   -17474865.45643 -13600813.95142  22586226.312    22586222.853
  23610634.583   -10413458.66043  -8094034.24342  23610637.140    23610638.084
  24071389.539    -9025001.60243  -7027475.07842  24071392.395    24071390.730
  22780498.844   -17196013.84643 -13349063.65042  22780500.902    22780498.936
 04  5 20  0  1  0.0000000  0  7G11G22G25G14G 1G30G20
  21481795.818   -22100030.18244 -16953939.30842  21481798.205    21481794.432
  24700228.186    -5168425.78143  -4009271.25742  24700228.815    24700227.161
  20643567.458   -24531098.18144 -18693569.55142  20643569.751    20643566.132
  22600771.509   -17398417.94643 -13541244.51842  22600773.829    22600770.394
  23595880.635   -10490990.29843  -8154448.33742  23595883.199    23595884.203
  24068736.214    -9038944.54043  -7038339.68042  24068739.099    24068737.456
  22764020.227   -17282609.17243 -13416540.47142  22764022.309    22764020.330
 04  5 20  0  1 30.0000000  0  6G11G25G14G 1G30G20
  21484943.648   -22083488.28844 -16941049.54642  21484946.041    21484942.274
  20642702.233   -24535644.77944 -18697112.34642  20642704.532    20642700.934
  22615337.382   -17321873.95143 -13481599.88342  22615339.713    22615336.297
  23581158.529   -10568354.61143  -8214732.02742  23581161.086    23581162.127
  24066182.971    -9052361.61243  -7048794.51142  24066185.850    24066184.276
  22747563.913   -17369087.40343 -13483926.04042  22747565.998    22747564.014
 04  5 20  0  2  0.0000000  0  6G11G25G14G 1G30G20
  21488195.343   -22066400.60444 -16927734.48742  21488197.744    21488193.973
  20641938.786   -24539656.64244 -18700238.46242  20641941.082    20641937.491
  22629920.675   -17245238.34443 -13421883.87142  22629923.030    22629919.617
  23566467.684   -10645555.03043  -8274888.02542  23566470.200    23566471.221
  24063729.277    -9065255.17143  -7058841.39042  24063732.264    24063730.732
  22731129.491   -17455450.74143 -13551222.08442  22731131.570    22731129.550
 04  5 20  0  2 30.0000000  0  6G11G25G14G 1G30G20
  21491550.288   -22048770.31444 -16913996.62242  21491552.681    21491548.942
  20641276.577   -24543136.54044 -18702950.06042  20641278.864    20641275.299
  22644520.812   -17168514.21843 -13362098.87942  22644523.191    22644519.783
  23551807.611   -10722593.63043  -8334917.91742  23551810.128    23551811.102
  24061375.049    -9077626.36443  -7068481.25342  24061378.113    24061376.498
  22714716.776   -17541699.83443 -13618429.10642  22714718.855    22714716.829
 04  5 20  0  3  0.0000000  0  6G11G25G14G 1G30G20
  21495008.348   -22030598.22644 -16899836.56742  21495010.735    21495007.004
  20640715.541   -24546084.71344 -18705247.32842  20640717.839    20640714.254
  22659137.642   -17091702.69943 -13302245.79442  22659139.974    22659136.569
  23537178.327   -10799470.07843  -8394821.46442  23537180.915    23537181.818
  24059120.601    -9089473.91543  -7077713.08442  24059123.543    24059121.987
  22698326.137   -17627833.10643 -13685545.87942  22698328.188    22698326.167
 04  5 20  0  3 30.0000000  0  6G11G25G14G 1G30G20
  21498569.878   -22011882.12344 -16885252.61142  21498572.298    21498568.584
  20640256.241   -24548498.38044 -18707128.10042  20640258.513    20640254.935
  22673771.445   -17014801.60743 -13242322.90642  22673773.800    22673770.390
  23522580.560   -10876181.16043  -8454596.15142  23522583.170    23522583.987
  24056966.459    -9100793.60743  -7086533.59142  24056969.490    24056967.893
  22681958.422   -17713845.85043 -13752568.73542  22681960.487    22681958.433
 04  5 20  0  4  0.0000000  0  6G11G25G14G 1G30G20
  21502234.955   -21992622.05244 -16870244.78342  21502237.369    21502233.672
  20639898.569   -24550377.87844 -18708592.63442  20639900.840    20639897.263
  22688422.241   -16937811.59043 -13182330.72542  22688424.519    22688421.129
  23508014.369   -10952726.32943  -8514241.56042  23508016.955    23508017.758
  24054913.036    -9111583.87843  -7094941.57742  24054916.045    24054914.503
  22665614.083   -17799735.97643 -13819496.04742  22665616.128    22665614.039
 04  5 20  0  4 30.0000000  0  6G11G25G14G 1G30G20
  21506002.879   -21972821.65844 -16854815.92542  21506005.270    21506001.593
  20639641.967   -24551726.31544 -18709643.35442  20639644.228    20639640.648
  22703089.209   -16860736.44943 -13122272.20442  22703091.479    22703088.066
  23493479.255   -11029108.37643  -8573759.86842  23493481.819    23493482.557
  24052960.119    -9121846.61243  -7102938.48842  24052963.086    24052961.540
  22649292.832   -17885504.82943 -13886328.86742  22649294.844    22649292.696
 04  5 20  0  5  0.0000000  0  6G11G25G14G 1G30G20
  21509873.865   -21952479.53244 -16838964.94342  21509876.261    21509872.587
  20639486.905   -24552541.28044 -18710278.38742  20639489.159    20639485.549
  22717772.714   -16783574.38443 -13062145.95842  22717774.994    22717771.533
  23478975.882   -11105324.02243  -8633148.53742  23478978.405    23478979.003
  24051108.315    -9131577.95843  -7110521.32042  24051111.248    24051109.662
  22632995.483   -17971147.87843 -13953063.65842  22632997.487    22632995.259
 04  5 20  0  5 30.0000000  0  6G11G25G14G 1G30G20
  21513846.835   -21931601.53944 -16822696.40042  21513849.232    21513845.551
  20639432.258   -24552828.43044 -18710502.13342  20639434.515    20639430.895
  22732471.672   -16706331.22943 -13001956.52542  22732473.935    22732470.453
  23464503.164   -11181377.91343  -8692411.12342  23464505.697    23464506.288
  24049356.960    -9140781.22343  -7117692.66742  24049359.907    24049358.287
  22616721.488   -18056668.20443 -14019702.82442  22616723.504    22616721.212
 04  5 20  0  6  0.0000000  0  6G11G25G14G 1G30G20
  21517923.127   -21910180.54344 -16806004.73442  21517925.527    21517921.878
  20639479.460   -24552580.25644 -18710308.74442  20639481.726    20639478.129
  22747187.307   -16629000.02243 -12941698.48542  22747189.595    22747186.123
  23450062.782   -11257261.92343  -8751541.36942  23450065.295    23450065.897
  24047707.753    -9149447.68743  -7124445.73142  24047710.697    24047709.127
  22600472.673   -18142056.18543 -14086238.85742  22600474.737    22600472.352
 04  5 20  0  6 30.0000000  0  6G11G25G14G 1G30G20
  21522100.986   -21888225.68044 -16788897.07542  21522103.414    21522099.781
  20639626.943   -24551805.21444 -18709704.80742  20639629.205    20639625.616
  22761918.010   -16551589.72143 -12881378.81942  22761920.296    22761916.867
  23435653.293   -11332983.92743  -8810545.37642  23435655.745    23435656.256
  24046159.374    -9157584.38143  -7130785.98342  24046162.321    24046160.740
  22584247.804   -18227318.24843 -14152676.77642  22584249.892    22584247.458
 04  5 20  0  7  0.0000000  0  6G11G25G14G 1G30G20
  21526381.296   -21865732.56644 -16771370.00342  21526383.675    21526380.097
  20639875.536   -24550498.76344 -18708686.78942  20639877.811    20639874.205
  22776664.541   -16474096.18743 -12820994.29242  22776666.836    22776663.411
  23421275.604   -11408538.42243  -8869418.86042  23421278.096    23421278.484
  24044712.991    -9165185.07743  -7136708.58842  24044715.953    24044714.372
  22568048.165   -18312447.56143 -14219011.25442  22568050.287    22568047.825
 04  5 20  0  7 30.0000000  0  6G11G25G14G 1G30G20
  21530763.951   -21842701.64644 -16753423.86042  21530766.329    21530762.757
  20640225.270   -24548660.86644 -18707254.65342  20640227.548    20640223.927
  22791426.777   -16396520.10243 -12760545.43342  22791429.087    22791425.673
  23406929.884   -11483924.88243  -8928161.41742  23406932.382    23406932.700
  24043368.831    -9172248.31643  -7142212.36842  24043371.910    24043370.227
  22551874.254   -18397441.83043 -14285240.50242  22551876.353    22551873.889
 04  5 20  0  8  0.0000000  0  6G11G25G14G 1G30G20
  21535248.033   -21819137.83544 -16735062.48142  21535250.388    21535246.812
  20640675.326   -24546295.78944 -18705411.73242  20640677.593    20640673.973
  22806203.968   -16318865.62843 -12700035.49142  22806206.255    22806202.841
  23392615.570   -11559146.50843  -8986775.52042  23392618.024    23392618.344
  24042126.504    -9178776.74743  -7147299.43042  24042129.556    24042127.938
  22535725.663   -18482302.89943 -14351365.96042  22535727.727    22535725.288
 04  5 20  0  8 30.0000000  0  6G11G25G14G 1G30G20
  21539833.672   -21795040.08744 -16716285.04842  21539836.034    21539832.489
  20641225.967   -24543402.09544 -18703156.89942  20641228.226    20641224.600
  22820996.236   -16241131.74743 -12639463.67842  22820998.543    22820995.158
  23378332.967   -11634201.36343  -9045259.67642  23378335.388    23378335.688
  24040986.486    -9184767.50343  -7151967.52342  24040989.576    24040987.919
  22519603.069   -18567027.38243 -14417384.98642  22519605.153    22519602.692
 04  5 20  0  9  0.0000000  0  6G11G25G14G 1G30G20
  21544520.354   -21770411.52544 -16697093.99642  21544522.699    21544519.176
  20641876.649   -24539982.67644 -18700492.40842  20641878.904    20641875.280
  22835803.009   -16163321.60243 -12578832.44442  22835805.316    22835801.975
  23364081.773   -11709091.21643  -9103615.26142  23364084.261    23364084.434
  24039948.629    -9190221.58943  -7156217.43342  24039951.611    24039949.990
  22503506.477   -18651615.29743 -14483297.59742  22503508.556    22503506.076
 04  5 20  0  9 30.0000000  0  6G11G25G14G 1G30G20
  21549308.729   -21745248.68744 -16677486.61942  21549311.072    21549307.553
  20642628.154   -24536033.42044 -18697415.05942  20642630.415    20642626.799
  22850625.018   -16085431.39443 -12518138.82242  22850627.377    22850624.041
  23349862.912   -11783811.21343  -9161838.49842  23349865.396    23349865.549
  24039013.938    -9195133.50043  -7160044.88642  24039016.833    24039015.247
  22487437.089   -18736060.26343 -14549098.81742  22487439.155    22487436.676
 04  5 20  0 10  0.0000000  0  6G11G25G14G 1G30G20
  21554197.133   -21719560.08344 -16657469.55842  21554199.481    21554195.976
  20643478.828   -24531562.44944 -18693931.18042  20643481.208    20643477.578
  22865460.786   -16007469.40243 -12457389.26242  22865463.108    22865459.786
  23335674.991   -11858368.69543  -9219935.09542  23335677.410    23335677.636
  24038181.214    -9199509.93343  -7163455.08242  24038184.011    24038182.366
  22471393.767   -18820368.33143 -14614793.36942  22471395.848    22471393.310
 04  5 20  0 10 30.0000000  0  6G11G25G14G 1G30G20
  21559186.990   -21693338.18644 -16637036.94042  21559189.365    21559185.881
  20644430.440   -24526561.73844 -18690034.51842  20644432.816    20644429.193
  22880311.611   -15929428.14643 -12396577.94042  22880313.943    22880310.586
  23321519.649   -11932754.87843  -9277898.23642  23321522.087    23321522.294
  24037452.138    -9203341.31343  -7166440.54342  24037454.904    24037453.233
  22455378.508   -18904528.95343 -14680373.02142  22455380.564    22455377.994
 04  5 20  0 11  0.0000000  0  6G11G25G14G 1G30G20
  21564276.759   -21666591.48344 -16616195.37942  21564279.123    21564275.632
  20645481.319   -24521039.46844 -18685731.44142  20645483.655    20645480.035
  22895175.939   -15851315.47543 -12335710.97642  22895178.334    22895174.968
  23307395.619   -12006976.63943  -9335733.25142  23307398.079    23307398.241
  24036825.526    -9206634.08243  -7169006.31942  24036828.355    24036826.625
  22439390.288   -18988547.53443 -14745841.99642  22439392.340    22439389.736
 04  5 20  0 11 30.0000000  0  6G11G25G14G 1G30G20
  21569467.206   -21639315.76644 -16594941.60442  21569469.552    21569466.046
  20646632.324   -24514991.04344 -18681018.38042  20646634.642    20646630.990
  22910054.718   -15773126.92443 -12274784.87742  22910057.118    22910053.779
  23293303.934   -12081028.51043  -9393435.87142  23293306.369    23293306.518
  24036302.568    -9209381.91443  -7171147.46242  24036305.438    24036303.726
  22423430.448   -19072416.90943 -14811194.70742  22423432.469    22423429.870
 04  5 20  0 12  0.0000000  0  6G11G25G14G 1G30G20
  21574757.392   -21611515.74044 -16573279.27142  21574759.754    21574756.226
  20647882.645   -24508420.61944 -18675898.56342  20647884.944    20647881.290
  22924947.119   -15694866.95643 -12213803.12642  22924949.511    22924946.220
  23279243.878   -12154914.00143  -9451008.83842  23279246.323    23279246.469
  24035882.779    -9211587.91243  -7172866.41642  24035885.599    24035883.922
  22407498.609   -19156138.94443 -14876432.60542  22407500.647    22407498.053
 04  5 20  0 12 30.0000000  0  6G11G25G14G 1G30G20
  21580146.939   -21583193.61144 -16551210.10542  21580149.305    21580145.778
  20649231.998   -24501329.84144 -18670373.27242  20649234.290    20649230.609
  22939852.801   -15616537.34143 -12152767.11042  22939855.168    22939851.915
  23265215.411   -12228633.68043  -9508452.63842  23265217.788    23265217.967
  24035566.139    -9213251.76843  -7174162.90942  24035569.027    24035567.235
  22391595.009   -19239712.71143 -14941554.97042  22391597.026    22391594.464
 04  5 20  0 13  0.0000000  0  6G11G25G14G 1G30G20
  21585637.000   -21554343.25644 -16528729.33342  21585639.368    21585635.849
  20650681.629   -24493712.09544 -18664437.36242  20650683.901    20650680.220
  22954772.946   -15538131.73643 -12091671.88142  22954775.295    22954772.089
  23251219.834   -12302180.13043  -9565761.43142  23251222.258    23251222.362
  24035354.107    -9214365.82143  -7175030.98442  24035357.026    24035355.263
  22375721.359   -19323129.25343 -15006554.82342  22375723.359    22375720.799
 04  5 20  0 13 30.0000000  0  6G11G25G14G 1G30G20
  21591225.422   -21524976.07244 -16505845.83842  21591227.811    21591224.242
  20652229.491   -24485578.02844 -18658099.12442  20652231.752    20652228.068
  22969705.494   -15459660.81843 -12030525.76442  22969707.810    22969704.698
  23237255.325   -12375563.26143  -9622942.96942  23237257.812    23237257.889
  24035244.972    -9214939.20843  -7175477.78242  24035247.907    24035246.120
  22359876.029   -19406396.75043 -15071438.53642  22359878.049    22359875.509
 04  5 20  0 14  0.0000000  0  6G11G25G14G 1G30G20
  21596912.972   -21495088.01544 -16482556.46642  21596915.338    21596911.756
  20653876.378   -24476923.48244 -18651355.31742  20653878.663    20653874.985
  22984651.299   -15381120.49543 -11969325.56042  22984653.615    22984650.512
  23223322.919   -12448777.89243  -9679993.19842  23223325.372    23223325.474
  24035239.817    -9214966.18143  -7175498.77742  24035242.768    24035241.000
  22344060.401   -19489508.10743 -15136200.58042  22344062.468    22344059.931
 04  5 20  0 14 30.0000000  0  6G11G25G14G 1G30G20
  21602699.436   -21464680.17944 -16458862.07642  21602701.806    21602698.210
  20655622.246   -24467748.87944 -18644206.27142  20655624.508    20655620.854
  22999610.218   -15302510.97443 -11908071.43742  22999612.542    22999609.465
  23209422.734   -12521823.29543  -9736911.58542  23209425.159    23209425.264
  24035338.876    -9214445.59243  -7175093.10842  24035341.811    24035340.062
  22328274.970   -19572461.14543 -15200839.25742  22328276.985    22328274.480
 04  5 20  0 15  0.0000000  0  6G11G25G14G 1G30G20
  21608584.792   -21433752.44444 -16434762.56842  21608587.169    21608583.577
  20657467.134   -24458053.87244 -18636651.71642  20657469.394    20657465.767
  23014582.349   -15223831.91243 -11846763.12842  23014584.687    23014581.662
  23195555.136   -12594697.94743  -9793696.92342  23195557.479    23195557.522
  24035542.517    -9213375.47443  -7174259.23342  24035545.488    24035543.637
  22312520.229   -19655252.84143 -15265352.22042  22312522.238    22312519.682
 04  5 20  0 15 30.0000000  0  6G11G25G14G 1G30G20
  21614568.074   -21402310.07344 -16410262.04842  21614570.464    21614566.901
  20659410.100   -24447843.42544 -18628695.52242  20659412.351    20659408.755
  23029566.852   -15145087.85643 -11785404.16842  23029569.213    23029566.187
  23181719.184   -12667405.62743  -9850352.15142  23181721.539    23181721.576
  24035850.046    -9211759.13843  -7172999.74342  24035853.032    24035851.255
  22296795.804   -19737885.06943 -15329740.91242  22296797.825    22296795.226
 04  5 20  0 16  0.0000000  0  6G11G25G14G 1G30G20
  21620648.937   -21370355.04844 -16385362.05542  21620651.317    21620647.747
  20661450.968   -24437118.62844 -18620338.53142  20661453.191    20661449.612
  23044563.424   -15066280.40743 -11723995.80942  23044565.822    23044562.841
  23167914.915   -12739946.99343  -9906877.78542  23167917.272    23167917.315
  24036261.597    -9209596.64443  -7171314.67442  24036264.560    24036262.702
  22281101.879   -19820356.86743 -15394004.60142  22281103.946    22281101.306
 04  5 20  0 16 30.0000000  0  6G11G25G14G 1G30G20
  21626828.294   -21337882.30944 -16360058.65042  21626830.684    21626827.129
  20663590.704   -24425874.08544 -18611576.54642  20663592.935    20663589.368
  23059573.169   -14987403.88943 -11662533.63142  23059575.539    23059572.615
  23154143.535   -12812315.32043  -9963268.58642  23154145.936    23154145.979
  24036778.383    -9206880.86143  -7169198.48242  24036781.359    24036779.515
  22265440.116   -19902659.83743 -15458136.74242  22265442.165    22265439.496
 04  5 20  0 17  0.0000000  0  6G11G25G14G 1G30G20
  21633104.741   -21304899.62444 -16334357.89042  21633107.110    21633103.544
  20665827.988   -24414117.03544 -18602415.20942  20665830.236    20665826.666
  23074594.715   -14908465.44343 -11601023.19842  23074597.067    23074594.148
  23140404.010   -12884516.86143 -10019529.42942  23140406.366    23140406.389
  24037399.378    -9203617.84743  -7166655.86942  24037402.268    24037400.404
  22249809.675   -19984798.31743 -15522140.71242  22249811.691    22249808.998
 04  5 20  0 17 30.0000000  0  6G11G25G14G 1G30G20
  21639477.970   -21271408.32644 -16308260.80842  21639480.335    21639476.762
  20668162.550   -24401848.74044 -18592855.49342  20668164.795    20668161.218
  23089627.836   -14829465.83843 -11539465.10642  23089630.227    23089627.305
  23126696.206   -12956551.39943 -10075660.11242  23126698.612    23126698.564
  24038124.595    -9199806.87043  -7163686.27042  24038127.470    24038125.637
  22234210.833   -20066770.47343 -15586015.07042  22234212.870    22234210.181
 04  5 20  0 18  0.0000000  0  6G11G25G14G 1G30G20
  21645948.470   -21237405.88144 -16281765.42642  21645950.837    21645947.247
  20670595.115   -24389065.55244 -18582894.56642  20670597.358    20670593.763
  23104673.275   -14750401.60143 -11477856.64942  23104675.673    23104672.700
  23113021.017   -13028414.71743 -10131657.39742  23113023.429    23113023.337
  24038954.952    -9195443.30843  -7160286.08742  24038957.791    24038956.025
  22218644.776   -20148570.46243 -15649755.28342  22218646.806    22218644.115
 04  5 20  0 18 30.0000000  0  6G11G25G14G 1G30G20
  21652515.529   -21202896.02144 -16254874.66542  21652517.889    21652514.284
  20673125.067   -24375770.75644 -18572534.98442  20673127.284    20673123.677
  23119730.389   -14671276.08943 -11416200.44442  23119732.756    23119729.824
  23099377.927   -13100109.08743 -10187523.02542  23099380.350    23099380.269
  24039890.070    -9190529.04343  -7156456.77342  24039892.937    24039891.162
  22203111.379   -20230198.75543 -15713361.70742  22203113.409    22203110.732
 04  5 20  0 19  0.0000000  0  6G11G25G14G 1G30G20
  21659179.088   -21167878.81544 -16227588.56742  21659181.447    21659177.894
  20675752.350   -24361964.34244 -18561776.74342  20675754.563    20675750.927
  23134799.325   -14592088.47543 -11354495.86142  23134801.637    23134798.774
  23085767.328   -13171632.81043 -10243255.68542  23085769.748    23085769.622
  24040930.318    -9185062.32243  -7152196.98742  24040933.196    24040931.460
  22187611.291   -20311652.05143 -15776831.77242  22187613.324    22187610.644
 04  5 20  0 19 30.0000000  0  6G11G25G14G 1G30G20
  21665938.512   -21132358.07544 -16199910.10642  21665940.852    21665937.324
  20678476.431   -24347649.27344 -18550622.14042  20678478.657    20678474.997
  23149879.558   -14512841.57943 -11292745.08142  23149881.851    23149879.017
  23072188.917   -13242987.83743 -10298856.89542  23072191.309    23072191.146
  24042075.363    -9179044.65843  -7147507.88442  24042078.270    24042076.557
  22172144.501   -20392930.40143 -15840165.51142  22172146.546    22172143.836
 04  5 20  0 20  0.0000000  0  6G11G25G14G 1G30G20
  21672793.726   -21096333.79544 -16171839.27642  21672796.065    21672792.562
  20681297.354   -24332825.25444 -18539070.95542  20681299.585    20681295.929
  23164971.177   -14433534.90243 -11230947.71542  23164973.493    23164970.619
  23058642.894   -13314172.86243 -10354325.64042  23058645.193    23058645.006
  24043325.551    -9172474.56043  -7142388.32142  24043328.473    24043326.816
  22156711.591   -20474030.74643 -15903360.55042  22156713.638    22156710.920
 04  5 20  0 20 30.0000000  0  6G11G25G14G 1G30G20
  21679744.032   -21059809.74044 -16143379.00742  21679746.379    21679742.904
  20684214.469   -24317495.61144 -18527125.77942  20684216.721    20684213.067
  23180073.638   -14354171.31843 -11169106.00642  23180075.883    23180073.012
  23045128.792   -13385189.91943 -10409663.49642  23045131.059    23045130.761
  24044680.630    -9165353.74143  -7136839.62242  24044683.507    24044681.816
  22141312.482   -20554953.36243 -15966417.09742  22141314.544    22141311.810
 04  5 20  0 21  0.0000000  0  6G11G25G14G 1G30G20
  21686789.852   -21022783.92144 -16114527.75142  21686792.198    21686788.722
  20687228.343   -24301657.61144 -18514784.48042  20687230.582    20687226.932
  23195187.419   -14274748.06943 -11107217.79842  23195189.685    23195186.780
  23031647.331   -13456035.30643 -10464867.59742  23031649.618    23031649.187
  24046141.284    -9157678.23443  -7130858.69242  24046144.165    24046142.407
  22125948.245   -20635692.71843 -16029330.84542  22125950.319    22125947.571
 04  5 20  0 21 30.0000000  0  6G11G25G14G 1G30G20
  21693930.695   -20985258.71744 -16085287.36942  21693933.041    21693929.571
  20690338.556   -24285313.35544 -18502048.69442  20690340.806    20690337.137
  23210312.248   -14195266.64843 -11045284.26642  23210314.558    23210311.643
  23018198.340   -13526709.75843 -10519938.50642  23018200.681    23018200.144
  24047707.323    -9149448.53643  -7124445.93642  24047710.186    24047708.484
  22110619.106   -20716247.81443 -16092101.01342  22110621.170    22110618.380
 04  5 20  0 22  0.0000000  0  6G11G25G14G 1G30G20
  21701165.811   -20947238.16144 -16055660.99842  21701168.137    21701164.667
  20693544.387   -24268466.68644 -18488921.41942  20693546.628    20693542.951
  23225447.472   -14115730.59943 -10983308.18242  23225449.842    23225446.926
  23004781.360   -13597215.96243 -10574878.31042  23004783.703    23004783.133
  24049378.389    -9140667.08643  -7117603.25642  24049381.251    24049379.427
  22095324.907   -20796619.31843 -16154728.12642  22095326.958    22095324.158
 04  5 20  0 22 30.0000000  0  6G11G25G14G 1G30G20
  21708495.111   -20908722.43644 -16025648.77842  21708497.450    21708493.978
  20696846.017   -24251116.53444 -18475401.82142  20696848.248    20696844.572
  23240593.279   -14036138.73043 -10921288.58942  23240595.662    23240592.824
  22991396.802   -13667551.93143 -10629685.46242  22991399.129    22991398.532
  24051154.826    -9131331.74843  -7110328.93642  24051157.608    24051155.865
  22080066.295   -20876803.78943 -16217209.49342  22080068.341    22080065.536
 04  5 20  0 23  0.0000000  0  6G11G25G14G 1G30G20
  21715918.586   -20869711.93044 -15995251.01342  21715920.913    21715917.461
  20700243.362   -24233263.16544 -18461490.10442  20700245.631    20700241.941
  23255749.875   -13956490.42343 -10859225.03642  23255752.258    23255749.450
  22978044.903   -13737716.24543 -10684358.86642  22978047.250    22978046.606
  24053036.955    -9121440.96343  -7102621.83142  24053039.839    24053037.974
  22064843.963   -20956797.43043 -16279542.16442  22064846.000    22064843.203
 04  5 20  0 23 30.0000000  0  6G11G25G14G 1G30G20
  21723434.959   -20830213.18344 -15964472.79842  21723437.274    21723433.839
  20703735.352   -24214912.58144 -18447190.94242  20703737.614    20703733.940
  23270916.086   -13876791.61743 -10797122.11442  23270918.442    23270915.675
  22964724.728   -13807713.91043 -10738902.41242  22964727.057    22964726.374
  24055023.862    -9110999.70943  -7094485.76542  24055026.709    24055024.906
  22049657.272   -21036603.79843 -16341728.89842  22049659.297    22049656.493
 04  5 20  0 24  0.0000000  0  6G11G25G14G 1G30G20
  21731045.591   -20790219.05244 -15933308.56942  21731047.919    21731044.510
  20707323.411   -24196057.17044 -18432498.41342  20707325.650    20707321.998
  23286093.530   -13797033.89143 -10734973.28042  23286095.833    23286093.120
  22951437.920   -13877536.05443 -10793309.19742  22951440.252    22951439.561
  24057117.210    -9099998.95443  -7085913.73342  24057120.146    24057118.293
  22034508.285   -21116212.03543 -16403761.25242  22034510.303    22034507.501
 04  5 20  0 24 30.0000000  0  6G11G25G14G 1G30G20
  21738748.418   -20749740.39443 -15901766.79642  21738750.742    21738747.353
  20711005.601   -24176707.11944 -18417420.44942  20711007.835    20711004.184
  23301280.311   -13717227.14343 -10672786.24142  23301282.659    23301279.874
  22938182.744   -13947191.64743 -10847586.18442  22938185.072    22938184.455
  24059315.381    -9088447.53943  -7076912.62942  24059318.315    24059316.383
  22019395.650   -21195629.29543 -16465644.79042  22019397.700    22019394.841
 04  5 20  0 25  0.0000000  0  6G11G25G14G 1G30G20
  21746543.982   -20708774.50244 -15869845.35042  21746546.326    21746542.949
  20714782.486   -24156859.49444 -18401954.76742  20714784.694    20714781.032
  23316477.109   -13637367.75443 -10610558.19342  23316479.470    23316476.620
  22924960.192   -14016676.25343 -10901729.95042  22924962.463    22924961.845
  24061619.116    -9076340.98943  -7067478.93942  24061622.059    24061620.269
  22004320.548   -21274849.19443 -16527374.54142  22004322.620    22004319.748
 04  5 20  0 25 30.0000000  0  6G11G25G14G 1G30G20
  21754432.034   -20667322.49143 -15837545.11242  21754434.384    21754431.039
  20718653.997   -24136514.57544 -18386101.58142  20718656.197    20718652.549
  23331683.907   -13557455.87443 -10548289.23942  23331686.251    23331683.404
  22911770.264   -14085989.39643 -10955740.11042  22911772.522    22911771.880
  24064028.666    -9063678.63443  -7057612.15242  24064031.665    24064029.777
  21989283.458   -21353869.29343 -16588948.59542  21989285.550    21989282.692
 04  5 20  0 26  0.0000000  0  6G11G25G14G 1G30G20
  21762412.077   -20625387.14243 -15804868.25142  21762414.443    21762411.104
  20722619.663   -24115674.79544 -18369862.79142  20722621.871    20722618.227
  23346900.418   -13477493.05543 -10485980.60942  23346902.696    23346899.875
  22898612.850   -14155131.71543 -11009617.14342  22898615.128    22898614.474
  24066543.813    -9050461.30543  -7047312.92542  24066546.834    24066544.905
  21974284.663   -21432688.42743 -16650366.06142  21974286.743    21974283.836
 04  5 20  0 26 30.0000000  0  6G11G25G14G 1G30G20
  21770483.665   -20582970.84043 -15771816.61642  21770486.019    21770482.697
  20726679.084   -24094342.30744 -18353240.07342  20726681.296    20726677.656
  23362126.349   -13397480.56443 -10423633.26642  23362128.629    23362125.795
  22885487.848   -14224103.62143 -11063361.38442  22885490.149    22885489.422
  24069164.519    -9036689.33543  -7036581.50942  24069167.436    24069165.623
  21959324.391   -21511305.25343 -16711625.88242  21959326.440    21959323.495
 04  5 20  0 27  0.0000000  0  6G11G25G14G 1G30G20
  21778646.354   -20540075.70744 -15738391.86642  21778648.715    21778645.428
  20730832.044   -24072518.33444 -18336234.38142  20730834.276    20730830.605
  23377361.441   -13317419.65943 -10361248.19442  23377363.729    23377360.898
  22872395.220   -14292905.56943 -11116973.20542  22872397.534    22872396.740
  24071890.570    -9022363.52843  -7025418.51942  24071893.597    24071891.736
  21944402.834   -21589718.42643 -16772727.01542  21944404.880    21944401.927
 04  5 20  0 27 30.0000000  0  6G11G25G14G 1G30G20
  21786900.212   -20496701.44744 -15704593.77342  21786902.586    21786899.280
  20735078.677   -24050202.16744 -18318845.16042  20735080.887    20735077.224
  23392606.151   -13237308.62243 -10298824.05642  23392608.485    23392605.568
  22859335.326   -14361535.33743 -11170450.86342  22859337.653    22859336.866
  24074722.530    -9007481.51143  -7013822.13142  24074725.549    24074723.780
  21929520.799   -21667923.75343 -16833666.18642  21929522.844    21929519.907
 04  5 20  0 28  0.0000000  0  6G11G25G14G 1G30G20
  21795244.446   -20452852.48144 -15670425.77842  21795246.822    21795243.471
  20739418.270   -24027397.49844 -18301075.28542  20739420.475    20739416.828
  23407859.731   -13157150.82843 -10236363.49142  23407862.046    23407859.149
  22846307.651   -14429995.38343 -11223796.26642  22846310.000    22846309.310
  24077659.791    -8992045.86443  -7001794.34642  24077662.812    24077661.026
  21914678.222   -21745921.81843 -16894443.85142  21914680.284    21914677.319
 04  5 20  0 28 30.0000000  0  6G11G25G14G 1G30G20
  21803679.015   -20408528.60343 -15635887.72942  21803681.386    21803678.065
  20743850.934   -24004103.57244 -18282924.17442  20743853.143    20743849.510
  23423122.462   -13076944.63443 -10173865.22142  23423124.780    23423121.938
  22833312.775   -14498283.49943 -11277007.68342  22833315.163    22833314.466
  24080702.839    -8976054.25543  -6989333.34342  24080705.915    24080704.055
  21899875.921   -21823708.37543 -16955056.71542  21899877.975    21899874.995
 04  5 20  0 29  0.0000000  0  6G11G25G14G 1G30G20
  21812203.619   -20363731.46543 -15600980.90042  21812206.004    21812202.693
  20748376.488   -23980321.58244 -18264392.75542  20748378.707    20748375.084
  23438394.287   -12996690.66743 -10111329.73242  23438396.594    23438393.799
  22820350.644   -14566399.61643 -11330085.09142  22820353.058    22820352.308
  24083851.687    -8959506.92943  -6976439.30442  24083854.630    24083852.964
  21885114.235   -21901281.32143 -17015503.13142  21885116.326    21885113.297
 04  5 20  0 29 30.0000000  0  6G11G25G14G 1G30G20
  21820817.067   -20318467.67043 -15565710.44442  21820819.424    21820816.111
  20752993.743   -23956057.71744 -18245485.84842  20752995.974    20752992.322
  23453674.312   -12916393.72543 -10048760.74742  23453676.628    23453673.890
  22807420.392   -14634348.13343 -11383031.90542  22807422.800    22807422.046
  24087105.534    -8942408.25443  -6963115.65142  24087108.414    24087106.716
  21870392.729   -21978643.11443 -17075785.00542  21870394.831    21870391.805
 04  5 20  0 30  0.0000000  0  6G11G25G14G 1G30G20
  21829520.283   -20272732.04643 -15530072.33142  21829522.644    21829519.314
  20757703.765   -23931306.35544 -18226199.07642  20757705.978    20757702.338
  23468963.641   -12836047.87843  -9986153.66442  23468965.922    23468963.232
  22794523.281   -14702122.36343 -11435842.90842  22794525.711    22794524.952
  24090465.380    -8924751.78043  -6949357.34042  24090468.307    24090466.624
  21855713.018   -22055785.19043 -17135895.67942  21855715.120    21855712.109
 04  5 20  0 30 30.0000000  0  6G11G25G14G 1G30G20
  21838312.300   -20226529.78243 -15494070.60042  21838314.629    21838311.344
  20762505.666   -23906072.17244 -18206536.07742  20762507.905    20762504.244
  23484261.475   -12755657.36043  -9923511.74242  23484263.797    23484261.058
  22781658.790   -14769725.43543 -11488520.55342  22781661.187    22781660.439
  24093930.787    -8906540.79043  -6935166.93042  24093933.639    24093931.983
  21841074.955   -22132708.60843 -17195835.96742  21841077.013    21841074.045
 04  5 20  0 31  0.0000000  0  6G11G25G14G 1G30G20
  21847192.778   -20179862.53143 -15457706.54642  21847195.120    21847191.876
  20767399.284   -23880356.09044 -18186497.57842  20767401.527    20767397.837
  23499567.875   -12675222.08143  -9860834.97742  23499570.153    23499567.454
  22768826.998   -14837156.90343 -11541064.46742  22768829.342    22768828.567
  24097501.743    -8887775.28343  -6920544.44842  24097504.662    24097502.977
  21826478.913   -22209411.19043 -17255604.17942  21826480.961    21826478.001
 04  5 20  0 31 30.0000000  0  6G11G25G14G 1G30G20
  21856160.734   -20132735.81143 -15420984.46442  21856163.037    21856159.856
  20772383.659   -23854163.04744 -18166087.41642  20772385.897    20772382.202
  23514881.949   -12594746.26943  -9798126.60242  23514884.249    23514881.539
  22756027.187   -14904420.25843 -11593477.37942  22756029.538    22756028.642
  24101177.599    -8868458.70143  -6905492.55542  24101180.493    24101178.782
  21811924.639   -22285894.37943 -17315201.43742  21811926.675    21811923.723
 04  5 20  0 32  0.0000000  0  6G11G25G14G 1G30G20
  21865216.698   -20085146.39943 -15383901.84542  21865219.052    21865215.835
  20777459.449   -23827489.61144 -18145302.92642  20777461.674    20777458.001
  23530204.615   -12514225.33543  -9735383.08042  23530206.886    23530204.163
  22743260.371   -14971510.34643 -11645755.29542  22743262.720    22743261.716
  24104959.199    -8848586.39543  -6890007.63842  24104962.060    24104960.270
  21797413.528   -22362150.91143 -17374622.08342  21797415.526    21797412.572
 04  5 20  0 32 30.0000000  0  6G11G25G14G 1G30G20
  21874359.555   -20037100.58443 -15346463.58542  21874361.887    21874358.683
  20782625.684   -23800340.84244 -18124148.04342  20782627.913    20782624.255
  23545534.974   -12433663.85643  -9672607.94742  23545537.265    23545534.508
  22730525.701   -15038431.19143 -11697901.33242  22730528.078    22730527.012
  24108845.828    -8828162.32743  -6874092.77442  24108848.678    24108846.842
  21782945.067   -22438183.01343 -17433867.84542  21782947.072    21782944.110
 04  5 20  0 33  0.0000000  0  6G11G25G14G 1G30G20
  21883589.849   -19988595.34343 -15308667.33542  21883592.150    21883588.946
  20787882.938   -23772713.82244 -18102620.49842  20787885.160    20787881.493
  23560873.855   -12353057.93743  -9609798.19642  23560876.125    23560873.329
  22717824.170   -15105178.12043 -11749911.85542  22717826.484    22717825.416
  24112838.089    -8807182.48643  -6857744.83242  24112840.967    24112839.176
  21768520.618   -22513983.86843 -17492933.41742  21768522.629    21768519.663
 04  5 20  0 33 30.0000000  0  6G11G25G14G 1G30G20
  21892905.978   -19939639.01243 -15270519.58842  21892908.292    21892905.057
  20793229.710   -23744616.34044 -18080726.35942  20793231.933    20793228.266
  23576219.874   -12272414.34243  -9546959.08042  23576222.124    23576219.369
  22705154.573   -15171757.17543 -11801791.54842  22705156.875    22705155.810
  24116934.898    -8785653.16643  -6840968.73142  24116937.819    24116936.098
  21754139.332   -22589557.71143 -17551822.09742  21754141.380    21754138.435
 04  5 20  0 34  0.0000000  0  6G11G25G14G 1G30G20
  21902308.675   -19890227.74643 -15232017.34542  21902310.968    21902307.745
  20798666.878   -23716043.80544 -18058462.05042  20798669.096    20798665.440
  23591574.095   -12191727.71243  -9484086.43342  23591576.365    23591573.592
  22692517.998   -15238162.47343 -11853535.87042  22692520.295    22692519.224
  24121137.488    -8763568.59743  -6823759.97242  24121140.388    24121138.714
  21739802.857   -22664896.36443 -17610527.51142  21739804.872    21739801.946
 04  5 20  0 34 30.0000000  0  6G11G25G14G 1G30G20
  21911797.258   -19840364.99443 -15193163.29642  21911799.583    21911796.367
  20804193.982   -23686998.80444 -18035829.58242  20804196.202    20804192.540
  23606936.105   -12110999.94343  -9421181.72842  23606938.358    23606935.620
  22679914.277   -15304395.16943 -11905145.69042  22679916.539    22679915.491
  24125445.345    -8740930.68843  -6806120.02242  24125448.263    24125446.558
  21725511.228   -22739999.34343 -17669049.28342  21725513.249    21725510.309
 04  5 20  0 35  0.0000000  0  6G11G25G14G 1G30G20
  21921371.168   -19790053.90643 -15153959.89442  21921373.504    21921370.278
  20809810.430   -23657484.12244 -18012831.13642  20809812.670    20809809.004
  23622305.625   -12030232.51743  -9358246.12942  23622307.932    23622305.164
  22667343.195   -15370456.34743 -11956621.85942  22667345.443    22667344.407
  24129858.323    -8717740.53443  -6788049.75742  24129861.127    24129859.445
  21711264.645   -22814865.52943 -17727386.54842  21711266.674    21711263.700
 04  5 20  0 35 30.0000000  0  6G11G25G14G 1G30G20
  21931029.823   -19739297.56143 -15114409.53442  21931032.176    21931028.942
  20815515.780   -23627502.37044 -17989468.73442  20815518.022    20815514.351
  23637682.323   -11949427.10843  -9295280.91942  23637684.665    23637681.938
  22654804.467   -15436347.23443 -12007965.33242  22654806.743    22654805.751
  24134375.985    -8693999.83843  -6769550.48742  24134378.808    24134377.064
  21697063.251   -22889494.05843 -17785538.61942  21697065.281    21697062.344
 04  5 20  0 36  0.0000000  0  6G11G25G14G 1G30G20
  21940773.339   -19688095.21643 -15074511.64942  21940775.700    21940772.484
  20821310.185   -23597052.53144 -17965741.59442  20821312.433    20821308.765
  23653066.731   -11868581.53443  -9232284.42642  23653069.093    23653066.364
  22642298.700   -15502065.08143 -12059173.97042  22642300.968    22642299.984
  24138998.906    -8669706.29143  -6750620.42842  24139001.739    24138999.943
  21682908.050   -22963880.04543 -17843501.69942  21682910.060    21682907.123
 04  5 20  0 36 30.0000000  0  6G11G25G14G 1G30G20
  21950600.692   -19636452.41643 -15034270.55342  21950603.036    21950599.824
  20827192.694   -23566139.65944 -17941653.64342  20827194.948    20827191.291
  23668458.072   -11787699.80443  -9169259.74242  23668460.403    23668457.681
  22629825.291   -15567613.09243 -12110250.28142  22629827.509    22629826.550
  24143726.215    -8644863.83243  -6731262.65342  24143729.118    24143727.306
  21668798.770   -23038024.80743 -17901276.80742  21668800.749    21668797.843
 04  5 20  0 37  0.0000000  0  6G11G25G14G 1G30G20
  21960511.871   -19584368.93943 -14993686.06742  21960514.213    21960511.028
  20833163.628   -23534762.17344 -17917203.65842  20833165.864    20833162.244
  23683856.569   -11706780.12043  -9106205.48742  23683858.951    23683856.259
  22617384.633   -15632988.84643 -12161192.36142  22617386.843    22617385.821
  24148558.425    -8619470.25243  -6711475.44142  24148561.308    24148559.579
  21654736.199   -23111923.96043 -17958860.53442  21654738.174    21654735.268
 04  5 20  0 37 30.0000000  0  6G11G25G14G 1G30G20
  21970506.201   -19531848.50943 -14952761.09642  21970508.540    21970505.370
  20839222.304   -23502923.66744 -17892394.43342  20839224.530    20839220.921
  23699261.957   -11625824.57243  -9043123.30242  23699264.300    23699261.651
  22604976.495   -15698193.86443 -12212001.39842  22604978.681    22604977.603
  24153495.101    -8593527.72943  -6691260.47342  24153498.037    24153496.195
  21640720.492   -23185576.89543 -18016252.40242  21640722.473    21640719.560
 04  5 20  0 38  0.0000000  0  6G11G25G14G 1G30G20
  21980583.387   -19478892.57843 -14911496.78042  21980585.729    21980582.590
  20845368.520   -23470625.07744 -17867226.70642  20845370.737    20845367.136
  23714674.218   -11544833.03743  -8980013.05042  23714676.567    23714673.864
  22592600.890   -15763227.76543 -12262677.09342  22592603.121    22592601.980
  24158536.259    -8567036.13043  -6670617.66542  24158539.169    24158537.419
  21626752.109   -23258980.93443 -18073450.32642  21626754.121    21626751.211
 04  5 20  0 38 30.0000000  0  6G11G25G14G 1G30G20
  21990743.857   -19425499.14943 -14869891.55242  21990746.196    21990743.058
  20851602.782   -23437863.89744 -17841698.51342  20851604.989    20851601.394
  23730093.962   -11463801.80343  -8916871.87542  23730096.357    23730093.636
  22580258.641   -15828086.29743 -12313216.13442  22580260.922    22580259.707
  24163682.674    -8539991.69543  -6649544.06942  24163685.527    24163683.768
  21612832.273   -23332129.98743 -18130449.55542  21612834.306    21612831.384
 04  5 20  0 39  0.0000000  0  6G11G25G14G 1G30G20
  22000985.587   -19371678.61943 -14827953.51742  22000987.929    22000984.835
  20857923.176   -23404649.99644 -17815817.55742  20857925.386    20857921.800
  23745519.681   -11382739.70843  -8853706.66942  23745522.003    23745519.274
  22567948.250   -15892777.65843 -12363624.91142  22567950.502    22567949.270
  24168932.514    -8512403.45843  -6628046.71642  24168935.377    24168933.580
  21598959.828   -23405030.08943 -18187254.79742  21598961.854    21598958.935
 04  5 20  0 39 30.0000000  0  6G11G25G14G 1G30G20
  22011309.328   -19317427.04643 -14785679.61242  22011311.647    22011308.610
  20864330.654   -23370978.51144 -17789580.04442  20864332.858    20864329.263
  23760952.239   -11301640.85143  -8790512.80242  23760954.605    23760951.921
  22555670.850   -15957295.49443 -12413898.46642  22555673.127    22555671.875
  24174286.962    -8484265.39543  -6606120.94242  24174289.824    24174287.911
  21585136.374   -23477672.68243 -18243859.38142  21585138.383    21585135.501
 04  5 20  0 40  0.0000000  0  6G11G25G14G 1G30G20
  22021714.427   -19262748.07743 -14743072.66842  22021716.734    22021713.730
  20870824.620   -23336852.53644 -17762988.38042  20870826.821    20870823.229
  23776391.442   -11220507.47943  -8727292.04142  23776393.770    23776391.115
  22543426.212   -16021641.27943 -12464037.96742  22543428.468    22543427.213
  24179745.724    -8455579.84143  -6583768.55442  24179748.510    24179746.674
  21571361.980   -23550057.50043 -18300263.09942  21571363.966    21571361.089
 04  5 20  0 40 30.0000000  0  6G11G25G14G 1G30G20
  22032199.935   -19207646.54743 -14700136.45442  22032202.219    22032199.236
  20877404.246   -23302276.36344 -17736045.91442  20877406.437    20877402.850
  23791836.706   -11139342.29843  -8664046.47942  23791839.011    23791836.384
  22531213.762   -16085817.49943 -12514045.34242  22531216.060    22531214.830
  24185308.028    -8426349.96743  -6560992.00642  24185310.791    24185308.782
  21557636.560   -23622184.78943 -18356466.14342  21557638.568    21557635.674
 04  5 20  0 41  0.0000000  0  7G16G11G25G14G 1G30G20
  24646879.136    -5250575.39653  -3902542.74652  24646881.847    24646884.457
  22042764.474   -19152129.75843 -14656876.66042  22042766.756    22042763.756
  20884068.187   -23267257.04744 -17708758.14242  20884070.411    20884066.796
  23807286.936   -11058151.13443  -8600780.68442  23807289.265    23807286.599
  22519032.602   -16149829.69943 -12563924.90242  22519034.877    22519033.667
  24190972.783    -8396581.54243  -6537795.83242  24190975.472    24190973.534
  21543959.560   -23694057.71343 -18412470.98742  21543961.552    21543958.666
 04  5 20  0 41 30.0000000  0  7G16G11G25G14G 1G30G20
  24628742.782    -5345881.80043  -3976807.16342  24628745.485    24628747.921
  22053410.971   -19096182.23643 -14613281.24042  22053413.231    22053410.249
  20890819.556   -23231778.32444 -17681112.38842  20890821.774    20890818.171
  23822745.360   -10976916.76443  -8537481.21742  23822747.777    23822745.081
  22506886.059   -16213659.73443 -12613662.50742  22506888.369    22506887.166
  24196743.267    -8366257.37043  -6514166.59442  24196745.938    24196744.083
  21530334.722   -23765656.44143 -18468262.16942  21530336.730    21530333.833
 04  5 20  0 42  0.0000000  0  7G16G11G25G14G 1G30G20
  24610599.468    -5441224.36243  -4051099.78842  24610602.154    24610604.506
  22064136.578   -19039819.15643 -14569362.00642  22064138.854    22064135.832
  20897655.632   -23195854.57444 -17653119.86142  20897657.838    20897654.244
  23838209.509   -10895652.47043  -8474158.42642  23838211.862    23838209.259
  22494771.794   -16277320.38843 -12663268.13542  22494774.105    22494772.899
  24202616.858    -8335391.21643  -6490115.03342  24202619.605    24202617.721
  21516760.058   -23836991.58443 -18523847.96142  21516762.078    21516759.180
 04  5 20  0 42 30.0000000  0  7G16G11G25G14G 1G30G20
  24592450.318    -5536597.03043  -4125415.85842  24592453.115    24592455.428
  22074941.454   -18983039.25543 -14525117.97542  22074943.769    22074940.748
  20904576.688   -23159484.17044 -17624779.29142  20904578.899    20904575.304
  23853679.962   -10814355.11643  -8410809.88642  23853682.300    23853679.700
  22482690.431   -16340808.18743 -12712739.05842  22482692.759    22482691.491
  24208594.127    -8303979.91143  -6465638.68842  24208596.949    24208595.030
  21503236.607   -23908057.63043 -18579224.06642  21503238.632    21503235.726
 04  5 20  0 43  0.0000000  0  7G16G11G25G14G 1G30G20
  24574296.547    -5631994.16443  -4199751.00542  24574299.459    24574301.692
  22085825.794   -18925841.85743 -14480548.62742  22085828.109    22085825.098
  20911583.071   -23122665.42844 -17596089.36842  20911585.268    20911581.692
  23869157.121   -10733022.29243  -8347433.72042  23869159.469    23869156.924
  22470642.489   -16404120.19843 -12762073.01742  22470644.828    22470643.537
  24214675.555    -8272021.54643  -6440736.06042  24214678.292    24214676.444
  21489765.370   -23978849.48343 -18634386.52042  21489767.388    21489764.454
 04  5 20  0 43 30.0000000  0  7G16G11G25G14G 1G30G20
  24556136.850    -5727422.65743  -4274110.59242  24556139.739    24556141.946
  22096787.270   -18868239.09943 -14435663.40142  22096789.615    22096786.592
  20918672.474   -23085410.28644 -17567059.39542  20918674.698    20918671.121
  23884639.098   -10651664.38443  -8284037.99042  23884641.449    23884638.873
  22458626.158   -16467266.16043 -12811277.58842  22458628.488    22458627.166
  24220859.074    -8239526.77343  -6415415.45442  24220861.853    24220860.004
  21476344.834   -24049374.83843 -18689341.31042  21476346.837    21476343.876
 04  5 20  0 44  0.0000000  0  7G16G11G25G14G 1G30G20
  24537973.667    -5822869.83743  -4348484.73542  24537976.491    24537978.598
  22107827.284   -18810223.66043 -14390456.62442  22107829.615    22107826.608
  20925846.454   -23047710.83244 -17537683.20442  20925848.669    20925845.092
  23900127.579   -10570272.10443  -8220615.49142  23900129.882    23900127.289
  22446643.266   -16530236.65243 -12860345.42542  22446645.576    22446644.192
  24227146.453    -8206486.52343  -6389669.79842  24227149.166    24227147.462
  21462977.242   -24119622.01044 -18744079.33842  21462979.229    21462976.217
 04  5 20  0 44 30.0000000  0  7G16G11G25G14G 1G30G20
  24519806.192    -5918339.59943  -4422876.48842  24519809.000    24519811.031
  22118944.133   -18751804.50143 -14344935.25442  22118946.451    22118943.463
  20933103.398   -23009575.40244 -17507967.28942  20933105.607    20933102.041
  23915621.200   -10488852.60943  -8157171.77442  23915623.509    23915620.942
  22434692.512   -16593038.12043 -12909281.55942  22434694.786    22434693.368
  24233536.257    -8172908.30943  -6363504.93942  24233538.937    24233537.189
  21449661.724   -24189595.43344 -18798604.05542  21449663.715    21449660.690
 04  5 20  0 45  0.0000000  0  7G16G11G25G14G 1G30G20
  24501635.931    -6013823.81443  -4497279.52242  24501638.712    24501640.788
  22130138.305   -18692978.82243 -14299097.11742  22130140.659    22130137.679
  20940443.942   -22971000.59644 -17477909.00742  20940446.159    20940442.573
  23931120.941   -10407401.20543  -8093703.20542  23931123.204    23931120.557
  22422774.859   -16655665.43243 -12958081.98642  22422777.147    22422775.695
  24240029.159    -8138787.87443  -6336917.58042  24240031.784    24240030.081
  21436399.687   -24259287.86244 -18852909.81542  21436401.677    21436398.611
 04  5 20  0 45 30.0000000  0  7G16G11G25G14G 1G30G20
  24483462.603    -6109324.21043  -4571695.15842  24483465.431    24483467.249
  22141408.619   -18633753.35443 -14252947.45842  22141410.931    22141407.970
  20947866.904   -22931992.73044 -17447513.27142  20947869.124    20947865.516
  23946625.783   -10325922.67643  -8030213.49142  23946628.146    23946625.505
  22410889.520   -16718123.01343 -13006750.15142  22410891.790    22410890.332
  24246624.294    -8104130.30643  -6309911.67342  24246626.937    24246625.210
  21423190.655   -24328701.67344 -18906998.47342  21423192.649    21423189.566
 04  5 20  0 46  0.0000000  0  7G16G11G25G14G 1G30G20
  24465287.586    -6204833.88043  -4646118.03242  24465290.310    24465292.116
  22152755.333   -18574126.14143 -14206484.75342  22152757.621    22152754.688
  20955372.679   -22892549.62744 -17416778.38842  20955374.904    20955371.308
  23962136.442   -10244413.68643  -7966700.04542  23962138.824    23962136.302
  22399037.195   -16780407.16743 -13055283.18342  22399039.431    22399037.995
  24253322.117    -8068932.88643  -6282485.11542  24253324.862    24253322.979
  21410035.818   -24397830.58244 -18960865.12642  21410037.802    21410034.736
 04  5 20  0 46 30.0000000  0  7G16G11G25G14G 1G30G20
  24447110.669    -6300353.06943  -4720548.31242  24447113.423    24447115.237
  22164177.280   -18514103.64543 -14159714.04042  22164179.558    22164176.644
  20962960.415   -22852675.91544 -17385707.97342  20962962.626    20962959.017
  23977652.310   -10162877.48043  -7903165.39942  23977654.651    23977652.181
  22387217.274   -16842520.95943 -13103683.46342  22387219.483    22387218.047
  24260121.921    -8033199.47943  -6254640.90642  24260124.714    24260122.880
  21396934.953   -24466675.93944 -19014510.83242  21396936.921    21396933.868
 04  5 20  0 47  0.0000000  0  7G16G11G25G14G 1G30G20
  24428933.174    -6395875.28843  -4794980.94342  24428935.993    24428937.747
  22175674.831   -18453683.94343 -14112633.81942  22175677.082    22175674.164
  20970630.410   -22812369.81444 -17354300.62842  20970632.625    20970629.019
  23993173.957   -10081311.01143  -7839607.15742  23993176.256    23993173.806
  22375430.519   -16904460.54743 -13151948.00542  22375432.699    22375431.256
  24267024.269    -7996927.22143  -6226376.80642  24267027.018    24267025.176
  21383889.266   -24535231.50444 -19067930.73342  21383891.205    21383888.149
 04  5 20  0 47 30.0000000  0  7G16G11G25G14G 1G30G20
  24410754.919    -6491401.61443  -4869416.77942  24410757.734    24410759.335
  22187246.691   -18392873.80843 -14065249.35542  22187248.909    22187245.978
  20978381.583   -22771637.11744 -17322560.87142  20978383.814    20978380.181
  24008700.443    -9999718.87543  -7776028.93942  24008702.778    24008700.337
  22363676.132   -16966230.02943 -13200079.99542  22363678.313    22363676.857
  24274028.251    -7960121.23143  -6197696.81742  24274030.976    24274029.118
  21370898.315   -24603499.39144 -19121126.46642  21370900.282    21370897.186
 04  5 20  0 48  0.0000000  0  7G16G11G25G14G 1G30G20
  24392576.875    -6586927.22443  -4943852.10242  24392579.626    24392581.086
  22198892.749   -18331673.59543 -14017560.93642  22198894.977    22198892.028
  20986213.937   -22730477.86244 -17290488.72842  20986216.142    20986212.545
  24024232.128    -9918099.63043  -7712429.59542  24024234.429    24024232.081
  22351954.403   -17027827.57743 -13248078.01742  22351956.637    22351955.156
  24281133.992    -7922780.57043  -6168600.19142  24281136.704    24281134.827
  21357962.843   -24671475.74344 -19174095.02742  21357964.793    21357961.672
 04  5 20  0 48 30.0000000  0  7G16G11G25G14G 1G30G20
  24374399.251    -6682450.38043  -5018285.52742  24374401.900    24374403.346
  22210612.352   -18270086.87543 -13969571.34642  22210614.599    22210611.611
  20994126.967   -22688894.57744 -17258086.17742  20994129.187    20994125.583
  24039768.764    -9836454.37143  -7648809.97742  24039771.066    24039768.725
  22340265.259   -17089254.16443 -13295942.82842  22340267.477    22340265.996
  24288341.107    -7884907.09943  -6139088.39342  24288343.775    24288341.975
  21345083.098   -24739159.16744 -19226835.33542  21345085.068    21345081.930
 04  5 20  0 49  0.0000000  0  7G16G11G25G14G 1G30G20
  24356222.985    -6777966.65643  -5092713.60042  24356225.569    24356226.943
  22222405.366   -18208114.41943 -13921281.17842  22222407.628    22222404.623
  21002120.507   -22646888.40944 -17225354.10242  21002122.708    21002119.093
  24055310.412    -9754782.45343  -7585169.58242  24055312.729    24055310.429
  22328608.856   -17150508.54243 -13343673.44442  22328611.069    22328609.604
  24295649.600    -7846500.80343  -6109161.40542  24295652.256    24295650.452
  21332259.715   -24806546.31844 -19279344.77742  21332261.699    21332258.567
 04  5 20  0 49 30.0000000  0  7G16G11G25G14G 1G30G20
  24338048.554    -6873473.32743  -5167134.16642  24338051.088    24338052.331
  22234271.298   -18145758.78143 -13872692.43242  22234273.566    22234270.553
  21010194.157   -22604461.13944 -17192293.90242  21010196.348    21010192.722
  24070857.171    -9673084.13243  -7521508.63742  24070859.472    24070857.121
  22316985.192   -17211590.76643 -13391269.91242  22316987.404    22316985.984
  24303059.243    -7807562.59043  -6078819.94242  24303061.892    24303060.020
  21319493.094   -24873635.22344 -19331621.82642  21319495.089    21319491.931
 04  5 20  0 50  0.0000000  0  7G16G11G25G14G 1G30G20
  24319876.474    -6968967.35443  -5241544.89642  24319878.919    24319880.137
  22246209.608   -18083022.84143 -13823807.34042  22246211.875    22246208.858
  21018347.641   -22561614.26344 -17158906.73342  21018349.860    21018346.203
  24086408.806    -9591359.88243  -7457827.47342  24086411.095    24086408.728
  22305394.329   -17272500.78043 -13438732.19042  22305396.527    22305395.134
  24310569.964    -7768093.60243  -6048064.88942  24310572.593    24310570.694
  21306783.633   -24940423.62144 -19383664.71342  21306785.647    21306782.493
 04  5 20  0 50 30.0000000  0  7G16G11G25G14G 1G30G20
  24301707.070    -7064447.18543  -5315944.53642  24301709.633    24301710.740
  22258219.661   -18019909.85843 -13774628.45342  22258221.932    22258218.916
  21026580.412   -22518350.79944 -17125194.95142  21026582.622    21026578.974
  24101965.031    -9509611.35943  -7394127.38642  24101967.334    24101964.978
  22293836.074   -17333239.83343 -13486061.25942  22293838.227    22293836.797
  24318181.255    -7728096.09743  -6016897.99742  24318183.880    24318181.850
  21294131.525   -25006910.69144 -19435472.79642  21294133.519    21294130.407
 04  5 20  0 51  0.0000000  0  7G16G11G25G14G 1G30G20
  24283540.923    -7159909.87243  -5390330.84942  24283543.450    24283544.484
  22270300.999   -17956422.32443 -13725157.70342  22270303.263    22270300.252
  21034892.144   -22474672.49744 -17091159.92142  21034894.346    21034890.682
  24117525.828    -9427838.97243  -7330408.70242  24117528.127    24117525.797
  22282310.292   -17393807.82443 -13533257.03542  22282312.486    22282311.006
  24325892.955    -7687570.94643  -5985319.96342  24325895.584    24325893.573
  21281537.242   -25073094.03544 -19487044.21342  21281539.236    21281536.113
 04  5 20  0 51 30.0000000  0  7G16G11G25G14G 1G30G20
  24265378.980    -7255351.18243  -5464700.49842  24265381.532    24265382.591
  22282453.215   -17892561.98743 -13675396.46042  22282455.522    22282452.543
  21043282.640   -22430580.17344 -17056802.27542  21043284.822    21043281.163
  24133091.417    -9346041.72643  -7266670.66542  24133093.716    24133091.375
  22270817.287   -17454203.69543 -13580318.68842  22270819.477    22270817.988
  24333705.051    -7646518.34543  -5953330.93642  24333707.696    24333705.650
  21269001.325   -25138970.61144 -19538376.58842  21269003.323    21269000.199
 04  5 20  0 52  0.0000000  0  6G16G11G25G14G 1G20
  24247221.360    -7350769.34843  -5539052.10842  24247223.883    24247224.899
  22294675.695   -17828332.45243 -13625347.52942  22294678.024    22294675.077
  21051751.272   -22386077.24644 -17022124.67842  21051753.467    21051749.795
  24148661.355    -9264221.58543  -7202914.78142  24148663.641    24148661.257
  22259356.701   -17514428.99243 -13627247.43042  22259358.931    22259357.454
  21256523.968   -25204539.47844 -19589469.19242  21256525.977    21256522.828
 04  5 20  0 52 30.0000000  0  6G16G11G25G14G 1G20
  24229068.879    -7446160.60243  -5613382.75942  24229071.319    24229072.357
  22306968.252   -17763734.82243 -13575011.76642  22306970.577    22306967.644
  21060297.958   -22341164.09944 -16987127.43342  21060300.156    21060296.517
  24164235.834    -9182377.61443  -7139140.32742  24164238.159    24164235.738
  22247928.913   -17574482.28343 -13674042.13542  22247931.121    22247929.649
  21244105.842   -25269797.28444 -19640319.40942  21244107.830    21244104.651
 04  5 20  0 53  0.0000000  0  6G16G11G25G14G 1G20
  24210922.694    -7541518.47943  -5687687.39442  24210925.186    24210926.137
  22319330.960   -17698768.63343 -13524388.81742  22319333.271    22319330.363
  21068922.995   -22295839.28344 -16951809.40642  21068925.174    21068921.566
  24179815.422    -9100506.73543  -7075344.90642  24179817.785    24179815.393
  22236534.443   -17634360.38643 -13720700.34542  22236536.659    22236535.169
  21231747.872   -25334738.69744 -19690923.08642  21231749.891    21231746.673
 04  5 20  0 53 30.0000000  0  6G16G11G25G14G 1G20
  24192782.118    -7636847.47843  -5761969.55242  24192784.590    24192785.443
  22331761.923   -17633443.68743 -13473486.32542  22331764.245    22331761.360
  21077624.561   -22250112.35744 -16916178.04642  21077626.746    21077623.117
  24195398.640    -9018616.74843  -7011534.56942  24195400.985    24195398.632
  22225171.962   -17694070.56943 -13767227.71142  22225174.154    22225172.603
  21219449.182   -25399368.74744 -19741284.14442  21219451.190    21219447.968
 04  5 20  0 54  0.0000000  0  6G16G11G25G14G 1G20
  24174648.949    -7732137.25643  -5836221.13942  24174651.317    24174652.217
  22344262.089   -17567755.18043 -13422300.53042  22344264.418    22344261.529
  21086403.639   -22203978.01744 -16880229.22442  21086405.829    21086402.204
  24210986.757    -8936700.89843  -6947704.10142  24210989.135    24210986.659
  22213842.803   -17753605.61243 -13813618.60042  22213844.996    22213843.397
  21207211.518   -25463678.06844 -19791395.28242  21207213.524    21207210.292
 04  5 20  0 54 30.0000000  0  6G16G11G25G14G 1G20
  24156522.924    -7827389.39843  -5910443.42142  24156525.373    24156526.080
  22356830.082   -17501710.26343 -13370837.02242  22356832.403    22356829.533
  21095259.044   -22157442.47444 -16843967.77542  21095261.229    21095257.646
  24226578.847    -8854763.97643  -6883857.18742  24226581.147    24226578.788
  22202546.132   -17812969.98243 -13859876.50242  22202548.333    22202546.690
  21195034.404   -25527668.97144 -19841258.30442  21195036.431    21195033.206
 04  5 20  0 55  0.0000000  0  6G16G11G25G14G 1G20
  24138404.898    -7922599.47343  -5984632.91442  24138407.350    24138407.979
  22369465.735   -17435309.79143 -13319096.45942  22369468.032    22369465.182
  21104190.715   -22110506.13844 -16807394.02042  21104192.914    21104189.341
  24242175.186    -8772804.68543  -6819992.84642  24242177.531    24242175.095
  22191282.177   -17872162.28243 -13906000.31442  22191284.384    22191282.724
  21182918.561   -25591338.01544 -19890870.52842  21182920.573    21182917.369
 04  5 20  0 55 30.0000000  0  6G16G11G25G14G 1G20
  24120295.461    -8017764.28743  -6058787.14542  24120297.976    24120298.542
  22382168.496   -17368556.40043 -13267080.89642  22382170.781    22382167.993
  21113198.322   -22063170.75444 -16770509.31442  21113200.524    21113196.960
  24257775.725    -8690823.24343  -6756111.23242  24257778.082    24257775.650
  22180051.039   -17931182.30543 -13951989.89642  22180053.247    22180051.516
  21170864.469   -25654682.69144 -19940229.99942  21170866.471    21170863.272
 04  5 20  0 56  0.0000000  0  6G16G11G25G14G 1G20
  24102194.460    -8112885.00443  -6132907.00242  24102196.989    24102197.435
  22394937.161   -17301456.98243 -13214795.70042  22394939.432    22394936.649
  21122280.674   -22015442.89744 -16733318.78742  21122282.857    21122279.272
  24273379.634    -8608824.41143  -6692216.09542  24273381.920    24273379.577
  22168851.809   -17990034.35743 -13997848.58842  22168854.029    22168852.309
  21158871.696   -25717705.27244 -19989338.49042  21158873.671    21158870.449
 04  5 20  0 56 30.0000000  0  6G16G11G25G14G 1G20
  24084103.665    -8207951.84343  -6206984.87842  24084106.250    24084106.666
  22407772.454   -17234007.16843 -13162237.47042  22407774.723    22407772.003
  21131438.686   -21967317.22044 -16695818.26842  21131440.880    21131437.272
  24288988.084    -8526801.71243  -6628302.35342  24288990.357    24288988.111
  22157685.907   -18048711.48643 -14043570.96742  22157688.122    22157686.345
  21146941.894   -25780396.69944 -20038188.93642  21146943.864    21146940.648
 04  5 20  0 57  0.0000000  0  6G16G11G25G14G 1G20
  24066023.044    -8302965.28443  -6281021.15742  24066025.680    24066026.074
  22420673.263   -17166213.28443 -13109411.13642  22420675.490    22420672.836
  21140671.383   -21918799.23944 -16658012.06242  21140673.573    21140669.942
  24304600.422    -8444758.54043  -6564372.66642  24304602.701    24304600.468
  22146552.567   -18107217.12443 -14089159.72542  22146554.817    22146553.022
  21135074.919   -25842758.01744 -20086782.15942  21135076.901    21135073.661
 04  5 20  0 57 30.0000000  0  6G16G11G25G14G 1G20
  24047953.294    -8397921.95243  -6355013.21742  24047955.818    24047956.242
  22433639.228   -17098077.01843 -13056318.01042  22433641.478    22433638.787
  21149978.419   -21869890.45744 -16619901.33242  21149980.615    21149976.984
  24320216.683    -8362694.95143  -6500427.06742  24320218.985    24320216.684
  22135451.991   -18165550.79843 -14134614.48542  22135454.215    22135452.429
  21123271.266   -25904786.69444 -20135116.17942  21123273.225    21123269.970
 04  5 20  0 58  0.0000000  0  6G16G11G25G14G 1G20
  24029894.437    -8492821.41443  -6428960.69742  24029896.895    24029897.304
  22446669.343   -17029603.62343 -13002962.18342  22446671.588    22446668.906
  21159358.937   -21820595.52244 -16581489.70042  21159361.149    21159357.522
  24335836.173    -8280613.85643  -6436467.83042  24335838.438    24335836.270
  22124383.654   -18223715.13243 -14179937.28642  22124385.854    22124384.079
  21111530.759   -25966483.43844 -20183191.54842  21111532.726    21111529.466
 04  5 20  0 58 30.0000000  0  6G16G11G25G14G 1G20
  24011848.171    -8587654.77043  -6502856.67242  24011850.610    24011850.924
  22459764.096   -16960790.36143 -12949341.53042  22459766.336    22459763.705
  21168813.718   -21770910.32844 -16542773.97642  21168815.926    21168812.307
  24351460.075    -8198509.87343  -6372490.76342  24351462.336    24351460.228
  22113348.586   -18281704.58343 -14225123.82442  22113350.803    22113348.986
  21099854.958   -26027840.21944 -20231002.01142  21099856.930    21099853.638
 04  5 20  0 59  0.0000000  0  6G16G11G25G14G 1G20
  23993814.047    -8682424.55943  -6576703.10942  23993816.449    23993816.747
  22472922.070   -16891644.88143 -12895461.99742  22472924.317    22472921.683
  21178341.309   -21720842.45544 -16503760.05742  21178343.552    21178339.921
  24367087.278    -8116388.80443  -6308500.39742  24367089.486    24367087.542
  22102345.805   -18339524.40043 -14270178.17742  22102348.020    22102346.166
  21088243.230   -26088860.18144 -20278550.01942  21088245.209    21088241.932
 04  5 20  0 59 30.0000000  0  6G16G11G25G14G 1G20
  23975793.068    -8777124.75043  -6650495.30342  23975795.528    23975795.788
  22486143.278   -16822167.14943 -12841323.57142  22486145.516    22486142.936
  21187941.942   -21670390.78144 -16464447.07542  21187944.176    21187940.539
  24382718.289    -8034247.78943  -6244494.46042  24382720.499    24382718.502
  22091375.849   -18397171.67443 -14315098.08542  22091378.076    22091376.223
  21076696.536   -26149538.30744 -20325831.65642  21076698.522    21076695.253
 04  5 20  1  0  0.0000000  0  6G16G11G25G14G 1G20
  23957786.139    -8871751.20943  -6724230.05842  23957788.589    23957788.813
  22499427.462   -16752358.42943 -12786927.22842  22499429.722    22499427.172
  21197615.413   -21619556.42844 -16424835.89942  21197617.624    21197614.002
  24398353.160    -7952086.14343  -6180472.46642  24398355.415    24398353.344
  22080438.912   -18454645.32843 -14359882.70342  22080441.130    22080439.325
  21065215.522   -26209871.45344 -20372844.47742  21065217.484    21065214.236
 04  5 20  1  0 30.0000000  0  6G16G11G25G14G 1G20
  23939793.208    -8966303.84043  -6797907.28042  23939795.714    23939795.846
  22512773.545   -16682224.60643 -12732277.56642  22512775.799    22512773.272
  21207360.776   -21568344.27744 -16384930.33742  21207362.991    21207359.349
  24413991.380    -7869907.07943  -6116436.89042  24413993.623    24413991.529
  22069534.514   -18511948.18543 -14404534.23242  22069536.716    22069534.905
  21053799.990   -26269860.31044 -20419589.02142  21053801.964    21053798.713
 04  5 20  1  1  0.0000000  0  6G16G11G25G14G 1G20
  23921814.617    -9060781.32143  -6871525.96142  23921817.157    23921817.268
  22526180.728   -16611769.52643 -12677377.56442  22526182.995    22526180.486
  21217177.313   -21516758.19444 -16344733.40042  21217179.497    21217175.861
  24429632.591    -7787712.32843  -6052389.09942  24429634.788    24429632.760
  22058662.295   -18569081.86843 -14449053.93542  22058664.492    22058662.646
  21042450.157   -26329503.99644 -20466064.59642  21042452.145    21042448.892
 04  5 20  1  1 30.0000000  0  6G16G11G25G14G 1G20
  23903852.228    -9155173.56543  -6945078.20142  23903854.748    23903854.865
  22539649.786   -16540989.34043 -12622224.23842  22539652.074    22539649.538
  21227065.973   -21464792.99844 -16304241.04942  21227068.162    21227064.530
  24445277.942    -7705495.36743  -5988324.01242  24445280.136    24445278.286
  22047823.539   -18626039.53843 -14493436.48642  22047825.744    22047823.898
  21031167.638   -26388793.95044 -20512264.54042  21031169.607    21031166.362
 04  5 20  1  2  0.0000000  0  6G16G11G25G14G 1G20
  23885905.295    -9249484.83343  -7018567.37542  23885907.768    23885907.856
  22553178.833   -16469893.95043 -12566825.30742  22553181.138    22553178.594
  21237025.076   -21412457.65844 -16263460.27742  21237027.280    21237023.616
  24460926.172    -7623263.67643  -5924247.44542  24460928.385    24460926.573
  22037016.916   -18682828.40943 -14537687.51042  22037019.161    22037017.285
  21019951.461   -26447735.14044 -20558192.71942  21019953.431    21019950.199
 04  5 20  1  2 30.0000000  0  6G16G11G25G14G 1G20
  23867974.688    -9343709.85043  -7091989.31342  23867977.130    23867977.232
  22566767.763   -16398483.84343 -12511181.13642  22566770.073    22566767.547
  21247054.569   -21359752.24944 -16222391.14242  21247056.765    21247053.138
  24476577.481    -7541015.43143  -5860157.98142  24476579.694    24476577.841
  22026242.862   -18739446.33743 -14581805.33242  22026245.077    22026243.206
  21008802.497   -26506323.18244 -20603845.71442  21008804.462    21008801.225
 04  5 20  1  3  0.0000000  0  6G16G11G25G14G 1G20
  23850061.938    -9437841.52043  -7165338.53142  23850064.296    23850064.479
  22580416.862   -16326757.35543 -12455290.43342  22580419.167    22580416.706
  21257154.908   -21306674.58344 -16181031.93242  21257157.092    21257153.492
  24492232.657    -7458746.72643  -5796052.57942  24492234.923    24492233.153
  22015502.102   -18795889.10943 -14625786.66342  22015504.335    22015502.452
  20997721.982   -26564551.62644 -20649218.50642  20997723.923    20997720.689
 04  5 20  1  3 30.0000000  0  6G16G11G25G14G 1G20
  23832166.283    -9531883.20843  -7238617.62742  23832168.595    23832168.759
  22594124.435   -16254723.73143 -12399160.41242  22594126.734    22594124.284
  21267324.503   -21253233.14444 -16139389.26742  21267326.678    21267323.065
  24507890.561    -7376464.33543  -5731936.49342  24507892.689    24507891.032
  22004793.459   -18852163.40443 -14669636.70342  22004795.650    22004793.752
  20986709.037   -26622425.04244 -20694314.65342  20986710.978    20986707.709
 04  5 20  1  4  0.0000000  0  6G16G11G25G14G 1G20
  23814289.109    -9625827.94643  -7311821.17842  23814291.385    23814291.560
  22607890.700   -16182381.97643 -12342790.26942  22607892.960    22607890.529
  21277563.623   -21199426.15844 -16097461.75542  21277565.846    21277562.179
  24523551.689    -7294164.79043  -5667807.05042  24523553.949    24523552.236
  21994117.595   -18908265.20243 -14713352.33642  21994119.809    21994117.857
  20975764.774   -26679937.44244 -20739129.48842  20975766.712    20975763.445
 04  5 20  1  4 30.0000000  0  6G16G11G25G14G 1G20
  23796430.961    -9719672.75343  -7384946.87242  23796433.158    23796433.266
  22621715.088   -16109734.41143 -12286181.84442  22621717.376    22621714.953
  21287871.932   -21145255.56844 -16055250.92042  21287874.155    21287870.499
  24539216.046    -7211848.09143  -5603664.24742  24539218.221    24539216.641
  21983474.626   -18964194.46343 -14756933.53642  21983476.814    21983474.798
  20964889.605   -26737086.57644 -20783661.26042  20964891.567    20964888.273
 04  5 20  1  5  0.0000000  0  6G16G11G25G14G 1G20
  23778592.445    -9813414.24343  -7457992.05642  23778594.717    23778594.676
  22635597.194   -16036783.71943 -12229337.21442  22635599.501    22635597.064
  21298249.082   -21090723.24544 -16012758.21342  21298251.313    21298247.679
  24554883.805    -7129514.18343  -5539508.02142  24554885.982    24554884.388
  21972864.445   -19019950.93043 -14800380.08442  21972866.671    21972864.670
  20954084.061   -26793869.90944 -20827907.99742  20954086.030    20954082.726
 04  5 20  1  5 30.0000000  0  6G16G11G25G14G 1G20
  23760773.687    -9907052.10143  -7530956.50342  23760775.876    23760775.762
  22649535.927   -15963535.36743 -12172260.64742  22649538.257    22649535.841
  21308694.192   -21035833.66744 -15969987.12342  21308696.429    21308692.829
  24570554.186    -7047165.96943  -5475340.65342  24570556.270    24570554.723
  21962286.704   -19075537.21643 -14843694.02242  21962288.897    21962286.918
  20943348.014   -26850288.17444 -20871870.26742  20943349.974    20943346.674
 04  5 20  1  6  0.0000000  0  6G16G11G25G14G 1G20
  23742975.881   -10000579.42743  -7603834.81542  23742978.132    23742977.968
  22663531.523   -15889988.52443 -12114951.49042  22663533.816    22663531.391
  21319207.596   -20980585.41744 -15926936.54942  21319209.811    21319206.227
  24586227.972    -6964800.07643  -5411159.50942  24586230.176    24586228.485
  21951742.026   -19130949.71843 -14886872.54742  21951744.200    21951742.230
  20932682.589   -26906335.36144 -20915543.38542  20932684.537    20932681.232
 04  5 20  1  6 30.0000000  0  6G16G11G25G14G 1G20
  23725200.613   -10093988.42643  -7676620.92442  23725202.876    23725202.683
  22677584.341   -15816140.90843 -12057407.96542  22677586.612    22677584.185
  21329789.822   -20924975.47944 -15883604.14342  21329792.028    21329788.447
  24601905.889    -6882412.10843  -5346961.15542  24601908.146    24601906.533
  21941231.351   -19186183.55243 -14929911.85542  21941233.541    21941231.521
  20922089.076   -26962004.57144 -20958921.97642  20922091.038    20922087.717
 04  5 20  1  7  0.0000000  0  6G16G11G25G14G 1G20
  23707445.309   -10187292.81543  -7749325.52242  23707447.631    23707447.298
  22691690.662   -15742012.06843 -11999645.30742  22691692.948    22691690.524
  21340437.247   -20869022.80244 -15840004.66642  21340439.474    21340435.905
  24617584.814    -6800019.17743  -5282758.93642  24617587.134    24617585.349
  21930751.447   -19241255.72243 -14972825.19142  21930753.618    21930751.586
  20911564.643   -27017310.77344 -21002017.70742  20911566.608    20911563.275
 04  5 20  1  7 30.0000000  0  6G16G11G25G14G 1G20
  23689712.751   -10280477.55043  -7821936.88342  23689715.107    23689714.709
  22705852.293   -15667592.63343 -11941656.21442  22705854.566    22705852.152
  21351151.837   -20812717.38844 -15796130.32942  21351154.060    21351150.463
  24633266.975    -6717609.21343  -5218543.44242  24633269.244    24633267.542
  21920304.616   -19296153.99943 -15015603.03242  21920306.789    21920304.733
  20901112.005   -27072239.59644 -21044819.37742  20901113.988    20901110.628
 04  5 20  1  8  0.0000000  0  6G16G11G25G14G 1G20
  23672003.631   -10373539.34943  -7894452.46142  23672005.978    23672005.486
  22720068.700   -15592885.37343 -11883442.85042  22720070.945    22720068.516
  21361933.189   -20756061.14344 -15751982.62342  21361935.398    21361931.816
  24648952.388    -6635182.33043  -5154314.76942  24648954.636    24648952.998
  21909890.915   -19350878.17743 -15058245.20142  21909893.075    21909890.999
  20890731.640   -27126788.68444 -21087325.15142  20890733.619    20890730.266
 04  5 20  1  8 30.0000000  0  6G16G11G25G14G 1G20
  23654317.770   -10466478.89743  -7966872.77442  23654320.116    23654319.534
  22734338.603   -15517896.86443 -11825010.32842  22734340.843    22734338.454
  21372780.164   -20699060.03744 -15707566.19142  21372782.370    21372778.781
  24664640.196    -6552742.72643  -5090076.20242  24664642.508    24664640.782
  21899509.580   -19405432.11943 -15100754.72142  21899511.726    21899509.680
  20880423.188   -27180959.94044 -21129536.51142  20880425.151    20880421.796
 04  5 20  1  9  0.0000000  0  6G16G11G25G14G 1G20
  23636655.652   -10559293.30743  -8039195.58542  23636657.971    23636657.437
  22748661.457   -15442629.89943 -11766360.82942  22748663.727    22748661.345
  21383692.382   -20641716.02744 -15662882.55842  21383694.588    21383691.001
  24680330.430    -6470290.36543  -5025827.68042  24680332.669    24680330.986
  21889160.673   -19459815.68943 -15143131.48642  21889162.804    21889160.796
  20870187.071   -27234751.07744 -21171451.67542  20870189.040    20870185.682
 04  5 20  1  9 30.0000000  0  6G16G11G25G14G 1G20
  23619018.430   -10651977.11443  -8111416.63442  23619020.711    23619020.189
  22763037.319   -15367084.71443 -11707494.53542  22763039.520    22763037.190
  21394669.836   -20584029.20144 -15617931.80442  21394672.034    21394668.439
  24696023.405    -6387823.24243  -4961567.65642  24696025.689    24696023.853
  21878844.704   -19514026.52643 -15185373.65842  21878846.801    21878844.796
  20860024.130   -27288157.70744 -21213067.22442  20860026.094    20860022.748
 04  5 20  1 10  0.0000000  0  6G16G11G25G14G 1G20
  23601406.809   -10744526.45343  -8183532.89642  23601409.025    23601408.573
  22777465.659   -15291263.55943 -11648413.20042  22777467.865    22777465.540
  21405712.305   -20526000.62244 -15572714.74542  21405714.504    21405710.932
  24711719.217    -6305341.04143  -4897295.88042  24711721.624    24711719.814
  21868561.657   -19568064.06643 -15227480.79442  21868563.756    21868561.736
  20849934.842   -27341177.19944 -21254381.10742  20849936.806    20849933.484
 04  5 20  1 10 30.0000000  0  6G16G11G25G14G 1G20
  23583821.152   -10836939.33943  -8255542.84142  23583823.408    23583822.898
  22791945.834   -15215170.02343 -11589119.61442  22791948.077    22791945.717
  21416819.213   -20467633.44144 -15527233.83942  21416821.425    21416817.846
  24727417.674    -6222845.05043  -4833013.35742  24727420.291    24727418.296
  21858311.410   -19621929.36543 -15269453.71842  21858313.512    21858311.484
  20839919.494   -27393808.36144 -21295392.39442  20839921.436    20839918.096
 04  5 20  1 11  0.0000000  0  5G16G11G25G 1G20
  23566265.552   -10929194.41843  -8327429.82142  23566267.750    23566267.262
  22806480.721   -15138788.87243 -11529601.90142  22806482.970    22806480.604
  21427993.673   -20408911.35044 -15481476.37842  21427995.878    21427992.301
  21848097.452   -19675603.95643 -15311278.04442  21848099.558    21848097.530
  20829981.883   -27446030.77044 -21336085.17142  20829983.823    20829980.490
 04  5 20  1 11 30.0000000  0  5G16G11G25G 1G20
  23548733.688   -11021324.56143  -8399219.45042  23548735.875    23548735.401
  22821063.053   -15062158.65143 -11469890.12042  22821065.266    22821062.933
  21439228.405   -20349872.57144 -15435472.15042  21439230.600    21439227.038
  21837912.899   -19729123.89943 -15352981.86442  21837915.030    21837912.994
  20820115.625   -27497878.39244 -21376485.90742  20820117.545    20820114.211
 04  5 20  1 12  0.0000000  0  5G16G11G25G 1G20
  23531229.701   -11113307.88143  -8470894.66242  23531231.922    23531231.432
  22835695.662   -14985263.88043 -11409972.20542  22835697.912    22835695.641
  21450526.582   -20290500.24744 -15389208.01342  21450528.790    21450525.234
  21827761.357   -19782470.44843 -15394550.56542  21827763.498    21827761.448
  20810324.635   -27549330.43344 -21416578.39242  20810326.550    20810323.210
 04  5 20  1 12 30.0000000  0  5G16G11G25G 1G20
  23513753.573   -11205145.00943  -8542455.96142  23513755.778    23513755.284
  22850377.474   -14908110.65943 -11349852.88242  22850379.727    22850377.494
  21461887.123   -20230800.23244 -15342688.53842  21461889.325    21461885.764
  21817642.103   -19835647.37143 -15435987.10042  21817644.263    21817642.183
  20800608.651   -27600388.36744 -21456363.78442  20800610.554    20800607.200
 04  5 20  1 13  0.0000000  0  5G16G11G25G 1G20
  23496306.453   -11296829.62443  -8613898.42842  23496308.663    23496308.177
  22865108.591   -14830698.52743 -11289531.82442  22865110.823    22865108.627
  21473310.274   -20170771.26944 -15295912.73442  21473312.490    21473308.905
  21807555.769   -19888651.27443 -15477288.81242  21807557.914    21807555.840
  20790968.602   -27651046.94744 -21495837.99042  20790970.546    20790967.174
 04  5 20  1 13 30.0000000  0  5G16G11G25G 1G20
  23478888.886   -11388359.12043  -8685220.03442  23478891.048    23478890.612
  22879888.290   -14753030.97443 -11229011.74642  22879890.524    22879888.337
  21484795.479   -20110416.18044 -15248882.80942  21484797.693    21484794.086
  21797502.281   -19941482.57343 -15518456.02842  21797504.440    21797502.337
  20781404.889   -27701304.56844 -21534999.76042  20781406.827    20781403.457
 04  5 20  1 14  0.0000000  0  5G16G11G25G 1G20
  23461501.253   -11479731.38243  -8756419.10342  23461503.334    23461502.903
  22894715.873   -14675111.65643 -11168295.48042  22894718.142    22894715.957
  21496342.163   -20049738.11844 -15201601.21842  21496344.356    21496340.760
  21787481.396   -19994142.43643 -15559489.65642  21787483.569    21787481.457
  20771917.633   -27751160.34544 -21573848.40442  20771919.586    20771916.221
 04  5 20  1 14 30.0000000  0  5G16G11G25G 1G20
  23444144.276   -11570942.46243  -8827492.57542  23444146.371    23444145.944
  22909591.071   -14596942.53543 -11107384.55842  22909593.286    22909591.115
  21507950.098   -19988738.00844 -15154068.68242  21507952.301    21507948.706
  21777493.382   -20046629.81743 -15600388.88442  21777495.544    21777493.416
  20762507.440   -27800611.16244 -21612381.49942  20762509.413    20762506.019
 04  5 20  1 15  0.0000000  0  5G16G11G25G 1G20
  23426817.758   -11661993.54643  -8898441.37242  23426819.862    23426819.420
  22924512.463   -14518530.55543 -11046284.40142  22924514.675    22924512.467
  21519618.170   -19927421.87844 -15106289.90142  21519620.367    21519616.808
  21767537.432   -20098948.87643 -15641156.95042  21767539.524    21767537.392
  20753173.900   -27849659.12644 -21650600.68242  20753175.870    20753172.479
 04  5 20  1 15 30.0000000  0  5G16G11G25G 1G20
  23409524.378   -11752870.43043  -8969254.43642  23409526.526    23409526.039
  22939481.653   -14439867.51643 -10984988.61942  22939483.823    22939481.668
  21531348.060   -19865780.93844 -15058258.01642  21531350.285    21531346.725
  21757615.560   -20151088.54543 -15681785.23442  21757617.664    21757615.523
  20743919.498   -27898291.27744 -21688495.85442  20743921.465    20743918.077
 04  5 20  1 16  0.0000000  0  5G16G11G25G 1G20
  23392262.968   -11843579.11843  -9039936.41842  23392265.126    23392264.648
  22954496.284   -14360965.52543 -10923506.62142  22954498.471    22954496.314
  21543137.570   -19803826.73144 -15009982.02842  21543139.770    21543136.250
  21747726.093   -20203057.86443 -15722280.77242  21747728.196    21747726.077
  20734742.909   -27946514.60244 -21726072.46042  20734744.848    20734741.461
 04  5 20  1 16 30.0000000  0  5G16G11G25G 1G20
  23375033.958   -11934117.85843  -9110485.97542  23375036.122    23375035.579
  22969555.617   -14281828.61043 -10861841.57042  22969557.812    22969555.711
  21554986.085   -19741562.48244 -14961464.44642  21554988.296    21554984.769
  21737868.852   -20254857.84243 -15762644.35742  21737870.963    21737868.808
  20725644.199   -27994328.48044 -21763330.01642  20725646.155    20725642.775
 04  5 20  1 17  0.0000000  0  5G16G11G25G 1G20
  23357838.780   -12024478.87643  -9180897.05342  23357840.951    23357840.299
  22984659.907   -14202455.25343 -10799992.29442  22984662.093    22984660.035
  21566893.959   -19678986.09744 -14912703.64042  21566896.166    21566892.666
  21728044.664   -20306484.19543 -15802872.65042  21728046.794    21728044.582
  20716624.706   -28041726.15844 -21800263.26542  20716626.652    20716623.273
 04  5 20  1 17 30.0000000  0  5G16G11G25G 1G20
  23340677.697   -12114660.47843  -9251168.32542  23340679.885    23340679.154
  22999808.423   -14122849.48243 -10737961.90942  22999810.593    22999808.555
  21578860.658   -19616100.69044 -14863702.04842  21578862.856    21578859.388
  21718253.257   -20357938.25843 -15842966.70042  21718255.382    21718253.129
  20707684.524   -28088707.17244 -21836871.83742  20707686.441    20707683.073
 04  5 20  1 18  0.0000000  0  5G16G11G25G 1G20
  23323551.763   -12204657.49943  -9321295.75542  23323553.975    23323553.150
  23015001.070   -14043011.78243 -10675750.81042  23015003.272    23015001.272
  21590886.163   -19552906.15344 -14814459.56742  21590888.375    21590884.944
  21708495.107   -20409217.54743 -15882924.55342  21708497.237    21708494.944
  20698824.469   -28135267.01144 -21873152.22142  20698826.407    20698823.016
 04  5 20  1 18 30.0000000  0  5G16G11G25G 1G20
  23306460.966   -12294469.79243  -9391279.24842  23306463.211    23306462.362
  23030236.710   -13962948.22543 -10613363.71942  23030238.919    23030236.937
  21602969.553   -19489407.55444 -14764980.15642  21602971.760    21602968.340
  21698769.618   -20460325.22943 -15922748.68342  21698771.761    21698769.443
  20690044.294   -28181407.14044 -21909105.56042  20690046.223    20690042.808
 04  5 20  1 19  0.0000000  0  5G16G11G25G 1G20
  23289406.230   -12384092.96443  -9461115.37842  23289408.423    23289407.549
  23045515.103   -13882660.24243 -10550801.75942  23045517.344    23045515.286
  21615110.651   -19425605.59644 -14715264.36442  21615112.862    21615109.478
  21689076.994   -20511260.02343 -15962438.09942  21689079.160    21689076.850
  20681344.629   -28227124.09344 -21944729.15142  20681346.588    20681343.124
 04  5 20  1 19 30.0000000  0  5G16G11G25G 1G20
  23272387.814   -12473524.90143  -9530802.49342  23272390.051    23272389.136
  23060835.495   -13802151.68843 -10488067.91942  23060837.684    23060835.642
  21627308.888   -19361503.51344 -14665314.70942  21627311.084    21627307.700
  21679417.098   -20562022.83643 -16001993.49842  21679419.277    21679417.010
  20672725.675   -28272416.83544 -21980022.18842  20672727.644    20672724.187
 04  5 20  1 20  0.0000000  0  5G16G11G25G 1G20
  23255406.131   -12562763.70643  -9600339.11442  23255408.430    23255407.476
  23076197.025   -13721426.79443 -10425165.51742  23076199.204    23076197.178
  21639563.580   -19297104.85444 -14615133.95542  21639565.780    21639562.358
  21669789.753   -20612614.66843 -16041415.66942  21669791.929    21669789.659
  20664187.682   -28317284.27844 -22014983.82442  20664189.646    20664186.199
 04  5 20  1 20 30.0000000  0  5G16G11G25G 1G20
  23238463.019   -12651799.81243  -9669717.80142  23238465.323    23238464.364
  23091600.375   -13640481.79343 -10362091.61342  23091602.578    23091600.651
  21651875.577   -19232405.05144 -14564718.54442  21651877.755    21651874.322
  21660196.185   -20663029.08043 -16080699.59342  21660198.335    21660196.111
  20655732.162   -28361718.32944 -22049607.75342  20655734.119    20655730.668
 04  5 20  1 21  0.0000000  0  5G16G11G25G 1G20
  23221557.326   -12740639.43843  -9738943.37842  23221559.596    23221558.614
  23107043.339   -13559328.72843 -10298855.56042  23107045.560    23107043.687
  21664242.742   -19167415.26943 -14514077.17242  21664244.924    21664241.480
  21650634.651   -20713275.16543 -16119852.35242  21650636.792    21650634.559
  20647357.723   -28405726.22944 -22083899.61542  20647359.713    20647356.236
 04  5 20  1 21 30.0000000  0  5G16G11G25G 1G20
  23204691.451   -12829269.97943  -9808006.03342  23204693.683    23204692.692
  23122527.191   -13477961.02843 -10235452.26242  23122529.344    23122527.544
  21676666.429   -19102128.37343 -14463204.28742  21676668.587    21676665.167
  21641106.914   -20763343.64443 -16158866.72142  21641109.052    21641106.803
  20639066.574   -28449296.55044 -22117850.50742  20639068.541    20639065.063
 04  5 20  1 22  0.0000000  0  5G16G11G25G 1G20
  23187864.676   -12917694.79543  -9876908.38142  23187866.923    23187865.874
  23138050.114   -13396387.87543 -10171888.89442  23138052.233    23138050.460
  21689145.085   -19036552.63643 -14412106.33042  21689147.241    21689143.803
  21631611.810   -20813240.71043 -16197747.52942  21631613.941    21631611.683
  20630857.884   -28492433.48544 -22151463.69642  20630859.855    20630856.383
 04  5 20  1 22 30.0000000  0  5G16G11G25G 1G20
  23171077.561   -13005911.17343  -9945648.30742  23171079.873    23171078.745
  23153611.447   -13314612.87743 -10108168.24042  23153613.578    23153611.837
  21701678.171   -18970690.74343 -14360785.39042  21701680.325    21701676.911
  21622149.236   -20862966.76243 -16236495.07442  21622151.408    21622149.090
  20622731.902   -28535135.86044 -22184738.26642  20622733.853    20622730.389
 04  5 20  1 23  0.0000000  0  5G16G11G25G 1G20
  23154331.130   -13093914.01943 -10014221.84942  23154333.418    23154332.227
  23169211.171   -13232636.47143 -10044290.63942  23169213.237    23169211.521
  21714265.770   -18904542.47243 -14309241.30142  21714267.927    21714264.512
  21612719.607   -20912519.71743 -16275107.73742  21612721.789    21612719.454
  20614689.371   -28577399.51444 -22217670.97742  20614691.323    20614687.871
 04  5 20  1 23 30.0000000  0  5G16G11G25G 1G20
  23137626.568   -13181696.63743 -10082623.79242  23137628.857    23137627.635
  23184849.254   -13150458.10343  -9980255.64142  23184851.388    23184849.654
  21726908.111   -18838106.60943 -14257473.11842  21726910.277    21726906.860
  21603323.569   -20961895.99143 -16313582.72942  21603325.750    21603323.434
  20606731.397   -28619218.94444 -22250257.53842  20606733.335    20606729.882
 04  5 20  1 24  0.0000000  0  5G16G11G25G 1G20
  23120963.564   -13269260.74243 -10150855.45942  23120965.874    23120964.623
  23200524.277   -13068085.56543  -9916069.35542  23200526.462    23200524.732
  21739603.885   -18771390.07544 -14205486.22142  21739606.050    21739602.619
  21593960.270   -21011100.21743 -16351923.65642  21593962.443    21593960.141
  20598857.391   -28660597.06044 -22282500.21642  20598859.351    20598855.898
 04  5 20  1 24 30.0000000  0  5G16G11G25G 1G20
  23104342.951   -13356602.33543 -10218913.73942  23104345.235    23104344.032
  23216235.948   -12985520.39143  -9851732.97842  23216238.149    23216236.457
  21752352.828   -18704394.14943 -14153281.62942  21752354.974    21752351.536
  21584629.937   -21060131.35943 -16390129.71042  21584632.115    21584629.812
  20591067.934   -28701530.94044 -22314396.73942  20591069.889    20591066.432
 04  5 20  1 25  0.0000000  0  5G16G11G25G 1G20
  23087765.553   -13443716.63343 -10286794.91042  23087767.848    23087766.690
  23231984.031   -12902764.24743  -9787247.78642  23231986.238    23231984.538
  21765154.840   -18637119.17643 -14100859.59142  21765157.001    21765153.564
  21575332.872   -21108987.78043 -16428199.62142  21575335.054    21575332.694
  20583363.652   -28742017.14644 -22345944.42442  20583365.617    20583362.145
 04  5 20  1 25 30.0000000  0  5G16G11G25G 1G20
  23071231.560   -13530603.13143 -10354498.57742  23071233.813    23071232.625
  23247767.485   -12819822.39443  -9722617.89142  23247769.649    23247767.940
  21778009.108   -18569569.56943 -14048223.55542  21778011.290    21778007.850
  21566068.563   -21157671.98944 -16466135.33742  21566070.756    21566068.346
  20575744.426   -28782056.32944 -22377143.77942  20575746.393    20575742.914
 04  5 20  1 26  0.0000000  0  5G16G11G25G 1G20
  23054741.718   -13617257.39343 -10422021.29242  23054744.008    23054742.777
  23263585.964   -12736696.31343  -9657844.42542  23263588.123    23263586.449
  21790915.468   -18501746.32943 -13995374.30142  21790917.636    21790914.216
  21556837.328   -21206182.41743 -16503935.64042  21556839.503    21556837.090
  20568210.909   -28821645.17544 -22407992.22242  20568212.878    20568209.421
 04  5 20  1 26 30.0000000  0  5G16G11G25G 1G20
  23038297.157   -13703673.79943 -10489358.65242  23038299.457    23038298.171
  23279439.448   -12653386.13143  -9592927.52842  23279441.565    23279439.929
  21803873.990   -18433648.82743 -13942311.33542  21803876.175    21803872.757
  21547639.672   -21254516.25943 -16541598.34142  21547641.837    21547639.441
  20560763.997   -28860779.00544 -22438486.10642  20560765.939    20560762.488
 04  5 20  1 27  0.0000000  0  5G16G11G25G 1G20
  23021897.713   -13789852.97843 -10556511.16842  23021900.034    23021898.771
  23295326.652   -12569898.86443  -9527872.62942  23295328.761    23295327.088
  21816883.548   -18365283.13443 -13889039.38742  21816885.732    21816882.331
  21538474.874   -21302677.50643 -16579126.55142  21538477.013    21538474.621
  20553403.252   -28899460.04144 -22468627.16442  20553405.182    20553401.725
 04  5 20  1 27 30.0000000  0  5G16G11G25G 1G20
  23005544.726   -13875788.07843 -10623473.49642  23005547.057    23005545.816
  23311247.760   -12486233.15143  -9462678.68342  23311249.870    23311248.257
  21829944.532   -18296647.18943 -13835556.85442  21829946.715    21829943.332
  21529343.712   -21350662.08443 -16616517.09742  21529345.829    21529343.402
  20546129.796   -28937682.42544 -22498410.83242  20546131.715    20546128.217
 04  5 20  1 28  0.0000000  0  5G16G11G25G 1G20
  22989237.722   -13961481.56043 -10690247.53842  22989240.055    22989238.813
  23327201.223   -12402397.52243  -9397352.34342  23327203.357    23327201.768
  21843055.524   -18227748.71543 -13781869.75342  21843057.691    21843054.296
  21520245.180   -21398475.19643 -16653774.03342  21520247.278    21520244.822
  20538942.856   -28975449.96044 -22527840.07042  20538944.778    20538941.276
 04  5 20  1 28 30.0000000  0  5G16G11G25G 1G20
  22972977.699   -14046928.28843 -10756829.32342  22972980.043    22972978.710
  23343186.867   -12318392.90943  -9331894.32242  23343189.060    23343187.436
  21856216.447   -18158587.72943 -13727978.09342  21856218.598    21856215.224
  21511179.620   -21446114.90943 -16690895.85342  21511181.750    21511179.237
  20531843.188   -29012758.80744 -22556911.89042  20531845.131    20531841.639
 04  5 20  1 29  0.0000000  0  5G16G11G25G 1G20
  22956765.637   -14132122.96943 -10823214.70642  22956767.961    22956766.650
  23359204.597   -12234219.68643  -9266304.92142  23359206.783    23359205.211
  21869427.319   -18089164.30843 -13673881.94142  21869429.486    21869426.091
  21502147.482   -21493578.88243 -16727880.73242  21502149.617    21502147.145
  20524831.579   -29049604.97044 -22585623.17842  20524833.540    20524830.029
 04  5 20  1 29 30.0000000  0  5G16G11G25G 1G20
  22940601.651   -14217065.09943 -10889403.29542  22940603.964    22940602.603
  23375253.292   -12149883.74643  -9200588.73442  23375255.489    23375253.965
  21882687.273   -18019482.78543 -13619584.66942  21882689.470    21882686.046
  21493148.315   -21540869.53043 -16764730.55542  21493150.461    21493147.994
  20517907.908   -29085989.07244 -22613974.41642  20517909.885    20517906.344
 04  5 20  1 30  0.0000000  0  5G16G11G25G 1G20
  22924486.519   -14301750.34743 -10955391.70542  22924488.834    22924487.458
  23391332.731   -12065386.30443  -9134746.69442  23391334.914    23391333.419
  21895996.211   -17949543.76843 -13565086.75642  21895998.419    21895995.011
  21484182.399   -21587985.37743 -16801444.17142  21484184.578    21484182.128
  20511072.815   -29121907.61744 -22641962.88842  20511074.806    20511071.258
 04  5 20  1 30 30.0000000  0  5G16G11G25G 1G20
  22908421.507   -14386172.48443 -11021175.10642  22908423.789    22908422.328
  23407442.959   -11980726.85643  -9068778.40642  23407445.177    23407443.700
  21909354.321   -17879346.79043 -13510387.83442  21909356.510    21909353.084
  21475250.391   -21634923.27144 -16838019.12442  21475252.565    21475250.121
  20504327.241   -29157355.89544 -22669584.91642  20504329.214    20504325.660
 04  5 20  1 31  0.0000000  0  5G16G11G25G 1G20
  22892406.376   -14470332.18743 -11086754.00942  22892408.639    22892407.133
  23423582.700   -11895912.44343  -9002689.38942  23423584.907    23423583.443
  21922760.397   -17808897.51943 -13455492.32542  21922762.570    21922759.171
  21466351.563   -21681686.81044 -16874458.21842  21466353.754    21466351.294
  20497670.705   -29192336.10344 -22696842.21642  20497672.684    20497669.132
 04  5 20  1 31 30.0000000  0  5G16G11G25G 1G20
  22876440.745   -14554231.67643 -11152130.14142  22876442.991    22876441.469
  23439750.350   -11810951.23843  -8936485.98342  23439752.576    23439751.149
  21936213.118   -17738203.15543 -13400405.82842  21936215.312    21936211.860
  21457484.949   -21728281.24444 -16910765.54442  21457487.099    21457484.647
  20491102.602   -29226851.64744 -22723737.44142  20491104.583    20491101.043
 04  5 20  1 32  0.0000000  0  6G16G11G13G25G 1G20
  22860522.382   -14637882.70543 -11217312.68042  22860524.647    22860523.089
  23455942.671   -11725860.70743  -8870181.80442  23455944.831    23455943.518
  24647553.724    -7066362.81453  -5496713.68952  24647557.098    24647557.191
  21949709.318   -17667280.34743 -13345141.32442  21949711.498    21949708.061
  21448647.705   -21774721.22044 -16946952.52042  21448649.860    21448647.397
  20484620.486   -29260915.48644 -22750280.69142  20484622.429    20484618.905
 04  5 20  1 32 30.0000000  0  6G16G11G13G25G 1G20
  22844661.698   -14721230.70743 -11282259.08242  22844663.960    22844662.381
  23472168.866   -11640591.93943  -8803738.75642  23472171.052    23472169.819
  24631759.614    -7149361.16543  -5561387.56542  24631762.940    24631763.050
  21963258.410   -17596079.51043 -13289660.17942  21963260.616    21963257.168
  21439849.733   -21820954.80144 -16982978.66542  21439851.895    21439849.436
  20478234.478   -29294474.16544 -22776430.30542  20478236.435    20478232.912
 04  5 20  1 33  0.0000000  0  6G16G11G13G25G 1G20
  22828852.370   -14804308.76243 -11346995.14142  22828854.646    22828853.073
  23488421.481   -11555184.35143  -8737187.53842  23488423.642    23488422.501
  24615972.731    -7232321.39943  -5626031.73342  24615975.992    24615975.988
  21976853.006   -17524639.49443 -13233992.65442  21976855.211    21976851.783
  21431084.137   -21867018.23944 -17018872.22842  21431086.281    21431083.838
  20471937.993   -29327562.48544 -22802213.40842  20471939.940    20471936.399
 04  5 20  1 33 30.0000000  0  6G16G11G13G25G 1G20
  22813096.024   -14887108.37443 -11411514.23242  22813098.306    22813096.738
  23504701.078   -11469635.17843  -8670526.00942  23504703.166    23504702.115
  24600194.185    -7315237.68943  -5690641.68742  24600197.370    24600197.437
  21990493.855   -17452956.51143 -13178135.80842  21990496.051    21990492.637
  21422351.961   -21912906.00644 -17054628.91342  21422354.094    21422351.674
  20465732.393   -29360172.99644 -22827624.19742  20465734.381    20465730.839
 04  5 20  1 34  0.0000000  0  6G16G11G13G25G 1G20
  22797393.456   -14969625.70743 -11475813.37042  22797395.698    22797394.116
  23521007.174   -11383946.49543  -8603755.73242  23521009.281    23521008.302
  24584424.245    -7398108.95143  -5755216.53942  24584427.378    24584427.419
  22004180.687   -17381031.78643 -13122090.59142  22004182.887    22004179.487
  21413653.409   -21958616.97244 -17090247.82642  21413655.549    21413653.120
  20459618.277   -29392302.98644 -22852660.55242  20459620.245    20459616.691
 04  5 20  1 34 30.0000000  0  6G16G11G13G25G 1G20
  22781745.541   -15051855.63343 -11539888.55342  22781747.779    22781746.185
  23537339.620   -11298119.20743  -8536877.47942  23537341.737    23537340.811
  24568663.224    -7480933.12043  -5819754.69742  24568666.389    24568666.353
  22017913.482   -17308865.50243 -13065857.14342  22017915.689    22017912.306
  21404988.920   -22004149.09644 -17125727.38442  21404991.060    21404988.604
  20453596.285   -29423948.90144 -22877319.70842  20453598.221    20453594.664
 04  5 20  1 35  0.0000000  0  6G16G11G13G25G 1G20
  22766151.295   -15133803.72443 -11603744.12842  22766153.535    22766151.917
  23553696.432   -11212164.27343  -8469899.75642  23553698.549    23553697.628
  24552909.751    -7563718.21943  -5884262.43942  24552912.868    24552912.741
  22031690.246   -17236468.06943 -13009443.58242  22031692.478    22031689.133
  21396356.932   -22049510.56644 -17161073.96742  21396359.041    21396356.565
  20447665.109   -29455117.33644 -22901606.79942  20447667.070    20447663.500
 04  5 20  1 35 30.0000000  0  6G16G11G13G25G 1G20
  22750612.575   -15215460.07143 -11667372.37442  22750614.829    22750613.150
  23570078.263   -11126077.91443  -8402819.63442  23570080.387    23570079.472
  24537164.940    -7646457.48043  -5948734.45342  24537167.998    24537167.759
  22045511.965   -17163834.42443 -12952845.96342  22045514.193    22045510.865
  21387758.685   -22094694.51244 -17196282.21942  21387760.831    21387758.322
  20441826.407   -29485800.00044 -22925515.37242  20441828.346    20441824.797
 04  5 20  1 36  0.0000000  0  6G16G11G13G25G 1G20
  22735129.744   -15296822.53543 -11730771.62242  22735132.041    22735130.309
  23586484.331   -11039864.04843  -8335640.15242  23586486.485    23586485.506
  24521428.681    -7729151.81643  -6013171.48642  24521431.821    24521431.466
  22059378.060   -17090967.81143 -12896066.80442  22059380.267    22059376.923
  21379194.085   -22139701.71244 -17231352.74942  21379196.210    21379193.704
  20436080.283   -29515995.92944 -22949044.66842  20436082.249    20436078.715
 04  5 20  1 36 30.0000000  0  6G16G11G13G25G 1G20
  22719703.144   -15377889.29043 -11793940.44142  22719705.451    22719703.740
  23602913.995   -10953526.39243  -8268364.20442  23602916.141    23602915.072
  24505700.772    -7811802.03343  -6077574.11842  24505703.776    24505703.481
  22073287.840   -17017871.30643 -12839108.50842  22073290.096    22073286.723
  21370662.964   -22184532.96244 -17266286.17242  21370665.070    21370662.584
  20430426.894   -29545704.70044 -22972194.36242  20430428.832    20430425.319
 04  5 20  1 37  0.0000000  0  6G16G11G13G25G 1G20
  22704334.207   -15458653.26643 -11856873.33142  22704336.485    22704334.780
  23619367.411   -10867063.98743  -8200991.06942  23619369.497    23619368.505
  24489982.065    -7894403.87443  -6141939.05042  24489985.110    24489984.642
  22087241.751   -16944542.96143 -12781969.56442  22087243.984    22087240.654
  21362166.073   -22229184.20644 -17301079.33442  21362168.199    21362165.729
  20424867.273   -29574920.70444 -22994960.08142  20424869.208    20424865.685
 04  5 20  1 37 30.0000000  0  6G16G11G13G25G 1G20
  22689022.301   -15539117.63343 -11919572.76642  22689024.598    22689022.878
  23635842.886   -10780485.63343  -8133527.58642  23635844.957    23635843.973
  24474271.427    -7976963.24143  -6206270.89442  24474274.438    24474273.973
  22101238.213   -16870991.14743 -12724656.48042  22101240.456    22101237.129
  21353702.323   -22273661.37444 -17335736.85042  21353704.422    21353701.997
  20419400.588   -29603648.28844 -23017345.21542  20419402.520    20419399.012
 04  5 20  1 38  0.0000000  0  6G16G11G13G25G 1G20
  22673768.728   -15619275.33043 -11982033.24242  22673771.063    22673769.251
  23652340.593   -10693790.38643  -8065973.02342  23652342.656    23652341.707
  24458569.573    -8059476.24943  -6270566.61242  24458572.551    24458572.029
  22115277.662   -16797213.59843 -12667167.50342  22115279.863    22115276.559
  21345272.477   -22317960.35544 -17370255.52042  21345274.586    21345272.133
  20414027.917   -29631881.86944 -23039345.40742  20414029.847    20414026.324
 04  5 20  1 38 30.0000000  0  6G16G11G13G25G 1G20
  22658574.227   -15699122.89843 -12044252.05442  22658576.501    22658574.659
  23668860.092   -10606980.26843  -7998328.93342  23668862.205    23668861.289
  24442876.788    -8141941.64943  -6334825.25642  24442879.832    24442879.141
  22129359.766   -16723211.69143 -12609503.70242  22129361.967    22129358.673
  21336876.767   -22362080.17444 -17404634.58242  21336878.839    21336876.391
  20408749.681   -29659619.22844 -23060958.93442  20408751.632    20408748.096
 04  5 20  1 39  0.0000000  0  6G16G11G13G25G 1G20
  22643438.291   -15778662.36343 -12106230.78342  22643440.562    22643438.717
  23685399.951   -10520063.51743  -7930601.78442  23685401.993    23685401.146
  24427192.105    -8224364.73643  -6399050.91242  24427195.164    24427194.314
  22143483.155   -16648992.77843 -12551670.80242  22143485.349    22143482.065
  21328514.168   -22406025.95944 -17438878.03742  21328516.228    21328513.759
  20403565.206   -29686863.92544 -23082188.56642  20403567.148    20403563.600
 04  5 20  1 39 30.0000000  0  6G16G11G13G25G 1G20
  22628362.604   -15857885.31143 -12167962.87642  22628364.869    22628362.960
  23701960.620   -10433037.06443  -7862789.13042  23701962.685    23701961.872
  24411516.561    -8306739.68543  -6463239.06842  24411519.423    24411518.667
  22157648.515   -16574553.41943 -12493666.13042  22157650.707    22157647.435
  21320185.738   -22449791.88144 -17472981.33842  21320187.829    21320185.376
  20398475.846   -29713608.72144 -23103028.66042  20398477.789    20398474.234
 04  5 20  1 40  0.0000000  0  6G16G11G13G25G 1G20
  22613347.004   -15936792.69843 -12229449.08042  22613349.273    22613347.310
  23718540.876   -10345907.92943  -7794896.47242  23718542.928    23718542.182
  24395849.473    -8389070.41443  -6527392.76042  24395852.310    24395851.459
  22171854.682   -16499899.58643 -12435494.33042  22171856.867    22171853.630
  21311890.804   -22493381.92144 -17506947.58642  21311892.884    21311890.446
  20393481.110   -29739856.22344 -23123481.25342  20393483.066    20393479.511
 04  5 20  1 40 30.0000000  0  6G16G11G13G25G 1G20
  22598392.563   -16015378.83543 -12290684.95542  22598394.788    22598392.819
  23735140.653   -10258676.33343  -7726923.97442  23735142.595    23735141.877
  24380191.387    -8471353.80943  -6591509.56142  24380194.129    24380193.324
  22186101.910   -16425030.24443 -12377154.60742  22186104.087    22186100.777
  21303629.957   -22536793.07344 -17540774.44242  21303632.032    21303629.558
  20388581.792   -29765602.26744 -23143543.10242  20388583.748    20388580.211
 04  5 20  1 41  0.0000000  0  6G16G11G13G25G 1G20
  22583499.581   -16093641.76343 -12351668.97642  22583501.820    22583499.819
  23751759.197   -10171346.14243  -7658874.65742  23751761.150    23751760.427
  24364542.162    -8553590.34943  -6655589.85742  24364545.110    24364544.106
  22200389.475   -16349948.59343 -12318649.43842  22200391.663    22200388.350
  21295402.997   -22580026.11944 -17574462.51842  21295405.077    21295402.563
  20383778.059   -29790846.04444 -23163213.57342  20383780.011    20383776.470
 04  5 20  1 41 30.0000000  0  6G16G11G13G25G 1G20
  22568669.049   -16171576.47143 -12412397.24042  22568671.301    22568669.324
  23768396.354   -10083917.96543  -7590748.97742  23768398.321    23768397.642
  24348902.133    -8635778.38943  -6719632.37042  24348905.053    24348904.264
  22214717.406   -16274654.74243 -12259978.92142  22214719.595    22214716.312
  21287210.336   -22623078.75144 -17608010.00742  21287212.442    21287209.875
  20379070.599   -29815583.81444 -23182489.75142  20379072.549    20379069.026
 04  5 20  1 42  0.0000000  0  6G16G11G13G25G 1G20
  22553900.406   -16249185.87943 -12472872.02142  22553902.671    22553900.680
  23785050.477    -9996400.52343  -7522553.74942  23785052.450    23785051.811
  24333270.368    -8717923.36443  -6783641.29742  24333273.216    24333272.438
  22229084.337   -16199156.08943 -12201148.81842  22229086.525    22229083.231
  21279050.959   -22665956.57044 -17641421.28342  21279053.055    21279050.476
  20374458.594   -29839820.02344 -23201375.10242  20374460.555    20374457.023
 04  5 20  1 42 30.0000000  0  6G16G11G13G25G 1G20
  22539195.819   -16326458.43243 -12533084.31742  22539198.105    22539196.149
  23801722.698    -9908788.23943  -7454284.63842  23801724.632    23801724.078
  24317648.480    -8800016.48043  -6847609.83442  24317651.389    24317650.519
  22243491.441   -16123446.34843 -12142154.23242  22243493.625    22243490.326
  21270926.499   -22708651.01444 -17674689.66742  21270928.582    21270925.996
  20369943.908   -29863544.93744 -23219862.04142  20369945.849    20369942.309
 04  5 20  1 43  0.0000000  0  6G16G11G13G25G 1G20
  22524554.516   -16403398.75243 -12593037.73242  22524556.794    22524554.818
  23818411.089    -9821090.81743  -7385949.16442  23818413.034    23818412.405
  24302035.007    -8882065.08843  -6911543.68942  24302038.001    24302037.102
  22257936.855   -16047535.13943 -12083002.65942  22257939.055    22257935.766
  21262835.555   -22751169.17944 -17707820.69042  21262837.652    21262835.063
  20365525.416   -29886764.21644 -23237954.98242  20365527.353    20365523.824
 04  5 20  1 43 30.0000000  0  7G16G11G13G 4G25G 1G20
  22509976.411   -16480006.83543 -12652732.26142  22509978.686    22509976.713
  23835114.557    -9733314.41243  -7317552.16742  23835116.474    23835115.892
  24286429.463    -8964071.91443  -6975444.99242  24286432.588    24286431.708
  24779888.861    -6520925.76253  -4805774.11352  24779891.682    24779890.616
  22272419.760   -15971427.18643 -12023697.77942  22272421.928    22272418.646
  21254777.617   -22793513.84344 -17740816.51442  21254779.727    21254777.116
  20361202.817   -29909479.56844 -23255655.24842  20361204.763    20361201.246
 04  5 20  1 44  0.0000000  0  7G16G11G13G 4G25G 1G20
  22495464.908   -16556264.87243 -12712154.02642  22495467.183    22495465.223
  23851835.308    -9645447.06643  -7249084.30142  23851837.210    23851836.683
  24270834.832    -9046021.79943  -7039301.92542  24270837.842    24270837.111
  24769200.513    -6577093.68543  -4849541.31942  24769203.263    24769202.285
  22286942.514   -15895109.58243 -11964229.53342  22286944.721    22286941.408
  21246755.545   -22835669.98744 -17773665.44142  21246757.664    21246755.049
  20356979.273   -29931674.49944 -23272949.99242  20356981.200    20356977.683
 04  5 20  1 44 30.0000000  0  7G16G11G13G 4G25G 1G20
  22481018.230   -16632182.35543 -12771310.42742  22481020.490    22481018.551
  23868570.510    -9557503.78043  -7180557.27342  23868572.460    23868571.895
  24255248.717    -9127926.79543  -7103123.88342  24255251.766    24255251.009
  24758598.237    -6632809.25543  -4892956.05442  24758600.989    24758599.856
  22301502.471   -15818596.61543 -11904609.05242  22301504.673    22301501.332
  21238767.077   -22877649.61444 -17806376.81942  21238769.183    21238766.583
  20352852.699   -29953359.80144 -23289847.62742  20352854.634    20352851.103
 04  5 20  1 45  0.0000000  0  7G16G11G13G 4G25G 1G20
  22466637.398   -16707753.88143 -12830197.25342  22466639.647    22466637.664
  23885320.037    -9469485.09543  -7111971.49542  23885322.001    23885321.544
  24239671.679    -9209784.33143  -7166908.86942  24239674.750    24239674.011
  24748082.851    -6688068.23643  -4936015.00142  24748085.587    24748084.413
  22316099.685   -15741887.67543 -11844835.86642  22316101.895    22316098.575
  21230812.718   -22919450.09744 -17838948.60642  21230814.819    21230812.190
  20348823.823   -29974531.69044 -23306345.19942  20348825.746    20348822.214
 04  5 20  1 45 30.0000000  0  7G16G11G13G 4G25G 1G20
  22452323.289   -16782974.84643 -12888810.91342  22452325.551    22452323.529
  23902083.815    -9381391.82343  -7043327.60542  23902085.730    23902085.256
  24224104.073    -9291592.45143  -7230655.34842  24224107.160    24224106.363
  24737654.909    -6742867.28943  -4978715.55942  24737657.597    24737656.430
  22330734.159   -15664983.25243 -11784910.36042  22330736.348    22330733.036
  21222892.818   -22961069.44644 -17871379.24742  21222894.908    21222892.274
  20344893.217   -29995187.13344 -23322440.34942  20344895.142    20344891.614
 04  5 20  1 46  0.0000000  0  7G16G11G13G 4G25G 1G20
  22438076.530   -16857841.85343 -12947148.76642  22438078.799    22438076.704
  23918861.292    -9293226.41943  -6974627.51342  23918863.198    23918862.716
  24208545.993    -9373350.41743  -7294362.75142  24208549.075    24208548.257
  24727314.952    -6797204.32643  -5021056.10642  24727317.618    24727316.307
  22345405.531   -15587884.81043 -11724833.67542  22345407.715    22345404.432
  21215007.514   -23002506.83244 -17903668.09842  21215009.643    21215006.996
  20341061.279   -30015324.04344 -23338131.44742  20341063.208    20341059.695
 04  5 20  1 46 30.0000000  0  7G16G11G13G 4G25G 1G20
  22423897.382   -16932353.53143 -13005209.73442  22423899.647    22423897.501
  23935651.675    -9204993.19943  -6905874.57542  23935653.579    23935653.138
  24192997.250    -9455059.33543  -7358031.93442  24193000.238    24192999.437
  24717062.897    -6851079.03843  -5063036.40142  24717065.532    24717064.327
  22360113.196   -15510595.68243 -11664608.40142  22360115.351    22360112.097
  21207156.569   -23043763.62644 -17935816.22442  21207158.723    21207156.091
  20337328.034   -30034942.47444 -23353418.54042  20337329.935    20337326.435
 04  5 20  1 47  0.0000000  0  7G16G11G13G 4G25G 1G20
  22409786.076   -17006508.56043 -13062992.79942  22409788.369    22409786.190
  23952454.098    -9116696.51843  -6837072.17242  23952456.056    23952455.660
  24177457.604    -9536720.63943  -7421664.00242  24177460.594    24177459.666
  24706898.846    -6904491.36943  -5104656.38642  24706901.506    24706900.335
  22374856.458   -15433119.36443 -11604237.26042  22374858.630    22374855.357
  21199339.757   -23084841.08444 -17967824.61242  21199341.895    21199339.309
  20333693.377   -30054042.73544 -23368301.86642  20333695.284    20333691.778
 04  5 20  1 47 30.0000000  0  7G16G11G13G 4G25G 1G20
  22395743.841   -17080300.59543 -13120493.01542  22395746.133    22395743.921
  23969268.729    -9028335.72543  -6768219.81742  23969270.714    23969270.366
  24161927.631    -9618330.54943  -7485256.02442  24161930.666    24161929.757
  24696823.745    -6957436.42843  -5145912.25142  24696826.473    24696825.209
  22389635.625   -15355454.43443 -11543719.15142  22389637.797    22389634.508
  21191557.780   -23125735.46244 -17999690.33742  21191559.896    21191557.348
  20330158.202   -30072620.28644 -23382777.88742  20330160.089    20330156.571
 04  5 20  1 48  0.0000000  0  7G16G11G13G 4G25G 1G20
  22381770.049   -17153733.06243 -13177713.04642  22381772.328    22381770.065
  23986093.977    -8939919.43543  -6699324.23242  23986095.924    23986095.683
  24146406.318    -9699895.19243  -7548812.76242  24146409.353    24146408.434
  24686836.699    -7009918.64343  -5186807.46742  24686839.327    24686838.080
  22404449.075   -15277609.14843 -11483060.50042  22404451.304    22404447.980
  21183809.507   -23166452.87044 -18031418.16642  21183811.594    21183809.070
  20326721.582   -30090679.73844 -23396850.19642  20326723.493    20326719.967
 04  5 20  1 48 30.0000000  0  7G16G11G13G 4G25G 1G20
  22367867.124   -17226792.98243 -13234642.77742  22367869.426    22367867.150
  24002931.133    -8851440.49343  -6630379.81542  24002933.063    24002932.964
  24130895.541    -9781404.24443  -7612326.18242  24130898.642    24130897.657
  24676939.859    -7061926.54243  -5227333.06842  24676942.415    24676941.295
  22419298.473   -15199575.03043 -11422254.71742  22419300.688    22419297.416
  21176096.865   -23206982.87044 -18062999.96042  21176098.971    21176096.460
  20323385.799   -30108209.49244 -23410509.75342  20323387.685    20323384.176
 04  5 20  1 49  0.0000000  0  7G16G11G13G 4G25G 1G20
  22354034.113   -17299485.71943 -13291286.39642  22354036.391    22354034.074
  24019778.061    -8762910.25443  -6561395.44242  24019780.004    24019779.948
  24115393.906    -9862865.72143  -7675802.52142  24115396.991    24115396.020
  24667132.052    -7113466.63243  -5267494.15042  24667134.612    24667133.397
  22434181.871   -15121362.30443 -11361309.75542  22434184.039    22434180.814
  21168418.368   -23247333.46244 -18094441.95742  21168420.466    21168417.961
  20320149.414   -30125216.72144 -23423762.15142  20320151.330    20320147.783
 04  5 20  1 49 30.0000000  0  7G16G11G13G 4G25G 1G20
  22340272.121   -17371805.21043 -13347639.17442  22340274.382    22340272.080
  24036634.973    -8674327.89443  -6492370.46242  24036636.938    24036636.835
  24099901.951    -9944276.12343  -7739239.04342  24099905.019    24099904.035
  24657414.256    -7164534.13743  -5307286.97442  24657416.864    24657415.604
  22449099.463   -15042969.83943 -11300224.73342  22449101.668    22449098.431
  21160774.704   -23287501.15544 -18125741.43842  21160776.802    21160774.284
  20317013.379   -30141696.75944 -23436603.75242  20317015.278    20317011.721
 04  5 20  1 50  0.0000000  0  7G16G11G13G 4G25G 1G20
  22326581.229   -17443750.96043 -13403700.73142  22326583.484    22326581.204
  24053500.817    -8585698.37843  -6423308.73842  24053502.729    24053502.706
  24084419.362   -10025637.25043  -7802637.18042  24084422.397    24084421.406
  24647786.243    -7215129.72543  -5346712.08142  24647788.807    24647787.575
  22464050.542   -14964401.45743 -11239002.63142  22464052.730    22464049.499
  21153165.541   -23327487.67844 -18156899.74842  21153167.632    21153165.080
  20313977.493   -30157650.51644 -23449035.26342  20313979.394    20313975.824
 04  5 20  1 50 30.0000000  0  7G16G11G13G 4G25G 1G20
  22312962.989   -17515315.06243 -13459464.89542  22312965.219    22312962.949
  24070376.042    -8497019.61843  -6354208.63942  24070377.877    24070377.918
  24068947.106   -10106943.80343  -7865992.80542  24068950.141    24068949.117
  24638249.104    -7265246.77743  -5385764.29042  24638251.738    24638250.542
  22479035.646   -14885654.10143 -11177641.07742  22479037.834    22479034.659
  21145591.826   -23367287.72644 -18187912.75442  21145593.913    21145591.343
  20311042.916   -30173071.83544 -23461051.89142  20311044.803    20311041.267
 04  5 20  1 51  0.0000000  0  7G16G11G13G 4G25G 1G20
  22299416.717   -17586501.08343 -13514934.44242  22299418.911    22299416.617
  24087258.820    -8408300.71643  -6285077.27142  24087260.684    24087260.756
  24053484.030   -10188201.86343  -7929310.63342  24053487.076    24053486.115
  24628802.161    -7314890.32143  -5424447.52642  24628804.809    24628803.682
  22494053.217   -14806736.25043 -11116146.66442  22494055.420    22494052.252
  21138052.399   -23406907.56844 -18218785.33942  21138054.519    21138051.926
  20308208.689   -30187965.80244 -23472657.59242  20308210.601    20308207.041
 04  5 20  1 51 30.0000000  0  7G16G11G13G 4G25G 1G20
  22285942.999   -17657305.64443 -13570106.75942  22285945.195    22285942.875
  24104148.846    -8319543.96143  -6215916.39642  24104150.738    24104150.817
  24038030.398   -10269410.47343  -7992589.93042  24038033.430    24038032.511
  24619445.820    -7364058.18243  -5462760.10442  24619448.470    24619447.400
  22509102.987   -14727649.17643 -11054520.39142  22509105.168    22509102.027
  21130547.450   -23446346.25844 -18249516.77142  21130549.576    21130546.962
  20305475.194   -30202330.48644 -23483850.86742  20305477.104    20305473.555
 04  5 20  1 52  0.0000000  0  7G16G11G13G 4G25G 1G20
  22272543.548   -17727719.60743 -13624974.71142  22272545.783    22272543.477
  24121046.788    -8230745.55543  -6146723.07742  24121048.652    24121048.758
  24022587.290   -10350563.78143  -8055826.13942  24022590.354    24022589.340
  24610181.411    -7412742.73743  -5500696.07742  24610183.975    24610182.919
  22524185.792   -14648388.37243 -10992758.74842  22524187.982    22524184.896
  21123078.232   -23485597.36944 -18280102.04142  21123080.310    21123077.701
  20302843.820   -30216158.51944 -23494625.96942  20302845.726    20302842.192
 04  5 20  1 52 30.0000000  0  7G16G11G13G 4G25G 1G20
  22259218.142   -17797745.03443 -13679539.91042  22259220.364    22259218.015
  24137951.196    -8141913.29543  -6077503.39342  24137953.092    24137953.158
  24007153.954   -10431665.63443  -8119022.26542  24007157.061    24007156.007
  24601008.325    -7460947.47743  -5538258.17542  24601010.841    24601009.780
  22539300.454   -14568960.40543 -10930866.84242  22539302.634    22539299.531
  21115643.867   -23524665.29544 -18310544.56442  21115645.922    21115643.299
  20300313.881   -30229453.55044 -23504985.74742  20300315.782    20300312.251
 04  5 20  1 53  0.0000000  0  7G16G11G13G 4G25G 1G20
  22245967.054   -17867379.66443 -13733800.59742  22245969.285    22245966.914
  24154861.517    -8053049.94143  -6008259.46342  24154863.413    24154863.600
  23991730.413   -10512716.32543  -8182178.52442  23991733.558    23991732.488
  24591926.767    -7508670.91143  -5575445.21742  24591929.274    24591928.250
  22554446.534   -14489367.39743 -10868846.34342  22554448.702    22554445.585
  21108244.356   -23563549.97644 -18340844.30442  21108246.434    21108243.782
  20297885.492   -30242214.82544 -23514929.61042  20297887.396    20297883.873
 04  5 20  1 53 30.0000000  0  7G16G11G13G 4G25G 1G20
  22232791.282   -17936618.63343 -13787752.97942  22232793.518    22232791.101
  24171777.583    -7964156.25343  -5938991.89542  24171779.503    24171779.724
  23976317.114   -10593713.45943  -8245293.06942  23976320.208    23976318.975
  24582937.440    -7555909.92143  -5612254.79642  24582940.055    24582938.938
  22569624.023   -14409609.33143 -10806697.21942  22569626.202    22569623.057
  21100880.152   -23602249.08644 -18370999.44342  21100882.248    21100879.580
  20295559.306   -30254438.98844 -23524454.94442  20295561.226    20295557.720
 04  5 20  1 54  0.0000000  0  7G16G11G13G 4G25G 1G20
  22219690.985   -18005461.04843 -13841396.35542  22219693.176    22219690.705
  24188698.503    -7875236.92543  -5869704.35942  24188700.461    24188700.711
  23960913.614   -10674658.79443  -8308367.25042  23960916.704    23960915.426
  24574040.290    -7602664.75843  -5648687.10442  24574042.886    24574041.716
  22584832.078   -14329690.39443 -10744422.74942  22584834.276    22584831.143
  21093550.984   -23640764.12044 -18401011.14242  21093553.070    21093550.398
  20293335.200   -30266126.91244 -23533562.42842  20293337.111    20293333.573
 04  5 20  1 54 30.0000000  0  7G16G11G13G 4G25G 1G20
  22206666.442   -18073905.34543 -13894729.50742  22206668.622    22206666.071
  24205623.561    -7786295.87443  -5800399.90742  24205625.546    24205625.895
  23945519.867   -10755553.03343  -8371401.59642  23945522.886    23945521.604
  24565235.203    -7648935.34643  -5684742.08042  24565237.873    24565236.725
  22600070.268   -14249613.11443 -10682024.88742  22600072.481    22600069.409
  21086256.653   -23679095.96144 -18430880.09842  21086258.738    21086256.068
  20291213.109   -30277278.53344 -23542252.01142  20291215.027    20291211.506
 04  5 20  1 55  0.0000000  0  7G16G11G13G 4G25G 1G20
  22193719.118   -18141943.65943 -13947746.31342  22193721.361    22193718.737
  24222553.217    -7697330.68043  -5731076.62842  24222555.187    24222555.566
  23930136.875   -10836390.49643  -8434391.72742  23930140.011    23930138.639
  24556523.580    -7694715.18643  -5720414.65242  24556526.209    24556525.114
  22615339.244   -14169374.21043 -10619501.10042  22615341.446    22615338.356
  21078998.229   -23717239.18944 -18460602.08042  21079000.318    21078997.618
  20289194.292   -30287887.55044 -23550518.79042  20289196.203    20289192.689
 04  5 20  1 55 30.0000000  0  7G16G11G13G 4G25G 1G20
  22180848.708   -18209577.87843 -14000448.24442  22180850.926    22180848.322
  24239486.178    -7608348.54443  -5661740.18242  24239488.025    24239488.544
  23914763.822   -10917175.80943  -8497341.20342  23914766.960    23914765.650
  24547904.869    -7740007.29143  -5755707.19442  24547907.345    24547906.445
  22630637.728   -14088980.20143 -10556856.44142  22630639.942    22630636.855
  21071774.920   -23755197.86444 -18490180.25542  21071777.028    21071774.290
  20287278.066   -30297957.49044 -23558365.50442  20287279.970    20287276.461
 04  5 20  1 56  0.0000000  0  7G16G11G13G 4G25G 1G20
  22168055.806   -18276804.58743 -14052832.62742  22168058.066    22168055.466
  24256422.020    -7519351.30943  -5592391.96942  24256423.806    24256424.422
  23899400.961   -10997907.68443  -8560249.06242  23899404.109    23899402.735
  24539379.257    -7784809.75143  -5790618.16642  24539381.732    24539380.745
  22645965.554   -14008432.12143 -10494091.72842  22645967.773    22645964.685
  21064586.902   -23792971.07144 -18519613.91242  21064589.015    21064586.253
  20285464.798   -30307486.33444 -23565790.58642  20285466.692    20285463.181
 04  5 20  1 56 30.0000000  0  7G16G11G13G 4G25G 1G20
  22155341.714   -18343617.48943 -14104894.56142  22155343.935    22155341.361
  24273360.863    -7430338.10243  -5523031.29742  24273362.674    24273363.314
  23884049.060   -11078582.55943  -8623112.52742  23884052.149    23884050.671
  24530947.677    -7829117.64543  -5825143.78542  24530950.255    24530949.202
  22661323.080   -13927728.09543 -10431205.49442  22661325.308    22661322.190
  21057434.925   -23830554.92544 -18548900.02142  21057437.016    21057434.254
  20283755.279   -30316469.79244 -23572790.69542  20283757.204    20283753.700
 04  5 20  1 57  0.0000000  0  7G16G11G13G 4G25G 1G20
  22142705.851   -18410019.25143 -14156636.13642  22142708.045    22142705.458
  24290301.208    -7341317.21343  -5453664.64242  24290302.998    24290303.771
  23868707.041   -11159205.43643  -8685935.46842  23868710.022    23868708.535
  24522609.452    -7872935.09443  -5859287.24242  24522612.034    24522610.964
  22676708.944   -13846875.13443 -10368203.20842  22676711.162    22676708.033
  21050317.999   -23867954.41544 -18578042.46842  21050320.082    21050317.370
  20282148.804   -30324911.99644 -23579369.04742  20282150.723    20282147.230
 04  5 20  1 57 30.0000000  0  7G16G11G13G 4G25G 1G20
  22130149.283   -18476004.40443 -14208053.08342  22130151.450    22130148.824
  24307243.027    -7252288.41043  -5384291.81242  24307244.838    24307245.626
  23853375.514   -11239773.16643  -8748715.42942  23853378.527    23853376.874
  24514365.310    -7916258.35843  -5893045.62542  24514367.893    24514366.848
  22692123.242   -13765872.56343 -10305084.35342  22692125.461    22692122.334
  21043236.755   -23905166.58744 -18607038.95542  21043238.808    21043236.092
  20280645.996   -30332809.32844 -23585522.82442  20280647.927    20280644.422
 04  5 20  1 58  0.0000000  0  7G16G11G13G 4G25G 1G20
  22117672.276   -18541571.20343 -14259144.03142  22117674.456    22117671.821
  24324185.686    -7163255.16243  -5314915.53242  24324187.413    24324188.278
  23838054.338   -11320286.28043  -8811452.82742  23838057.305    23838055.701
  24506215.322    -7959086.44843  -5926418.16242  24506217.897    24506216.903
  22707565.469   -13684723.19543 -10241851.11142  22707567.683    22707564.557
  21036191.104   -23942191.79044 -18635889.74842  21036193.159    21036190.423
  20279246.949   -30340161.37444 -23591251.69942  20279248.869    20279245.394
 04  5 20  1 58 30.0000000  0  7G16G11G13G 4G25G 1G20
  22105275.597   -18606715.81643 -14309906.00942  22105277.813    22105275.167
  24341128.896    -7074219.18943  -5245537.11242  24341130.645    24341131.408
  23822743.817   -11400743.16743  -8874146.42742  23822746.743    23822745.140
  24498160.102    -8001417.30943  -5959403.24442  24498162.614    24498161.563
  22723035.521   -13603427.67143 -10178503.97042  22723037.740    22723034.592
  21029181.272   -23979028.48044 -18664593.65142  21029183.345    21029180.623
  20277952.043   -30346966.29444 -23596554.24442  20277953.953    20277950.468
 04  5 20  1 59  0.0000000  0  7G16G11G13G 4G25G 1G20
  22092959.574   -18671436.80543 -14360337.89642  22092961.756    22092959.125
  24358071.908    -6985184.35243  -5176159.59242  24358073.654    24358074.373
  23807443.916   -11481144.58543  -8936796.82142  23807446.791    23807445.163
  24490199.440    -8043250.93343  -5992000.88342  24490202.094    24490200.926
  22738532.893   -13521988.54643 -10115044.94342  22738535.086    22738531.973
  21022207.203   -24015677.46644 -18693151.29442  21022209.275    21022206.538
  20276761.233   -30353224.00644 -23601430.39242  20276763.134    20276759.678
 04  5 20  1 59 30.0000000  0  7G16G11G13G 4G25G 1G20
  22080724.770   -18735730.71743 -14410436.98642  22080726.977    22080724.342
  24375014.422    -6896152.15543  -5106784.12942  24375016.153    24375016.964
  23792154.652   -11561489.46343  -8999403.11042  23792157.623    23792155.946
  24482333.878    -8084584.96943  -6024209.22542  24482336.527    24482335.312
  22754057.316   -13440407.11843 -10051475.02642  22754059.509    22754056.421
  21015269.084   -24052137.51944 -18721561.71242  21015271.167    21015268.408
  20275674.901   -30358932.75144 -23605878.77042  20275676.798    20275673.345
 04  5 20  2  0  0.0000000  0  7G16G11G13G 4G25G 1G20
  22068571.911   -18799594.09243 -14460200.59742  22068574.108    22068571.500
  24391956.105    -6807124.33743  -5037412.08742  24391957.850    24391958.707
  23776876.555   -11641776.43443  -9061964.30442  23776879.473    23776877.751
  24474563.666    -8125417.46743  -6056026.74142  24474566.346    24474565.174
  22769608.703   -13358684.14843  -9987794.81342  22769610.887    22769607.799
  21008367.181   -24088407.31244 -18749823.87742  21008369.240    21008366.472
  20274693.379   -30364090.69644 -23609897.95442  20274695.289    20274691.816
 04  5 20  2  0 30.0000000  0  7G16G11G13G 4G25G 1G20
  22056500.800   -18863027.84243 -14509629.42942  22056503.020    22056500.424
  24408895.740    -6718107.25743  -4968048.41042  24408897.463    24408898.455
  23761608.779   -11722008.93843  -9124483.04542  23761611.684    23761609.972
  24466888.518    -8165750.85543  -6087455.34742  24466891.219    24466889.873
  22785186.005   -13276824.86043  -9924008.38042  22785188.182    22785185.128
  21001500.871   -24124490.00644 -18777940.25642  21001502.946    21001500.139
  20273816.155   -30368700.59144 -23613490.08842  20273818.059    20273814.577
 04  5 20  2  1  0.0000000  0  7G16G11G13G 4G25G 1G20
  22044512.230   -18926027.82043 -14558720.25742  22044514.439    22044511.902
  24425833.167    -6629101.72243  -4898693.74642  24425834.906    24425835.856
  23746351.713   -11802184.88143  -9186957.69342  23746354.691    23746352.905
  24459308.891    -8205582.18743  -6118492.73842  24459311.548    24459310.300
  22800789.233   -13194829.45843  -9860115.88642  22800791.386    22800788.327
  20994670.543   -24160383.58244 -18805909.26942  20994672.627    20994669.810
  20273043.733   -30372759.84344 -23616653.14742  20273045.629    20273042.128
 04  5 20  2  1 30.0000000  0  7G16G11G13G 4G25G 1G20
  22032606.891   -18988590.47443 -14607470.31642  22032609.093    22032606.551
  24442767.928    -6540109.96143  -4829349.79442  24442769.648    24442770.839
  23731105.698   -11882302.97443  -9249387.27042  23731108.620    23731106.899
  24451825.127    -8244909.63643  -6149137.48742  24451827.808    24451826.480
  22816418.161   -13112698.88443  -9796118.06142  22816420.362    22816417.284
  20987876.426   -24196086.69944 -18833729.87042  20987878.517    20987875.740
  20272376.360   -30376266.94044 -23619385.95642  20272378.259    20272374.759
 04  5 20  2  2  0.0000000  0  7G16G11G13G 4G25G 1G20
  22020785.622   -19050711.48343 -14655876.24142  22020787.789    22020785.235
  24459700.017    -6451132.44243  -4760016.94842  24459701.796    24459702.982
  23715871.055   -11962361.02343  -9311770.04542  23715874.055    23715872.298
  24444437.849    -8283730.18443  -6179387.24842  24444440.589    24444439.170
  22832072.868   -13030432.82043  -9732014.66342  22832075.058    22832072.034
  20981118.985   -24231597.14844 -18861400.34042  20981121.071    20981118.340
  20271814.608   -30379218.91244 -23621686.19342  20271816.522    20271813.022
 04  5 20  2  2 30.0000000  0  7G16G11G13G 4G25G 1G20
  22009048.235   -19112391.59843 -14703938.61342  22009050.401    22009047.840
  24476628.258    -6362174.98343  -4690699.76142  24476630.059    24476631.422
  23700647.291   -12042361.84543  -9374108.24742  23700650.304    23700648.577
  24437146.568    -8322046.07943  -6209243.76442  24437149.319    24437147.905
  22847752.443   -12948036.21443  -9667809.54842  22847754.613    22847751.621
  20974397.656   -24266917.77744 -18888922.90342  20974399.740    20974397.026
  20271358.042   -30381618.13844 -23623555.72342  20271359.967    20271356.454
 04  5 20  2  3  0.0000000  0  7G16G11G13G 4G25G 1G20
  21997395.181   -19173628.77243 -14751655.84242  21997397.314    21997394.706
  24493552.138    -6273240.80843  -4621400.71542  24493553.865    24493555.336
  23685434.335   -12122305.84243  -9436402.15942  23685437.338    23685435.611
  24429951.445    -8359856.84543  -6238706.66842  24429954.147    24429952.702
  22863456.425   -12865511.44143  -9603504.54942  22863458.574    22863455.559
  20967712.446   -24302048.74844 -18916297.67842  20967714.538    20967711.817
  20271006.646   -30383464.65744 -23624994.57642  20271008.573    20271005.093
 04  5 20  2  3 30.0000000  0  7G16G11G13G 4G25G 1G20
  21985827.058   -19234419.62443 -14799025.28642  21985829.167    21985826.528
  24510471.217    -6184331.72743  -4552121.21742  24510472.911    24510474.573
  23670232.473   -12202191.73943  -9498650.79942  23670235.425    23670233.763
  24422852.813    -8397160.32443  -6267774.28242  24422855.494    24422854.154
  22879184.616   -12782859.41143  -9539100.40242  22879186.768    22879183.728
  20961063.582   -24336988.72744 -18943523.63042  20961065.673    20961062.952
  20270760.785   -30384756.68944 -23626001.36042  20270762.703    20270759.215
 04  5 20  2  4  0.0000000  0  7G16G11G13G 4G25G 1G20
  21974345.043   -19294757.91343 -14846042.08242  21974347.164    21974344.468
  24527385.716    -6095446.65743  -4482860.43742  24527387.384    24527389.209
  23655042.460   -12282015.16143  -9560850.76142  23655045.399    23655043.716
  24415851.524    -8433952.23343  -6296443.28642  24415854.214    24415852.839
  22894937.387   -12700078.10943  -9474595.51842  22894939.544    22894936.476
  20954451.895   -24371733.51444 -18970597.48542  20954453.957    20954451.241
  20270621.340   -30385489.53544 -23626572.41342  20270623.250    20270619.777
 04  5 20  2  4 30.0000000  0  7G16G11G13G 4G25G 1G20
  21962948.819   -19354645.27543 -14892707.51442  21962950.955    21962948.233
  24544294.377    -6006592.29543  -4413623.59542  24544296.046    24544298.003
  23639863.670   -12361779.80343  -9623004.93142  23639866.636    23639864.942
  24408947.147    -8470234.86843  -6324715.44142  24408949.798    24408948.517
  22910713.673   -12617173.34843  -9409994.44042  22910715.838    22910712.758
  20947876.630   -24406286.79944 -18997522.11542  20947878.689    20947875.956
  20270587.639   -30385666.60444 -23626710.39342  20270589.561    20270586.097
 04  5 20  2  5  0.0000000  0  7G16G11G13G 4G25G 1G20
  21951638.892   -19414079.04743 -14939019.49242  21951641.037    21951638.295
  24561196.749    -5917770.61343  -4344412.21642  24561198.503    24561200.505
  23624696.105   -12441485.37443  -9685113.05442  23624699.098    23624697.332
  24402139.743    -8506007.74943  -6352590.38742  24402142.504    24402141.129
  22926513.214   -12534146.46843  -9345298.20142  22926515.366    22926512.287
  20941337.931   -24440648.01244 -19024297.07642  20941339.988    20941337.227
  20270659.848   -30385287.06644 -23626414.65342  20270661.785    20270658.345
 04  5 20  2  5 30.0000000  0  7G16G11G13G 4G25G 1G20
  21940415.629   -19473057.80443 -14984976.92142  21940417.734    21940414.937
  24578092.178    -5828985.59743  -4275229.41642  24578093.864    24578096.067
  23609539.655   -12521132.37643  -9747175.55642  23609542.666    23609540.913
  24395429.429    -8541270.39443  -6380067.74842  24395432.167    24395430.908
  22942335.477   -12451000.09143  -9280508.83842  22942337.657    22942334.552
  20934835.688   -24474817.62344 -19050922.73642  20934837.744    20934834.975
  20270837.992   -30384351.03644 -23625685.28742  20270839.907    20270836.472
 04  5 20  2  6  0.0000000  0  7G16G11G13G 4G25G 1G20
  21929279.932   -19531576.00343 -15030575.47142  21929282.071    21929279.224
  24594980.676    -5740236.72443  -4206074.77042  24594982.495    24594984.688
  23594395.014   -12600717.44543  -9809189.81442  23594398.024    23594396.291
  24388816.942    -8576019.26943  -6407144.75542  24388819.611    24388818.476
  22958180.665   -12367733.10243  -9215625.50642  22958182.887    22958179.757
  20928370.496   -24508792.39444 -19077396.57142  20928372.551    20928369.788
  20271122.697   -30382855.06144 -23624519.60042  20271124.594    20271121.165
 04  5 20  2  6 30.0000000  0  7G16G11G13G 4G25G 1G20
  21918232.397   -19589631.04343 -15075813.11042  21918234.564    21918231.662
  24611861.976    -5651526.27543  -4136950.07942  24611863.833    24611866.091
  23579262.281   -12680239.91543  -9871155.29242  23579265.280    23579263.562
  24382302.482    -8610253.03943  -6433820.40142  24382305.083    24382304.030
  22974048.577   -12284346.78743  -9150649.18242  22974050.784    22974047.633
  20921942.543   -24542571.55744 -19103717.98642  20921944.595    20921941.816
  20271514.166   -30380797.96244 -23622916.67642  20271516.077    20271512.617
 04  5 20  2  7  0.0000000  0  7G16G11G13G 4G25G 1G20
  21907272.515   -19647225.24943 -15120691.65742  21907274.710    21907271.780
  24628734.674    -5562861.21443  -4067860.77942  24628736.347    24628738.774
  23564140.741   -12759703.99343  -9933075.27942  23564143.748    23564141.953
  24375885.363    -8643975.28643  -6460097.44442  24375888.016    24375886.926
  22989937.993   -12200847.58143  -9085584.88742  22989940.211    22989937.017
  20915551.061   -24576158.94644 -19129889.96942  20915553.131    20915550.348
  20272011.613   -30378183.82544 -23620879.69642  20272013.527    20272010.072
 04  5 20  2  7 30.0000000  0  7G16G11G13G 4G25G 1G20
  21896401.547   -19704352.43743 -15165206.29842  21896403.725    21896400.805
  24645598.855    -5474240.77943  -3998806.21342  24645600.538    24645603.053
  23549031.118   -12839105.56443  -9994946.54242  23549034.087    23549032.225
  24369566.396    -8677181.61643  -6485972.49342  24369569.100    24369567.918
  23005849.192   -12117233.75043  -9020431.27442  23005851.401    23005848.222
  20909196.802   -24609550.77944 -19155909.56942  20909198.858    20909196.071
  20272615.875   -30375008.37244 -23618405.32642  20272617.810    20272614.350
 04  5 20  2  8  0.0000000  0  7G16G11G13G 4G25G 1G20
  21885619.683   -19761011.35343 -15209356.05742  21885621.840    21885618.923
  24662453.764    -5385668.74143  -3929789.41442  24662455.543    24662458.119
  23533933.161   -12918445.27543 -10056769.59442  23533936.154    23533934.270
  24363345.499    -8709872.58243  -6511445.95642  24363348.222    24363347.027
  23021781.744   -12033507.56743  -8955190.11542  23021783.968    23021780.847
  20902879.640   -24642747.65444 -19181777.25442  20902881.710    20902878.894
  20273326.839   -30371272.32344 -23615494.13142  20273328.764    20273325.284
 04  5 20  2  8 30.0000000  0  7G16G11G13G 4G25G 1G20
  21874927.932   -19817196.80143 -15253136.88042  21874930.103    21874927.144
  24679299.630    -5297144.32143  -3860809.68342  24679301.396    24679303.999
  23518847.680   -12997719.74843 -10118541.82542  23518850.707    23518848.710
  24357223.483    -8742043.78543  -6536514.40542  24357226.179    24357225.027
  23037735.869   -11949667.95643  -8889860.58342  23037738.087    23037735.118
  20896600.264   -24675746.05944 -19207490.28642  20896602.322    20896599.490
  20274145.211   -30366971.77044 -23612143.05842  20274147.148    20274143.683
 04  5 20  2  9  0.0000000  0  7G16G11G13G 4G25G 1G20
  21864325.996   -19872910.30543 -15296549.95442  21864328.124    21864325.140
  24696135.189    -5208674.13143  -3791872.22742  24696136.984    24696139.524
  23503773.898   -13076932.56643 -10180266.00142  23503776.958    23503774.948
  24351199.755    -8773698.35843  -6561180.28242  24351202.489    24351201.319
  23053710.584   -11865720.40343  -8824446.94242  23053712.784    23053709.865
  20890357.987   -24708549.42544 -19233051.34042  20890360.040    20890357.206
  20275070.378   -30362110.10244 -23608354.75642  20275072.309    20275068.850
 04  5 20  2  9 30.0000000  0  7G16G11G13G 4G25G 1G20
  21853814.312   -19928149.45243 -15339593.40942  21853816.428    21853813.433
  24712959.916    -5120260.75843  -3722979.03042  24712961.818    24712964.393
  23488711.983   -13156083.11843 -10241941.65842  23488715.057    23488713.000
  24345274.373    -8804835.81643  -6585443.20542  24345277.135    24345276.044
  23069705.458   -11781666.76643  -8758950.61642  23069707.646    23069704.760
  20884152.885   -24741157.32244 -19258460.07842  20884154.958    20884152.134
  20276102.386   -30356686.93144 -23604128.91842  20276104.329    20276100.838
 04  5 20  2 10  0.0000000  0  7G16G11G13G 4G25G 1G20
  21843393.602   -19982910.39443 -15382264.22942  21843395.721    21843392.704
  24729773.757    -5031904.83343  -3654130.59342  24729775.629    24729778.303
  23473662.372   -13235169.30743 -10303567.18242  23473665.397    23473663.343
  24339447.965    -8835453.53043  -6609301.14842  24339450.715    24339449.595
  23085720.567   -11697506.87343  -8693371.50542  23085722.737    23085719.848
  20877985.414   -24773567.48744 -19283714.74042  20877987.496    20877984.666
  20277241.688   -30350699.92344 -23599463.72942  20277243.619    20277240.142
 04  5 20  2 10 30.0000000  0  6G16G13G 4G25G 1G20
  21833068.187   -20037170.74043 -15424544.96842  21833070.273    21833067.247
  23458628.805   -13314170.91443 -10365126.80242  23458631.862    23458629.745
  24333724.408    -8865531.00043  -6632738.11542  24333727.179    24333725.981
  23101759.398   -11613222.15343  -8627695.12042  23101761.563    23101758.713
  20871859.443   -24805759.67144 -19308799.54742  20871861.522    20871858.699
  20278492.117   -30344128.88044 -23594343.44742  20278494.050    20278490.567
 04  5 20  2 11  0.0000000  0  6G16G13G 4G25G 1G20
  21822829.767   -20090973.62143 -15466469.24342  21822831.883    21822828.824
  23443602.818   -13393132.78343 -10426655.45042  23443605.830    23443603.676
  24328095.299    -8895112.52043  -6655788.64542  24328098.004    24328096.693
  23117813.026   -11528859.84643  -8561958.28742  23117815.187    23117812.386
  20865766.425   -24837778.66644 -19333749.40342  20865768.516    20865765.666
  20279845.214   -30337018.41544 -23588802.83942  20279847.149    20279843.655
 04  5 20  2 11 30.0000000  0  6G16G13G 4G25G 1G20
  21812684.870   -20144285.04543 -15508010.55742  21812686.997    21812683.939
  23428590.497   -13472022.77143 -10488128.10142  23428593.494    23428591.314
  24322566.676    -8924165.84343  -6678427.58942  24322569.334    24322568.025
  23133887.209   -11444389.50643  -8496137.26642  23133889.348    23133886.580
  20859712.511   -24869592.26144 -19358539.20742  20859714.581    20859711.721
  20281307.091   -30329336.20544 -23582816.71142  20281309.016    20281305.564
 04  5 20  2 12  0.0000000  0  6G16G13G 4G25G 1G20
  21802632.389   -20197110.93743 -15549173.53842  21802634.517    21802631.461
  23413590.391   -13550848.60243 -10549550.76942  23413593.363    23413591.158
  24317137.128    -8952698.29943  -6700660.67242  24317139.800    24317138.398
  23149980.081   -11359820.95143  -8430239.71642  23149982.244    23149979.456
  20853696.217   -24901208.00444 -19383174.84342  20853698.274    20853695.435
  20282876.256   -30321090.30144 -23576391.34742  20282878.175    20282874.710
 04  5 20  2 12 30.0000000  0  6G16G13G 4G25G 1G20
  21792672.398   -20249451.09743 -15589958.03742  21792674.510    21792671.434
  23398602.256   -13629611.51443 -10610924.39242  23398605.230    23398603.041
  24311806.481    -8980711.33543  -6722489.02242  24311809.101    24311807.656
  23166090.934   -11275157.92043  -8364268.54642  23166093.116    23166090.276
  20847717.295   -24932627.47444 -19407657.53942  20847719.334    20847716.488
  20284552.420   -30312282.08644 -23569527.81842  20284554.324    20284550.863
 04  5 20  2 13  0.0000000  0  6G16G13G 4G25G 1G20
  21782806.325   -20301297.37743 -15630357.70142  21782808.451    21782805.393
  23383627.277   -13708305.22143 -10672244.09742  23383630.263    23383628.024
  24306575.871    -9008198.25943  -6743907.41542  24306578.562    24306577.062
  23182220.651   -11190396.06743  -8298220.37642  23182222.808    23182219.945
  20841776.983   -24963844.03944 -19431982.12742  20841779.012    20841776.144
  20286336.823   -30302905.07344 -23562221.07042  20286338.726    20286335.276
 04  5 20  2 13 30.0000000  0  6G16G13G 4G25G 1G20
  21773034.032   -20352650.89643 -15670373.38242  21773036.144    21773033.099
  23368664.960   -13786932.53143 -10733512.05642  23368667.915    23368665.700
  24301444.780    -9035161.91643  -6764918.06942  24301447.524    24301446.100
  23198368.249   -11105540.35843  -8232099.06742  23198370.375    23198367.485
  20835874.702   -24994860.57544 -19456150.84542  20835876.741    20835873.880
  20288228.822   -30292962.51544 -23554473.63742  20288230.729    20288227.292
 04  5 20  2 14  0.0000000  0  6G16G13G 4G25G 1G20
  21763355.816   -20403510.18943 -15710003.95042  21763357.917    21763354.865
  23353715.253   -13865493.98143 -10794728.70342  23353718.192    23353715.872
  24296413.331    -9061602.34443  -6785521.00742  24296416.166    24296414.697
  23214533.236   -11020592.87843  -8165906.26042  23214535.405    23214532.508
  20830010.438   -25025677.40244 -19480163.94842  20830012.481    20830009.617
  20290228.406   -30282454.63044 -23546285.69242  20290230.306    20290226.881
 04  5 20  2 14 30.0000000  0  6G16G13G 4G25G 1G20
  21753772.546   -20453870.52343 -15749245.72542  21753774.630    21753771.572
  23338778.634   -13943986.38843 -10855891.53942  23338781.582    23338779.170
  24291482.182    -9087516.04843  -6805713.54342  24291484.966    24291483.515
  23230715.852   -10935552.83143  -8099641.31842  23230717.987    23230715.173
  20824184.757   -25056291.39944 -19504018.99642  20824186.805    20824183.945
  20292336.117   -30271378.52044 -23537654.97142  20292338.020    20292334.606
 04  5 20  2 15  0.0000000  0  6G16G13G 4G25G 1G20
  21744284.134   -20503732.50243 -15788099.17142  21744286.173    21744283.091
  23323854.762   -14022411.70743 -10917002.10442  23323857.720    23323855.234
  24286650.748    -9112905.59043  -6825497.62442  24286653.543    24286652.063
  23246915.331   -10850424.14743  -8033307.31942  23246917.471    23246914.665
  20818397.279   -25086704.71944 -19527717.67642  20818399.327    20818396.476
  20294551.534   -30259736.41044 -23528583.21242  20294553.440    20294550.046
 04  5 20  2 15 30.0000000  0  6G16G13G 4G25G 1G20
  21734891.374   -20553091.51343 -15826560.69442  21734893.433    21734890.332
  23308944.193   -14100767.14943 -10978058.22842  23308947.118    23308944.573
  24281919.601    -9137767.71443  -6844870.72242  24281922.391    24281920.998
  23263131.813   -10765206.10043  -7966903.67942  23263133.985    23263131.157
  20812648.524   -25116914.45044 -19551257.71042  20812650.579    20812647.750
  20296875.143   -30247525.89444 -23519068.53642  20296877.048    20296873.645
 04  5 20  2 16  0.0000000  0  6G16G13G 4G25G 1G20
  21725594.164   -20601948.50943 -15864631.03942  21725596.222    21725593.129
  23294046.407   -14179055.28943 -11039061.91342  23294049.337    23294046.754
  24277288.425    -9162104.89143  -6863834.79142  24277291.161    24277289.775
  23279364.484   -10679903.11743  -7900433.85142  23279366.622    23279363.812
  20806938.096   -25146922.94444 -19574640.94142  20806940.124    20806937.309
  20299306.459   -30234749.38044 -23509112.83142  20299308.364    20299304.952
 04  5 20  2 16 30.0000000  0  6G16G13G 4G25G 1G20
  21716393.675   -20650297.20643 -15902305.30642  21716395.737    21716392.649
  23279162.311   -14257271.31243 -11100009.38242  23279165.205    23279162.716
  24272758.051    -9185912.54443  -6882386.23442  24272760.711    24272759.334
  23295613.772   -10594512.69343  -7833895.88742  23295615.934    23295613.072
  20801266.848   -25176725.44344 -19597863.65142  20801268.897    20801266.081
  20301846.282   -30221402.60944 -23498712.76942  20301848.181    20301844.782
 04  5 20  2 17  0.0000000  0  6G16G13G 4G25G 1G20
  21707289.266   -20698140.86743 -15939586.04042  21707291.348    21707288.268
  23264290.997   -14335419.92143 -11160904.31442  23264293.894    23264291.446
  24268327.516    -9209195.40443  -6900528.73842  24268330.098    24268328.748
  23311878.389   -10509041.54243  -7767295.02342  23311880.565    23311877.697
  20795633.887   -25206326.61144 -19620929.47842  20795635.957    20795633.151
  20304493.725   -30207490.43744 -23487872.13542  20304495.617    20304492.196
 04  5 20  2 17 30.0000000  0  6G16G13G 4G25G 1G20
  21698282.309   -20745472.51843 -15976467.79542  21698284.420    21698281.325
  23249433.446   -14413496.17443 -11221742.87442  23249436.358    23249433.877
  24263997.729    -9231948.35343  -6918258.33542  24264000.357    24263999.015
  23328159.052   -10423486.08943  -7700628.45642  23328161.230    23328158.356
  20790040.278   -25235721.19544 -19643834.33042  20790042.346    20790039.535
  20307249.615   -30193008.31844 -23476587.38842  20307251.501    20307248.075
 04  5 20  2 18  0.0000000  0  6G16G13G 4G25G 1G20
  21689372.583   -20792293.20343 -16012951.39742  21689374.722    21689371.605
  23234589.241   -14491502.35343 -11282526.82542  23234592.181    23234589.706
  24259768.343    -9254173.69643  -6935576.80542  24259771.041    24259769.722
  23344454.846   -10337851.11243  -7633899.93442  23344457.082    23344454.134
  20784485.511   -25264911.69744 -19666580.15742  20784487.563    20784484.764
  20310113.472   -30177958.77144 -23464860.48542  20310115.349    20310111.922
 04  5 20  2 18 30.0000000  0  6G16G13G 4G25G 1G20
  21680560.605   -20838600.25843 -16049034.77742  21680562.736    21680559.619
  23219758.752   -14569436.71743 -11343254.81242  23219761.721    23219759.224
  24255639.611    -9275870.49043  -6952483.39142  24255642.294    24255640.902
  23360765.629   -10252137.38243  -7567110.05042  23360767.887    23360764.960
  20778969.843   -25293896.65644 -19689165.82242  20778971.908    20778969.089
  20313085.441   -30162340.92044 -23452690.74442  20313087.331    20313083.920
 04  5 20  2 19  0.0000000  0  6G16G13G 4G25G 1G20
  21671846.967   -20884390.55543 -16084715.47542  21671849.113    21671845.960
  23204942.167   -14647298.21943 -11403926.02142  23204945.115    23204942.572
  24251611.752    -9297037.23443  -6968976.96142  24251614.429    24251613.050
  23377091.346   -10166345.24243  -7500259.05242  23377093.625    23377090.657
  20773493.609   -25322674.43744 -19711590.05342  20773495.681    20773492.842
  20316165.811   -30146153.43744 -23440077.13342  20316167.713    20316164.298
 04  5 20  2 19 30.0000000  0  6G16G13G 4G25G 1G20
  21663231.315   -20929665.82443 -16119994.85442  21663233.473    21663230.290
  23190138.810   -14725090.02943 -11464542.93642  23190141.763    23190139.207
  24247684.093    -9317677.13543  -6985059.99542  24247686.804    24247685.489
  23393430.981   -10080479.90843  -7433351.03442  23393433.296    23393430.305
  20768056.195   -25351248.15644 -19733855.27342  20768058.266    20768055.443
  20319353.873   -30129399.97144 -23427022.50042  20319355.785    20319352.403
 04  5 20  2 20  0.0000000  0  6G16G13G 4G25G 1G20
  21654714.969   -20974419.35043 -16154867.67542  21654717.113    21654713.935
  23175349.751   -14802806.63143 -11525101.24942  23175352.699    23175350.167
  24243857.714    -9337785.05343  -7000728.50042  24243860.373    24243859.085
  23409785.127    -9994538.23643  -7366383.53942  23409787.430    23409784.494
  20762658.653   -25379612.50144 -19755957.34442  20762660.703    20762657.880
  20322650.607   -30112075.56744 -23413522.98242  20322652.522    20322649.145
 04  5 20  2 20 30.0000000  0  6G16G13G 4G25G 1G20
  21646298.039   -21018650.34343 -16189333.33842  21646300.198    21646297.007
  23160574.952   -14880448.42843 -11585601.26242  23160577.925    23160575.278
  24240132.402    -9357361.96443  -7015983.22642  24240135.024    24240133.752
  23426153.358    -9908522.64743  -7299358.43742  23426155.642    23426152.712
  20757300.826   -25407767.94444 -19777896.63742  20757302.886    20757300.063
  20326055.768   -30094181.40544 -23399579.49842  20326057.668    20326054.298
 04  5 20  2 21  0.0000000  0  6G16G13G 4G25G 1G20
  21637980.162   -21062360.99143 -16223393.54042  21637982.308    21637979.074
  23145813.648   -14958019.17743 -11646045.91342  23145816.686    23145814.044
  24236507.221    -9376411.65643  -7030827.12842  24236509.932    24236508.749
  23442534.588    -9822438.95343  -7232280.26742  23442536.855    23442533.928
  20751982.053   -25435718.13444 -19799675.99242  20751984.139    20751981.295
  20329568.548   -30075721.64244 -23385195.28542  20329570.446    20329567.084
 04  5 20  2 21 30.0000000  0  6G16G13G 4G25G 1G20
  21629763.187   -21105541.39543 -16257040.56142  21629765.319    21629762.058
  23131067.544   -15035510.44843 -11706428.65142  23131070.481    23131067.888
  24232984.245    -9394925.68243  -7045253.62442  24232986.865    24232985.618
  23458930.138    -9736280.08743  -7165143.50842  23458932.394    23458929.426
  20746704.023   -25463454.34244 -19821288.60842  20746706.099    20746703.247
  20333190.534   -30056688.02044 -23370363.90542  20333192.447    20333189.074
 04  5 20  2 22  0.0000000  0  6G16G13G 4G25G 1G20
  21621645.607   -21148199.51143 -16290280.60842  21621647.741    21621644.447
  23116334.777   -15112931.28443 -11766756.49842  23116337.671    23116335.120
  24229561.098    -9412913.78843  -7059270.30742  24229563.807    24229562.589
  23475337.804    -9650057.53643  -7097957.14042  23475340.051    23475337.029
  20741464.904   -25490986.03144 -19842741.86242  20741466.982    20741464.103
  20336919.818   -30037090.58044 -23355093.18942  20336921.729    20336918.354
 04  5 20  2 22 30.0000000  0  6G16G13G 4G25G 1G20
  21613628.549   -21190329.40743 -16323109.05642  21613630.685    21613627.322
  23101616.327   -15190277.03043 -11827025.84442  23101619.231    23101616.603
  24226238.964    -9430371.27743  -7072873.53742  24226241.658    24226240.507
  23491758.058    -9563768.69943  -7030719.12142  23491760.323    23491757.325
  20736265.663   -25518308.23744 -19864031.87942  20736267.747    20736264.859
  20340757.226   -30016924.88044 -23339379.67342  20340759.138    20340755.773
 04  5 20  2 23  0.0000000  0  6G16G13G 4G25G 1G20
  21605712.733   -21231927.17243 -16355522.85842  21605714.869    21605711.477
  23086912.675   -15267544.97743 -11887234.55442  23086915.570    23086912.954
  24223018.378    -9447296.03043  -7086061.64042  24223020.933    24223019.809
  23508191.025    -9477412.98643  -6963428.99042  23508193.267    23508190.287
  20731106.780   -25545418.25044 -19885156.55242  20731108.867    20731105.980
  20344703.156   -29996189.04944 -23323221.89442  20344705.046    20344701.675
 04  5 20  2 23 30.0000000  0  6G16G13G 4G25G 1G20
  21597898.271   -21272992.40443 -16387521.69842  21597900.396    21597897.000
  23072223.707   -15344735.83643 -11947383.19942  23072226.611    23072223.980
  24219898.719    -9463689.40943  -7098835.69642  24219901.321    24219900.220
  23524636.233    -9390992.94843  -6896088.74242  23524638.474    23524635.552
  20725988.123   -25572317.04744 -19906116.64242  20725990.164    20725987.287
  20348757.250   -29974884.70744 -23306621.12042  20348759.138    20348755.773
 04  5 20  2 24  0.0000000  0  6G16G13G 4G25G 1G20
  21590185.537   -21313522.99643 -16419103.93542  21590187.674    21590184.252
  23057549.495   -15421848.97443 -12007471.27242  23057552.358    23057549.813
  24216880.493    -9479550.78643  -7111195.18542  24216883.072    24216881.867
  23541093.453    -9304509.61243  -6828699.17042  23541095.701    23541092.831
  20720909.855   -25599003.58844 -19926911.34142  20720911.883    20720908.975
  20352919.633   -29953011.40544 -23289577.00742  20352921.508    20352918.126
 04  5 20  2 24 30.0000000  0  6G16G13G 4G25G 1G20
  21582574.791   -21353517.54543 -16450268.48042  21582576.935    21582573.509
  23042890.116   -15498883.97643 -12067498.47142  23042893.051    23042890.436
  24213963.275    -9494880.43143  -7123140.36142  24213965.972    24213964.731
  23557562.449    -9217964.78543  -6761261.66942  23557564.707    23557561.825
  20715871.989   -25625477.68444 -19947540.49642  20715874.041    20715871.092
  20357190.106   -29930570.05044 -23272090.25642  20357191.990    20357188.582
 04  5 20  2 25  0.0000000  0  6G16G13G 4G25G 1G20
  21575066.205   -21392975.14843 -16481014.62742  21575068.360    21575064.942
  23028245.643   -15575840.99843 -12127464.92742  23028248.558    23028245.873
  24211147.238    -9509679.03743  -7134671.73142  24211149.934    24211148.621
  23574042.663    -9131360.87843  -6693778.13542  23574044.922    23574042.001
  20710874.553   -25651739.41544 -19968004.17542  20710876.593    20710873.628
  20361568.575   -29907561.11144 -23254161.23042  20361570.444    20361567.071
 04  5 20  2 25 30.0000000  0  6G16G13G 4G25G 1G20
  21567660.066   -21431894.46543 -16511341.32142  21567662.211    21567658.805
  23013616.054   -15652719.79243 -12187370.41042  23013618.954    23013616.246
  24208432.318    -9523946.77543  -7145789.46742  24208434.924    24208433.524
  23590533.772    -9044699.70143  -6626249.97442  23590536.049    23590533.110
  20705917.550   -25677788.41144 -19988302.08742  20705919.610    20705916.639
  20366054.940   -29883985.08544 -23235790.31742  20366056.825    20366053.449
 04  5 20  2 26  0.0000000  0  6G16G13G 4G25G 1G20
  21560356.837   -21470272.97643 -16541246.61542  21560358.973    21560355.596
  22999001.546   -15729519.18343 -12247214.02442  22999004.496    22999001.755
  24205818.416    -9537682.46843  -7156492.60142  24205821.180    24205819.667
  23607035.697    -8957981.34643  -6558677.26142  23607038.009    23607035.112
  20701001.345   -25703623.20244 -20008433.08942  20701003.389    20701000.446
  20370649.352   -29859841.29944 -23216976.99442  20370651.237    20370647.853
 04  5 20  2 26 30.0000000  0  6G16G13G 4G25G 1G20
  21553156.883   -21508108.84343 -16570729.06942  21553159.017    21553155.644
  22984402.342   -15806238.31643 -12306995.10142  22984405.260    22984402.554
  24203305.905    -9550886.50343  -7166781.47042  24203308.551    24203307.020
  23623548.229    -8871207.43843  -6491061.26142  23623550.502    23623547.686
  20696125.994   -25729243.26744 -20028396.76842  20696128.055    20696125.114
  20375351.729   -29835130.14844 -23197721.56942  20375353.603    20375350.241
 04  5 20  2 27  0.0000000  0  7G16G13G 4G25G27G 1G20
  21546057.670   -21545415.24843 -16599798.95242  21546059.787    21546056.441
  22969815.717   -15882891.27943 -12366724.61642  22969818.608    22969815.928
  24200891.563    -9563573.48043  -7176667.44642  24200894.256    24200892.775
  23640068.290    -8784393.90143  -6423414.39942  23640070.572    23640067.853
  24837936.917    -4257740.57353  -3135030.25452  24837939.645    24837943.184
  20691288.789   -25754662.84844 -20048204.22442  20691290.844    20691287.925
  20380159.256   -29809866.47444 -23178035.60642  20380161.131    20380157.769
 04  5 20  2 27 30.0000000  0  7G16G13G 4G25G27G 1G20
  21539065.131   -21582161.12743 -16628432.06542  21539067.242    21539063.880
  22955247.437   -15959447.98643 -12426379.11942  22955250.264    22955247.603
  24198581.432    -9575713.84043  -7186127.45942  24198583.967    24198582.606
  23656601.234    -8697512.86243  -6355714.92442  23656603.530    23656600.833
  24821777.539    -4342657.46343  -3201199.00242  24821780.314    24821783.615
  20686495.504   -25779851.67244 -20067831.86942  20686497.555    20686494.653
  20385077.455   -29784021.27944 -23157896.51042  20385079.327    20385075.978
 04  5 20  2 28  0.0000000  0  7G16G13G 4G25G27G 1G20
  21532177.193   -21618357.31743 -16656636.84942  21532179.306    21532175.936
  22940695.200   -16035920.21443 -12485967.79542  22940698.084    22940695.329
  24196372.808    -9587320.08543  -7195171.31242  24196375.416    24196374.060
  23673144.409    -8610578.05743  -6287973.53742  23673146.687    23673144.021
  24805643.802    -4427440.42443  -3267263.41242  24805646.383    24805649.700
  20681743.909   -25804821.45444 -20087288.83542  20681745.952    20681743.056
  20390103.957   -29757607.02844 -23137313.99342  20390105.811    20390102.469
 04  5 20  2 28 30.0000000  0  7G16G13G 4G25G27G 1G20
  21525393.285   -21654006.77143 -16684415.61042  21525395.403    21525392.016
  22926158.318   -16112311.90043 -12545493.72542  22926161.221    22926158.453
  24194264.947    -9598396.78443  -7203802.52842  24194267.546    24194266.199
  23689696.722    -8523595.35543  -6220194.83242  23689698.983    23689696.344
  24789534.753    -4512093.34443  -3333226.50542  24789537.344    24789540.586
  20677033.280   -25829576.04644 -20106578.12042  20677035.326    20677032.388
  20395237.797   -29730628.59044 -23116291.85642  20395239.675    20395236.303
 04  5 20  2 29  0.0000000  0  7G16G13G 4G25G27G 1G20
  21518713.761   -21689107.70343 -16711766.94742  21518715.871    21518712.460
  22911636.931   -16188622.11643 -12604956.16042  22911639.854    22911637.061
  24192258.015    -9608943.59543  -7212020.84242  24192260.617    24192259.195
  23706257.944    -8436565.91543  -6152379.70442  23706260.217    23706257.530
  24773450.474    -4596615.38143  -3399087.59842  24773453.224    24773456.426
  20672363.737   -25854114.66444 -20125699.11942  20672365.789    20672362.832
  20400478.957   -29703086.13244 -23094830.22042  20400480.834    20400477.492
 04  5 20  2 29 30.0000000  0  7G16G13G 4G25G27G 1G20
  21512140.036   -21723652.84543 -16738685.20942  21512142.120    21512138.689
  22897132.237   -16264844.70243 -12664350.32242  22897135.108    22897132.328
  24190352.805    -9618955.19343  -7219822.09942  24190355.412    24190354.038
  23722828.882    -8349485.22243  -6084524.64542  23722831.125    23722828.501
  24757392.360    -4681000.08543  -3464841.67842  24757395.220    24757398.412
  20667736.487   -25878431.05144 -20144646.94642  20667738.538    20667735.580
  20405828.485   -29674974.23444 -23072924.86642  20405830.365    20405827.035
 04  5 20  2 30  0.0000000  0  7G16G13G 4G25G27G 1G20
  21505671.402   -21757645.47343 -16765172.94442  21505673.504    21505670.064
  22882643.404   -16340983.54943 -12723679.20842  22882646.309    22882643.531
  24188548.581    -9628436.27343  -7227209.97742  24188551.134    24188549.886
  23739408.330    -8262359.37543  -6016634.39142  23739410.652    23739408.017
  24741359.827    -4765251.25643  -3530491.71942  24741362.616    24741365.613
  20663150.737   -25902529.28444 -20163424.78242  20663152.789    20663149.830
  20411285.402   -29646298.08544 -23050579.83642  20411287.259    20411283.955
 04  5 20  2 30 30.0000000  0  7G16G13G 4G25G27G 1G20
  21499308.052   -21791084.79043 -16791229.51842  21499310.162    21499306.733
  22868170.514   -16417038.76943 -12782942.95242  22868173.442    22868170.621
  24186845.173    -9637387.71743  -7234185.14142  24186847.692    24186846.493
  23755996.072    -8175190.23043  -5948710.40842  23755998.360    23755995.770
  24725352.581    -4849369.07443  -3596037.86642  24725355.356    24725358.213
  20658606.528   -25926409.33444 -20182032.60542  20658608.574    20658605.635
  20416849.513   -29617058.53944 -23027795.79742  20416851.381    20416848.077
 04  5 20  2 31  0.0000000  0  7G16G13G 4G25G27G 1G20
  21493050.461   -21823968.51743 -16816853.16542  21493052.589    21493049.130
  22853713.791   -16493008.99543 -12842140.45642  22853716.738    22853713.886
  24185242.681    -9645808.66943  -7240746.94642  24185245.238    24185244.047
  23772591.937    -8087978.62343  -5880753.34342  23772594.173    23772591.621
  24709371.047    -4933352.04043  -3661478.92442  24709373.735    24709376.508
  20654104.082   -25950069.78644 -20200469.31142  20654106.148    20654103.219
  20422520.900   -29587255.38944 -23004572.58842  20422522.749    20422519.451
 04  5 20  2 31 30.0000000  0  7G16G13G 4G25G27G 1G20
  21486899.356   -21856292.60643 -16842040.72842  21486901.491    21486898.019
  22839273.871   -16568890.92143 -12901269.15642  22839276.814    22839273.971
  24183741.592    -9653697.11843  -7246893.79642  24183744.137    24183742.946
  23789196.105    -8000723.20943  -5812762.13442  23789198.321    23789195.792
  24693415.738    -5017196.75543  -3726812.26742  24693418.370    24693421.196
  20649644.067   -25973507.37544 -20218732.35842  20649646.134    20649643.195
  20428299.904   -29556886.50644 -22980908.54742  20428301.760    20428298.467
 04  5 20  2 32  0.0000000  0  7G16G13G 4G25G27G 1G20
  21480854.472   -21888058.78843 -16866793.56642  21480856.590    21480853.084
  22824850.348   -16644686.62443 -12960330.67642  22824853.294    22824850.485
  24182341.338    -9661055.95243  -7252627.97442  24182343.862    24182342.576
  23805807.968    -7913427.82543  -5744739.77742  23805810.121    23805807.540
  24677486.315    -5100905.65543  -3792039.77442  24677488.985    24677491.765
  20645226.029   -25996724.21444 -20236823.39142  20645228.105    20645225.161
  20434185.944   -29525955.18044 -22956806.23842  20434187.800    20434184.513
 04  5 20  2 32 30.0000000  0  7G16G13G 4G25G27G 1G20
  21474915.886   -21919266.25643 -16891111.03742  21474917.975    21474914.454
  22810443.257   -16720396.23443 -13019325.10742  22810446.163    22810443.376
  24181041.565    -9667886.30043  -7257950.34842  24181044.131    24181042.811
  23822426.996    -7826094.58243  -5676687.90642  23822429.168    23822426.482
  24661582.719    -5184478.55443  -3857161.32442  24661585.462    24661588.093
  20640849.967   -26019720.45544 -20254742.52242  20640852.055    20640849.136
  20440178.781   -29494462.74144 -22932266.69442  20440180.628    20440177.355
 04  5 20  2 33  0.0000000  0  7G16G13G 4G25G27G 1G20
  21469084.640   -21949909.67143 -16914988.99542  21469086.707    21469083.179
  22796053.403   -16796015.18843 -13078248.90442  22796056.273    22796053.505
  24179843.065    -9674184.17043  -7262857.81742  24179845.732    24179844.415
  23839053.667    -7738721.08143  -5608604.66742  23839055.879    23839053.067
  24645705.927    -5267910.99443  -3922173.42142  24645708.714    24645711.283
  20636516.807   -26042491.37744 -20272486.08642  20636518.867    20636515.974
  20446279.057   -29462405.61844 -22907287.13742  20446280.925    20446277.651
 04  5 20  2 33 30.0000000  0  7G16G13G 4G25G27G 1G20
  21463360.547   -21979989.72243 -16938427.96242  21463362.642    21463359.109
  22781680.558   -16871544.91543 -13137103.17742  22781683.446    22781680.565
  24178745.477    -9679952.11943  -7267352.33542  24178748.091    24178746.776
  23855687.332    -7651310.56943  -5540492.58442  23855689.595    23855686.753
  24629855.571    -5351204.44443  -3987077.21242  24629858.280    24629860.845
  20632226.232   -26065038.44044 -20290055.21042  20632228.289    20632225.418
  20452486.198   -29429786.70644 -22881869.82642  20452488.101    20452484.847
 04  5 20  2 34  0.0000000  0  7G16G13G 4G25G27G 1G20
  21457743.463   -22009507.55043 -16961428.82942  21457745.569    21457742.060
  22767324.375   -16946986.95843 -13195889.12442  22767327.275    22767324.341
  24177748.305    -9685192.79043  -7271435.99642  24177750.840    24177749.556
  23872327.367    -7563866.50643  -5472354.36642  23872329.638    23872326.761
  24614031.412    -5434360.48043  -4051873.95142  24614034.019    24614036.633
  20627977.937   -26087363.17944 -20307451.09542  20627980.026    20627977.131
  20458799.757   -29396608.67944 -22856016.84042  20458801.659    20458798.443
 04  5 20  2 34 30.0000000  0  7G16G13G 4G25G27G 1G20
  21452234.609   -22038456.67443 -16983986.55042  21452236.729    21452233.231
  22752986.045   -17022335.29143 -13254602.04942  22752988.900    22752985.977
  24176852.304    -9689901.24443  -7275104.95642  24176854.826    24176853.536
  23888974.526    -7476384.98543  -5404186.96342  23888976.751    23888973.918
  24598234.451    -5517373.17543  -4116559.00042  24598237.000    24598239.650
  20623773.091   -26109459.64344 -20324669.10542  20623775.175    20623772.299
  20465220.717   -29362866.70144 -22829724.41642  20465222.564    20465219.366
 04  5 20  2 35  0.0000000  0  7G16G13G 4G25G27G 1G20
  21446833.357   -22066840.38243 -17006103.69142  21446835.478    21446831.955
  22738664.666   -17097594.15843 -13313245.26342  22738667.556    22738664.645
  24176056.635    -9694082.41243  -7278363.05042  24176059.204    24176057.879
  23905627.687    -7388871.96743  -5335995.02042  23905629.944    23905627.095
  24582464.062    -5600246.61643  -4181135.53742  24582466.507    24582469.082
  20619610.923   -26131331.91544 -20341712.41642  20619612.995    20619610.126
  20471747.930   -29328566.26644 -22802996.83242  20471749.758    20471746.534
 04  5 20  2 35 30.0000000  0  7G16G13G 4G25G27G 1G20
  21441539.759   -22094658.22143 -17027779.89942  21441541.884    21441538.361
  22724360.368   -17172763.49643 -13371818.71742  22724363.246    22724360.315
  24175361.064    -9697737.76443  -7281211.40842  24175363.620    24175362.284
  23922286.466    -7301329.62343  -5267780.23542  23922288.708    23922285.788
  24566720.128    -5682981.01343  -4245603.72442  24566722.538    24566725.045
  20615491.369   -26152980.29144 -20358581.26242  20615493.425    20615490.569
  20478381.074   -29293708.93344 -22775835.29742  20478382.900    20478379.679
 04  5 20  2 36  0.0000000  0  7G16G13G 4G25G27G 1G20
  21436355.313   -22121902.64943 -17049009.29242  21436357.409    21436353.889
  22710074.452   -17247836.13043 -13430316.80742  22710077.318    22710074.403
  24174766.702    -9700861.06043  -7283645.17642  24174769.325    24174768.000
  23938951.774    -7213752.87843  -5199538.63142  23938954.039    23938951.102
  24551003.996    -5765569.36243  -4309958.11142  24551006.356    24551008.825
  20611415.768   -26174397.65844 -20375270.09942  20611417.831    20611414.954
  20485121.337   -29258288.61044 -22748235.07042  20485123.173    20485119.951
 04  5 20  2 36 30.0000000  0  7G16G13G 4G25G27G 1G20
  21431278.782   -22148579.90343 -17069796.73042  21431280.861    21431277.349
  22695805.621   -17322818.88643 -13488744.86942  22695808.495    22695805.620
  24174272.091    -9703460.34943  -7285670.62142  24174274.699    24174273.424
  23955622.020    -7126150.01443  -5131276.66642  23955624.302    23955621.327
  24535314.223    -5848018.47843  -4374203.97442  24535316.533    24535319.086
  20607382.860   -26195590.68544 -20391784.12742  20607384.927    20607382.009
  20491967.159   -29222313.58544 -22720202.61142  20491968.976    20491965.784
 04  5 20  2 37  0.0000000  0  7G16G13G 4G25G27G 1G20
  21426311.178   -22174684.68243 -17090138.08742  21426313.246    21426309.751
  22681554.934   -17397706.66943 -13547098.92042  22681557.794    22681554.865
  24173877.946    -9705531.65643  -7287284.64242  24173880.537    24173879.282
  23972297.830    -7038518.03143  -5062992.03742  23972300.142    23972297.164
  24519651.924    -5930323.54843  -4438337.61842  24519654.369    24519656.713
  20603393.552   -26216554.50444 -20408119.55442  20603395.634    20603392.706
  20498919.207   -29185780.42244 -22691735.23842  20498921.017    20498917.827
 04  5 20  2 37 30.0000000  0  7G16G13G 4G25G27G 1G20
  21421452.737   -22200215.77243 -17110032.41642  21421454.807    21421451.314
  22667322.454   -17472498.88143 -13605378.51842  22667325.289    22667322.296
  24173584.269    -9707075.49443  -7288487.67142  24173586.795    24173585.547
  23988978.931    -6950858.30243  -4994685.76742  23988981.215    23988978.280
  24504017.299    -6012483.79443  -4502358.39242  24504019.637    24504021.938
  20599448.022   -26237288.33544 -20424275.76842  20599450.108    20599447.172
  20505977.346   -29148689.78444 -22662833.47142  20505979.163    20505975.959
 04  5 20  2 38  0.0000000  0  7G16G13G 4G25G27G 1G20
  21416703.247   -22225174.26243 -17129480.56242  21416705.334    21416701.857
  22653107.852   -17547197.00643 -13663584.79442  22653110.673    22653107.670
  24173390.356    -9708094.60943  -7289281.79642  24173392.945    24173391.652
  24005664.673    -6863174.31343  -4926360.59142  24005666.930    24005664.006
  24488409.766    -6094501.02143  -4566267.75642  24488412.183    24488414.376
  20595545.996   -26257793.62444 -20440253.90342  20595548.075    20595545.132
  20513140.988   -29111044.64144 -22633499.61742  20513142.818    20513139.597
 04  5 20  2 38 30.0000000  0  7G16G13G 4G25G27G 1G20
  21412063.634   -22249555.38643 -17148478.81442  21412065.730    21412062.243
  22638911.981   -17621796.55343 -13721714.25242  22638914.814    22638911.812
  24173296.927    -9708585.74143  -7289664.51142  24173299.464    24173298.143
  24022355.452    -6775463.63843  -4858014.62142  24022357.698    24022354.848
  24472830.279    -6176370.83043  -4630062.21842  24472832.783    24472834.940
  20591688.289   -26278065.96644 -20456050.52342  20591690.353    20591687.398
  20520410.758   -29072841.82244 -22603731.21242  20520412.582    20520409.379
 04  5 20  2 39  0.0000000  0  7G16G13G 4G25G27G 1G20
  21407532.925   -22273364.18343 -17167031.09042  21407535.026    21407531.537
  22624733.819   -17696302.86543 -13779771.06242  22624736.684    22624733.646
  24173302.690    -9708555.77643  -7289641.19142  24173305.262    24173303.847
  24039049.915    -6687733.54543  -4789653.53242  24039052.086    24039049.320
  24457277.847    -6258098.96043  -4693746.29442  24457280.355    24457282.399
  20587873.900   -26298110.68844 -20471669.77542  20587875.962    20587872.995
  20527785.283   -29034088.48544 -22573533.83042  20527787.117    20527783.910
 04  5 20  2 39 30.0000000  0  7G16G13G 4G25G27G 1G20
  21403112.833   -22296591.72543 -17185130.44642  21403114.933    21403111.428
  22610575.037   -17770707.23743 -13837748.43042  22610577.940    22610574.888
  24173409.047    -9707997.07843  -7289205.84242  24173411.622    24173410.076
  24055749.459    -6599976.93943  -4721271.78342  24055751.631    24055748.869
  24441753.895    -6339676.74843  -4757313.22342  24441756.440    24441758.450
  20584104.458   -26317919.23044 -20487104.98842  20584106.514    20584103.509
  20535265.917   -28994777.57344 -22542901.97142  20535267.763    20535264.548
 04  5 20  2 40  0.0000000  0  7G16G13G 4G25G27G 1G20
  21398802.009   -22319245.17943 -17202782.46642  21398804.121    21398800.588
  22596434.168   -17845017.41043 -13895652.40042  22596437.099    22596434.065
  24173614.260    -9706918.81343  -7288365.63242  24173616.926    24173615.239
  24072452.273    -6512203.32243  -4652876.77842  24072454.408    24072451.679
  24426257.162    -6421111.80943  -4820768.91442  24426259.695    24426261.763
  20580378.532   -26337499.07144 -20502361.99842  20580380.598    20580377.577
  20542850.980   -28954917.94944 -22511842.55042  20542852.816    20542849.600
 04  5 20  2 40 30.0000000  0  7G16G13G 4G25G27G 1G20
  21394601.783   -22341317.39743 -17219981.56842  21394603.879    21394600.381
  22582312.705   -17919225.99543 -13953477.21742  22582315.607    22582312.569
  24173919.464    -9705315.01043  -7287115.93942  24173922.109    24173920.403
  24089159.194    -6424407.80943  -4584464.69242  24089161.403    24089158.743
  24410788.950    -6502397.40343  -4884108.16442  24410791.393    24410793.449
  20576697.440   -26356843.36444 -20517435.46742  20576699.495    20576696.452
  20550541.469   -28914504.23344 -22480351.36542  20550543.321    20550540.099
 04  5 20  2 41  0.0000000  0  7G16G13G 4G25G27G 1G20
  21390511.959   -22362809.55843 -17236728.68142  21390514.060    21390510.523
  22568210.229   -17993334.97143 -14011224.42342  22568213.129    22568210.040
  24174324.089    -9703188.72443  -7285459.08242  24174326.686    24174325.013
  24105869.665    -6336593.92643  -4516038.30642  24105871.874    24105869.222
  24395348.773    -6583535.35443  -4947332.34042  24395351.243    24395353.270
  20573060.831   -26375953.84644 -20532326.74342  20573062.873    20573059.831
  20558336.754   -28873539.78544 -22448431.03242  20558338.611    20558335.424
 04  5 20  2 41 30.0000000  0  7G16G13G 4G25G27G 1G20
  21386532.257   -22383722.98443 -17253024.83642  21386534.339    21386530.788
  22554126.556   -18067345.11043 -14068894.60642  22554129.425    22554126.340
  24174827.616    -9700542.69143  -7283397.25342  24174830.246    24174828.522
  24122582.980    -6248764.79843  -4447600.04642  24122585.259    24122582.605
  24379936.393    -6664527.10143  -5010442.60642  24379938.888    24379940.854
  20569468.527   -26394831.39944 -20547036.51442  20569470.598    20569467.537
  20566236.358   -28832027.19644 -22416083.58442  20566238.240    20566235.045
 04  5 20  2 42  0.0000000  0  7G16G13G 4G25G27G 1G20
  21382663.688   -22404052.49843 -17268865.98742  21382665.746    21382662.172
  22540062.618   -18141251.44643 -14126483.89542  22540065.489    22540062.375
  24175430.765    -9697373.33443  -7280927.63642  24175433.453    24175431.633
  24139299.853    -6160917.39343  -4379147.53242  24139302.069    24139299.437
  24364552.738    -6745367.69043  -5073435.08442  24364555.352    24364557.183
  20565921.507   -26413471.22144 -20561561.04342  20565923.554    20565920.490
  20574240.897   -28789963.32044 -22383306.56742  20574242.758    20574239.559
 04  5 20  2 42 30.0000000  0  7G16G13G 4G25G27G 1G20
  21378905.742   -22423800.46143 -17284253.98942  21378907.823    21378904.234
  22526017.933   -18215056.44543 -14183994.22242  22526020.850    22526017.684
  24176132.796    -9693684.38943  -7278053.15242  24176135.485    24176133.680
  24156019.329    -6073055.97843  -4310684.10342  24156021.548    24156018.923
  24349197.394    -6826060.01343  -5136312.04142  24349199.976    24349201.766
  20562419.212   -26431875.94044 -20575902.37542  20562421.245    20562418.200
  20582349.475   -28747352.53844 -22350103.39742  20582351.357    20582348.151
 04  5 20  2 43  0.0000000  0  7G16G13G 4G25G27G 1G20
  21375259.194   -22442962.91443 -17299185.74942  21375261.283    21375257.711
  22511993.142   -18288756.85543 -14241423.05842  22511996.062    22511992.910
  24176933.984    -9689474.07243  -7274772.40042  24176936.590    24176934.924
  24172741.838    -5985178.81843  -4242208.39142  24172744.061    24172741.411
  24333870.884    -6906600.70143  -5199070.83042  24333873.512    24333875.206
  20558962.309   -26450042.09444 -20590057.81142  20558964.335    20558961.294
  20590562.530   -28704192.92644 -22316472.55942  20590564.374    20590561.169
 04  5 20  2 43 30.0000000  0  7G16G13G 4G25G27G 1G20
  21371723.470   -22461543.05943 -17313663.76042  21371725.559    21371722.024
  22497987.801   -18362355.30743 -14298772.44842  22497990.702    22497987.534
  24177833.613    -9684746.69643  -7271088.74342  24177836.190    24177834.482
  24189466.406    -5897290.71743  -4173724.15842  24189468.584    24189466.006
  24318572.579    -6986992.93243  -5261713.94142  24318575.156    24318576.916
  20555550.247   -26467972.58844 -20604029.62242  20555552.276    20555549.220
  20598879.120   -28660489.10644 -22282417.66042  20598880.961    20598877.735
 04  5 20  2 44  0.0000000  0  7G16G13G 4G25G27G 1G20
  21368299.029   -22479538.53443 -17327686.17942  21368301.125    21368297.577
  22484002.310   -18435849.67143 -14356040.72742  22484005.168    22484001.916
  24178831.747    -9679501.70343  -7267001.75942  24178834.322    24178832.682
  24206193.058    -5809391.64043  -4105231.39842  24206195.224    24206192.659
  24303302.927    -7067234.76643  -5324239.86342  24303305.476    24303307.219
  20552183.420   -26485665.35244 -20617816.18842  20552185.469    20552182.408
  20607299.323   -28616240.69544 -22247938.41142  20607301.175    20607297.970
 04  5 20  2 44 30.0000000  0  7G16G13G 4G25G27G 1G20
  21364986.525   -22496945.79643 -17341250.25742  21364988.627    21364985.065
  22470037.297   -18509236.23743 -14413225.01442  22470040.154    22470036.833
  24179928.730    -9673736.99943  -7262509.81042  24179931.264    24179929.645
  24222922.162    -5721479.69843  -4036728.60242  24222924.265    24222921.761
  24288062.554    -7147322.95243  -5386646.07542  24288065.021    24288066.764
  20548862.574   -26503116.45444 -20631414.44342  20548864.631    20548861.573
  20615823.535   -28571445.79344 -22213033.32742  20615825.367    20615822.184
 04  5 20  2 45  0.0000000  0  7G16G13G 4G25G27G 1G20
  21361785.260   -22513768.41743 -17354358.76942  21361787.360    21361783.792
  22456092.163   -18582518.34243 -14470327.90542  22456095.008    22456091.652
  24181123.668    -9667457.75343  -7257616.92142  24181126.179    24181124.621
  24239652.634    -5633560.25543  -3968219.96042  24239654.781    24239652.311
  24272850.685    -7227261.13143  -5448935.39542  24272853.161    24272854.828
  20545587.015   -26520329.59744 -20644827.27642  20545589.063    20545586.010
  20624450.698   -28526109.78344 -22177706.59642  20624452.533    20624449.374
 04  5 20  2 45 30.0000000  0  7G16G13G 4G25G27G 1G20
  21358696.369   -22530000.53443 -17367007.14242  21358698.462    21358694.896
  22442167.903   -18655690.28343 -14527344.94642  22442170.799    22442167.473
  24182417.243    -9660659.81543  -7252319.86342  24182419.797    24182418.290
  24256385.251    -5545629.61443  -3899702.58442  24256387.404    24256384.887
  24257668.315    -7307044.07043  -5511103.75442  24257670.869    24257672.499
  20542357.796   -26537299.23844 -20658050.36742  20542359.847    20542356.801
  20633181.527   -28480228.96144 -22141955.33042  20633183.376    20633180.242
 04  5 20  2 46  0.0000000  0  7G16G13G 4G25G27G 1G20
  21355719.063   -22545646.40443 -17379198.70542  21355721.169    21355717.544
  22428263.879   -18728756.25243 -14584279.41642  22428266.772    22428263.432
  24183808.417    -9653348.91043  -7246623.08342  24183810.975    24183809.594
  24273118.850    -5457693.67143  -3831181.07442  24273121.082    24273118.497
  24242514.875    -7386675.86143  -5573154.32842  24242517.297    24242518.939
  20539174.133   -26554029.38944 -20671086.84442  20539176.183    20539173.162
  20642014.924   -28433809.14444 -22105784.06842  20642016.757    20642013.668
 04  5 20  2 46 30.0000000  0  7G16G13G 4G25G27G 1G20
  21352853.515   -22560704.86543 -17390932.54942  21352855.624    21352851.969
  22414380.296   -18801714.92843 -14641130.28742  22414383.172    22414379.804
  24185297.259    -9645525.67043  -7240527.08442  24185299.710    24185298.371
  24289853.387    -5369753.19943  -3762656.04842  24289855.553    24289853.011
  24227390.166    -7466155.91843  -5635086.65642  24227392.554    24227394.191
  20536036.271   -26570518.93444 -20683935.83542  20536038.318    20536035.304
  20650950.761   -28386851.07944 -22069193.39342  20650952.611    20650949.506
 04  5 20  2 47  0.0000000  0  7G16G13G 4G25G27G 1G20
  21350100.764   -22575170.53143 -17402204.47342  21350102.876    21350099.222
  22400518.174   -18874560.49443 -14697893.01742  22400521.084    22400517.707
  24186884.341    -9637185.64743  -7234028.39742  24186886.763    24186885.522
  24306589.480    -5281804.13643  -3694124.31342  24306591.653    24306589.148
  24212295.406    -7545478.67043  -5696896.41742  24212297.807    24212299.437
  20532945.287   -26586762.15144 -20696592.88042  20532947.340    20532944.313
  20659989.750   -28339351.00244 -22032180.38242  20659991.598    20659988.507
 04  5 20  2 47 30.0000000  0  7G16G13G 4G25G27G 1G20
  21347459.645   -22589049.64243 -17413019.34142  21347461.747    21347458.094
  22386676.476   -18947298.85543 -14754572.21042  22386679.384    22386676.033
  24188568.128    -9628337.19043  -7227133.55442  24188570.623    24188569.348
  24323325.769    -5193854.36743  -3625592.04142  24323327.858    24323325.375
  24197229.371    -7624650.60643  -5758588.68542  24197231.799    24197233.289
  20529900.010   -26602765.23344 -20709062.80942  20529902.049    20529899.014
  20669130.364   -28291316.95044 -21994751.29142  20669132.200    20669129.112
 04  5 20  2 48  0.0000000  0  7G16G13G 4G25G27G 1G20
  21344931.466   -22602335.17043 -17423371.67942  21344933.546    21344929.900
  22372856.487   -19019923.26443 -14811162.61642  22372859.369    22372856.075
  24190349.733    -9618974.63343  -7219838.08542  24190352.196    24190351.025
  24340063.177    -5105898.76643  -3557055.21442  24340065.297    24340062.745
  24182193.298    -7703665.07843  -5820158.23342  24182195.683    24182197.161
  20526901.765   -26618521.14144 -20721340.13842  20526903.825    20526900.774
  20678373.583   -28242743.75544 -21956902.08642  20678375.394    20678372.315
 04  5 20  2 48 30.0000000  0  7G16G13G 4G25G27G 1G20
  21342515.686   -22615030.08443 -17433263.79842  21342517.770    21342514.095
  22359057.743   -19092435.88843 -14867665.91642  22359060.638    22359057.346
  24192228.315    -9609102.53043  -7212145.56842  24192230.822    24192229.675
  24356800.820    -5017941.75443  -3488517.30642  24356802.990    24356800.402
  24167186.655    -7782524.84643  -5881607.25242  24167189.080    24167190.496
  20523950.037   -26634032.46044 -20733426.87242  20523952.118    20523949.067
  20687718.471   -28193636.08144 -21918636.40342  20687720.300    20687717.219
 04  5 20  2 49  0.0000000  0  7G16G13G 4G25G27G 1G20
  21340212.375   -22627134.19843 -17442695.55042  21340214.415    21340210.744
  22345280.297   -19164836.56643 -14924081.98942  22345283.196    22345279.909
  24194203.685    -9598722.09543  -7204056.96942  24194206.103    24194205.039
  24373538.483    -4929984.57443  -3419979.22842  24373540.719    24373538.131
  24152209.447    -7861230.04643  -5942935.83642  24152211.912    24152213.159
  20521044.880   -26649298.97744 -20745322.85042  20521046.968    20521043.944
  20697164.774   -28143995.58244 -21879955.52042  20697166.592    20697163.539
 04  5 20  2 49 30.0000000  0  7G16G13G 4G25G27G 1G20
  21338021.509   -22638647.18443 -17451666.68142  21338023.545    21338019.893
  22331524.352   -19237124.42443 -14980410.15342  22331527.231    22331523.915
  24196275.473    -9587834.76743  -7195573.37542  24196277.930    24196276.826
  24390275.905    -4842028.75843  -3351442.24142  24390278.173    24390275.582
  24137261.741    -7939780.23343  -6004143.63142  24137264.147    24137265.321
  20518186.455   -26664319.92244 -20757027.47642  20518188.529    20518185.557
  20706712.229   -28093823.57644 -21840860.47542  20706714.047    20706710.986
 04  5 20  2 50  0.0000000  0  7G16G13G 4G25G27G 1G20
  21335943.767   -22649565.66643 -17460174.56542  21335945.797    21335942.157
  22317790.578   -19309295.67343 -15036647.44242  22317793.457    22317790.125
  24198444.091    -9576438.48943  -7186693.19642  24198446.568    24198445.435
  24407013.391    -4754072.44843  -3282904.86342  24407015.624    24407013.040
  24122344.146    -8018172.22143  -6065228.14142  24122346.551    24122347.656
  20515375.441   -26679091.81744 -20768538.04142  20515377.500    20515374.566
  20716361.092   -28043118.64844 -21801350.18142  20716362.894    20716359.838
 04  5 20  2 50 30.0000000  0  7G16G13G 4G25G27G 1G20
  21333979.260   -22659889.14843 -17468218.81242  21333981.298    21333977.643
  22304079.172   -19381349.42443 -15092793.18842  22304082.042    22304078.699
  24200709.367    -9564534.37643  -7177417.28942  24200711.901    24200710.748
  24423750.891    -4666116.51143  -3214367.78142  24423753.116    24423750.453
  24107456.673    -8096405.64243  -6126189.11942  24107459.087    24107460.180
  20512611.999   -26693613.70744 -20779853.79642  20512614.062    20512611.120
  20726111.136   -27991881.90644 -21761425.49242  20726112.947    20726109.913
 04  5 20  2 51  0.0000000  0  7G16G13G 4G25G27G 1G20
  21332127.436   -22669620.32743 -17475801.52442  21332129.507    21332125.824
  22290389.671   -19453288.18743 -15148849.33342  22290392.513    22290389.156
  24203070.477    -9552126.79143  -7167749.08142  24203072.919    24203071.846
  24440487.452    -4578165.60343  -3145834.59942  24440489.590    24440486.969
  24092598.870    -8174483.17243  -6187028.62142  24092601.264    24092602.368
  20509895.634   -26707888.32444 -20790976.87042  20509897.680    20509894.725
  20735961.487   -27940117.93244 -21721089.96142  20735963.312    20735960.312
 04  5 20  2 51 30.0000000  0  7G16G13G 4G25G27G 1G20
  21330388.655   -22678757.68043 -17482921.51842  21330390.704    21330387.023
  22276722.456   -19525109.65843 -15204814.08242  22276725.312    22276721.940
  24205527.422    -9539215.56443  -7157688.41742  24205529.805    24205528.807
  24457223.112    -4490219.02043  -3077304.79742  24457225.373    24457222.691
  24077771.043    -8252403.16843  -6247745.35642  24077773.393    24077774.585
  20507226.742   -26721913.41044 -20801905.49642  20507228.796    20507225.827
  20745912.170   -27887826.79644 -21680343.64942  20745913.997    20745911.030
 04  5 20  2 52  0.0000000  0  7G16G13G 4G25G27G 1G20
  21328762.809   -22687301.54343 -17489579.04842  21328764.859    21328761.139
  22263077.642   -19596813.59043 -15260687.24842  22263080.510    22263077.094
  24208079.748    -9525802.65143  -7147236.83042  24208082.194    24208081.268
  24473957.630    -4402278.55943  -3008779.76742  24473959.861    24473957.270
  24062973.179    -8330165.95343  -6308339.59642  24062975.526    24062976.642
  20504605.334   -26735689.00744 -20812639.71642  20504607.373    20504604.399
  20755962.766   -27835010.67944 -21639188.26442  20755964.585    20755961.635
 04  5 20  2 52 30.0000000  0  7G16G13G 4G25G27G 1G20
  21327250.477   -22695248.79643 -17495771.68842  21327252.532    21327248.820
  22249455.901   -19668396.30443 -15316465.95442  22249458.760    22249455.344
  24210727.971    -9511886.32943  -7136392.97542  24210730.396    24210729.519
  24490691.310    -4314342.45343  -2940258.12942  24490693.559    24490690.902
  24048205.850    -8407768.46343  -6368808.96442  24048208.176    24048209.246
  20502032.086   -26749211.59144 -20823176.78642  20502034.116    20502031.117
  20766113.549   -27781668.13444 -21597622.67942  20766115.359    20766112.380
 04  5 20  2 53  0.0000000  0  7G16G13G 4G25G27G 1G20
  21325851.377   -22702601.02743 -17501500.67842  21325853.435    21325849.716
  22235856.989   -19739858.77943 -15372150.95942  22235859.867    22235856.439
  24213471.386    -9497469.61643  -7125159.21042  24213473.871    24213472.994
  24507423.683    -4226413.54543  -2871742.10342  24507425.858    24507423.331
  24033468.809    -8485211.91743  -6429154.38642  24033471.116    24033472.084
  20499506.813   -26762481.88444 -20833517.26742  20499508.871    20499505.859
  20776363.937   -27727802.08244 -21555649.16242  20776365.759    20776362.777
 04  5 20  2 53 30.0000000  0  7G16G13G 4G25G27G 1G20
  21324565.573   -22709357.86243 -17506765.72242  21324567.649    21324563.914
  22222281.117   -19811200.38043 -15427741.78842  22222283.993    22222280.521
  24216309.893    -9482553.76243  -7113536.50942  24216312.360    24216311.424
  24524154.441    -4138493.12343  -2803232.69842  24524156.631    24524154.064
  24018761.974    -8562496.22943  -6489375.77942  24018764.339    24018765.195
  20497029.666   -26775499.38144 -20843660.76242  20497031.700    20497028.697
  20786713.581   -27673414.50044 -21513269.25642  20786715.388    20786712.434
 04  5 20  2 54  0.0000000  0  7G16G13G 4G25G27G 1G20
  21323393.648   -22715516.14543 -17511564.36042  21323395.726    21323392.041
  22208729.077   -19882416.81843 -15483235.08342  22208731.924    22208728.418
  24219243.564    -9467137.28343  -7101523.70442  24219246.114    24219245.114
  24540883.925    -4050579.27143  -2734728.41042  24540886.082    24540883.557
  24004086.087    -8639618.09643  -6549470.62342  24004088.426    24004089.267
  20494601.308   -26788260.50244 -20853604.48242  20494603.329    20494600.325
  20797162.775   -27618503.73844 -21470481.68742  20797164.583    20797161.631
 04  5 20  2 54 30.0000000  0  7G16G13G 4G25G27G 1G20
  21322334.637   -22721081.19243 -17515900.73742  21322336.713    21322333.047
  22195199.913   -19953513.13143 -15538634.78342  22195202.723    22195199.194
  24222271.266    -9451226.80343  -7089125.97642  24222273.753    24222272.871
  24557610.923    -3962678.30743  -2666234.18042  24557613.086    24557610.620
  23989440.169    -8716582.71743  -6609442.94342  23989442.481    23989443.331
  20492220.774   -26800770.18044 -20863352.27242  20492222.837    20492219.811
  20807710.168   -27563076.99344 -21427292.05842  20807711.976    20807708.998
 04  5 20  2 55  0.0000000  0  7G16G13G 4G25G27G 1G20
  21321389.044   -22726050.33243 -17519772.77142  21321391.110    21321387.441
  22181694.243   -20024485.75243 -15593938.09242  22181697.070    22181693.501
  24225393.210    -9434821.23143  -7076342.47142  24225395.681    24225394.739
  24574335.748    -3874788.64343  -2597748.72842  24574337.999    24574335.543
  23974824.742    -8793387.31943  -6669290.58242  23974826.987    23974827.812
  20489888.741   -26813025.07344 -20872901.52742  20489890.797    20489887.770
  20818355.983   -27507133.03044 -21383699.39142  20818357.801    20818354.829
 04  5 20  2 55 30.0000000  0  7G16G13G 4G25G27G 1G20
  21320557.595   -22730419.53543 -17523177.32442  21320559.672    21320555.991
  22168212.994   -20095329.93243 -15649141.32142  22168215.835    22168212.280
  24228609.884    -9417918.04143  -7063171.21442  24228612.288    24228611.286
  24591058.983    -3786907.68643  -2529270.08542  24591061.217    24591058.748
  23960240.475    -8870027.62743  -6729010.19542  23960242.743    23960243.473
  20487606.047   -26825020.64944 -20882248.71742  20487608.102    20487605.088
  20829100.642   -27450669.62644 -21339701.96642  20829102.465    20829099.480
 04  5 20  2 56  0.0000000  0  7G16G13G 4G25G27G 1G20
  21319838.948   -22734195.91443 -17526119.93642  21319841.035    21319837.353
  22154754.922   -20166052.24743 -15704249.58642  22154757.755    22154754.242
  24231919.630    -9400525.78643  -7049618.87542  24231922.047    24231921.006
  24607778.993    -3699043.71543  -2460804.66642  24607781.262    24607778.681
  23945686.199    -8946510.59243  -6788607.19242  23945688.466    23945689.103
  20485371.463   -26836763.31144 -20891398.83242  20485373.533    20485370.528
  20839942.477   -27393695.58244 -21295306.63642  20839944.307    20839941.314
 04  5 20  2 56 30.0000000  0  7G16G13G 4G25G27G 1G20
  21319234.510   -22737372.16343 -17528594.91542  21319236.586    21319232.924
  22141321.717   -20236644.18043 -15759256.26142  22141324.516    22141321.025
  24235323.465    -9382638.69843  -7035680.91842  24235325.909    24235324.852
  24624496.959    -3611190.03643  -2392347.24642  24624499.204    24624496.698
  23931163.294    -9022828.74643  -6848075.79242  23931165.535    23931166.097
  20483186.557   -26848245.09944 -20900345.67442  20483188.616    20483185.606
  20850882.579   -27336205.11244 -21250508.89842  20850884.410    20850881.410
 04  5 20  2 57  0.0000000  0  7G16G13G 4G25G27G 1G20
  21318743.425   -22739952.65743 -17530605.66842  21318745.525    21318741.843
  22127912.610   -20307109.46743 -15814164.25342  22127915.384    22127911.926
  24238820.497    -9364262.34043  -7021361.75842  24238822.924    24238821.806
  24641211.939    -3523352.30443  -2323902.28842  24641214.194    24641211.704
  23916670.912    -9098986.10043  -6907419.05642  23916673.196    23916673.725
  20481050.589   -26859469.72744 -20909092.13342  20481052.620    20481049.615
  20861919.806   -27278204.23544 -21205313.44642  20861921.634    20861918.637
 04  5 20  2 57 30.0000000  0  7G16G13G 4G25G27G 1G20
  21318366.231   -22741934.69343 -17532150.09542  21318368.325    21318364.637
  22114528.293   -20377444.36243 -15868970.63842  22114531.073    22114527.607
  24242410.895    -9345395.55643  -7006660.43042  24242413.249    24242412.055
  24657924.153    -3435528.58443  -2255468.23242  24657926.416    24657924.071
  23902209.624    -9174979.96943  -6966634.94842  23902211.973    23902212.525
  20478964.189   -26870433.84944 -20917635.60042  20478966.229    20478963.214
  20873054.271   -27219692.20844 -21159719.70142  20873056.120    20873053.121
 04  5 20  2 58  0.0000000  0  7G16G13G 4G25G27G 1G20
  21318102.571   -22743320.29143 -17533229.76742  21318104.651    21318100.947
  22101168.601   -20447649.90843 -15923676.22842  22101171.395    22101167.931
  24246093.809    -9326041.91143  -6991579.73842  24246096.239    24246094.988
  24674633.246    -3347722.00743  -2187047.55442  24674635.401    24674633.125
  23887779.198    -9250811.79743  -7025724.56742  23887781.512    23887782.117
  20476927.133   -26881138.59744 -20925976.95142  20476929.187    20476926.172
  20884285.372   -27160672.53544 -21113730.38642  20884287.217    20884284.209
 04  5 20  2 58 30.0000000  0  7G16G13G 4G25G27G 1G20
  21317952.734   -22744107.49543 -17533843.15642  21317954.827    21317951.130
  22087834.033   -20517723.45843 -15978278.96542  22087836.846    22087833.329
  24249869.349    -9306201.00243  -6976119.36242  24249871.908    24249870.716
  24691339.134    -3259932.04843  -2118639.82542  24691341.273    24691338.979
  23873379.954    -9326479.57843  -7084686.35842  23873382.267    23873382.923
  20474939.918   -26891581.45744 -20934114.23342  20474941.969    20474938.947
  20895613.087   -27101145.01944 -21067345.34442  20895614.927    20895611.942
 04  5 20  2 59  0.0000000  0  7G16G13G 4G25G27G 1G20
  21317917.108   -22744294.76444 -17533989.06042  21317919.173    21317915.485
  22074525.084   -20587662.37943 -16032776.79642  22074527.910    22074524.363
  24253737.807    -9285872.64443  -6960279.14642  24253740.330    24253739.153
  24708042.072    -3172157.67643  -2050244.22542  24708044.279    24708041.903
  23859012.294    -9401981.39343  -7143518.83142  23859014.657    23859015.303
  20473002.998   -26901760.00144 -20942045.56542  20473005.050    20473002.037
  20907037.478   -27041109.64144 -21020564.57442  20907039.287    20907036.349
 04  5 20  2 59 30.0000000  0  7G16G13G 4G25G27G 1G20
  21317994.062   -22743890.25943 -17533673.83942  21317996.128    21317992.421
  22061240.392   -20657473.99343 -16087175.42742  22061243.224    22061239.614
  24257697.144    -9265066.61043  -6944066.71542  24257699.694    24257698.475
  24724740.251    -3084407.95143  -1981867.81942  24724742.570    24724740.162
  23844674.698    -9477325.26843  -7202228.22142  23844677.110    23844677.771
  20471114.944   -26911681.78544 -20949776.82342  20471116.995    20471113.974
  20918556.590   -26980576.43844 -20973395.88542  20918558.379    20918555.476
 04  5 20  3  0  0.0000000  0  7G16G13G 4G25G27G 1G20
  21318184.802   -22742887.80644 -17532892.68942  21318186.869    21318183.139
  22047981.278   -20727150.77643 -16141468.99342  22047984.114    22047980.501
  24261748.396    -9243777.72943  -6927478.04642  24261750.850    24261749.714
  24741434.827    -2996677.67643  -1913506.57842  24741437.195    24741434.621
  23830368.498    -9552504.53343  -7260809.36642  23830370.929    23830371.455
  20469277.102   -26921339.55944 -20957302.35742  20469279.181    20469276.145
  20930171.377   -26919540.44744 -20925835.41042  20930173.142    20930170.272
 04  5 20  3  0 30.0000000  0  7G16G13G 4G25G27G 1G20
  21318490.186   -22741283.22343 -17531642.35142  21318492.205    21318488.445
  22034748.799   -20796687.71943 -16195653.58342  22034751.643    22034748.026
  24265891.926    -9222003.55243  -6910511.21742  24265894.357    24265893.349
  24758126.290    -2908963.30943  -1845157.72542  24758128.586    24758126.079
  23816094.498    -9627514.50643  -7319258.57342  23816096.904    23816097.422
  20467490.468   -26930728.36544 -20964618.29842  20467492.555    20467489.518
  20941882.262   -26857999.53544 -20877881.48842  20941884.008    20941881.173
 04  5 20  3  1  0.0000000  0  7G16G13G 4G25G27G 1G20
  21318908.732   -22739083.72443 -17529928.43942  21318910.756    21318906.984
  22021541.859   -20866090.76143 -16249733.83342  22021544.651    22021541.034
  24270126.137    -9199752.68343  -6893172.93242  24270128.589    24270127.684
  24774813.181    -2821272.74543  -1776827.42442  24774815.544    24774813.068
  23801851.407    -9702362.15643  -7377581.30842  23801853.727    23801854.250
  20465753.818   -26939854.51544 -20971729.57442  20465755.914    20465752.874
  20953687.622   -26795962.14644 -20829540.70542  20953689.392    20953686.526
 04  5 20  3  1 30.0000000  0  7G16G13G 4G25G27G 1G20
  21319440.793   -22736287.39543 -17527749.46142  21319442.832    21319439.073
  22008360.964   -20935356.91543 -16303707.42342  22008363.767    22008360.075
  24274451.142    -9177024.59643  -6875462.77542  24274453.623    24274452.761
  24791495.788    -2733605.23343  -1708515.11842  24791498.074    24791495.588
  23787639.548    -9777045.28743  -7435775.82642  23787641.913    23787642.400
  20464067.655   -26948715.32144 -20978634.09242  20464069.765    20464066.718
  20965587.496   -26733428.21944 -20780813.01342  20965589.256    20965586.388
 04  5 20  3  2  0.0000000  0  7G16G13G 4G25G27G 1G20
  21320086.338   -22732894.97244 -17525105.99442  21320088.358    21320084.624
  21995206.131   -21004485.73443 -16357573.99242  21995208.976    21995205.245
  24278866.572    -9153821.45843  -6857382.47242  24278869.056    24278868.204
  24808173.823    -2645961.94243  -1640221.64942  24808175.953    24808173.586
  23773458.995    -9851564.11643  -7493842.33342  23773461.290    23773461.814
  20462432.065   -26957310.37344 -20985331.52842  20462434.167    20462431.124
  20977581.377   -26670400.17744 -20731700.29842  20977583.124    20977580.259
 04  5 20  3  2 30.0000000  0  7G16G13G 4G25G27G 1G20
  21320845.891   -22728903.43743 -17521995.68842  21320847.912    21320844.174
  21982078.185   -21073473.26443 -16411330.46642  21982081.018    21982077.329
  24283372.767    -9130141.69743  -6838930.78242  24283375.167    24283374.410
  24824847.640    -2558340.45943  -1571945.17042  24824849.811    24824847.336
  23759310.364    -9925915.31943  -7551778.20742  23759312.612    23759313.165
  20460847.781   -26965635.87444 -20991818.92642  20460849.881    20460846.801
  20989669.528   -26606876.58444 -20682201.42742  20989671.299    20989668.438
 04  5 20  3  3  0.0000000  0  7G16G13G 4G25G27G 1G20
  21321718.879   -22724315.72543 -17518420.83042  21321720.910    21321717.161
  21968976.921   -21142320.75243 -16464977.81742  21968979.730    21968976.053
  24287968.803    -9105989.52943  -6820110.97142  24287971.170    24287970.518
  24841516.616    -2470744.56843  -1503688.61942  24841518.788    24841516.371
  23745193.254   -10000101.18543  -7609585.25842  23745195.432    23745195.963
  20459314.437   -26973693.59844 -20998097.66542  20459316.547    20459313.471
  21001851.166   -26542861.80444 -20632319.80942  21001852.964    21001850.075
 04  5 20  3  3 30.0000000  0  7G16G13G 4G25G27G 1G20
  21322705.652   -22719130.28044 -17514380.20342  21322707.665    21322703.903
  21955902.819   -21211025.41243 -16518513.87742  21955905.654    21955901.941
  24292654.707    -9081364.77343  -6800922.93042  24292657.170    24292656.537
  24858180.874    -2383173.32843  -1435451.29642  24858183.165    24858180.557
  23731107.898   -10074119.59643  -7667261.82342  23731110.134    23731110.600
  20457832.566   -26981480.95344 -21004165.73042  20457834.657    20457831.570
  21014126.300   -26478355.74144 -20582055.37742  21014128.110    21014125.173
 04  5 20  3  4  0.0000000  0  7G16G13G 4G25G27G 1G20
  21323805.114   -22713352.60643 -17509878.10042  21323807.137    21323803.340
  21942855.100   -21279591.61243 -16571942.04742  21942857.910    21942854.174
  24297429.261    -9056274.44643  -6781372.09842  24297431.678    24297431.045
  24874839.307    -2295632.65943  -1367237.76442  24874841.613    24874838.911
  23717053.366   -10147975.92143  -7724812.09142  23717055.686    23717056.125
  20456401.249   -26989002.50944 -21010026.68242  20456403.350    20456400.269
  21026493.505   -26413365.69344 -20531413.81642  21026495.339    21026492.393
 04  5 20  3  4 30.0000000  0  7G16G13G 4G25G27G 1G20
  21325019.332   -22706971.82243 -17504906.04542  21325021.374    21325017.571
  21929835.956   -21348007.38843 -16625252.99842  21929838.792    21929835.048
  24302294.331    -9030709.05043  -6761451.09242  24302296.647    24302296.044
  24891493.828    -2208112.57443  -1299040.31142  24891496.192    24891493.331
  23703031.926   -10221658.52543  -7782226.99042  23703034.279    23703034.677
  20455022.834   -26996246.16144 -21015671.08742  20455024.926    20455021.858
  21038954.627   -26347882.07944 -20480387.64742  21038956.477    21038953.561
 04  5 20  3  5  0.0000000  0  7G16G13G 4G25G27G 1G20
  21326345.873   -22700000.71043 -17499473.98942  21326347.930    21326344.115
  21916843.343   -21416283.76143 -16678455.31642  21916846.199    21916842.453
  24307247.030    -9004682.67243  -6741170.87642  24307249.336    24307248.793
  24908141.949    -2120626.55843  -1230869.40842  24908144.353    24908141.309
  23689041.239   -10295179.70643  -7839516.10142  23689043.581    23689043.971
  20453695.044   -27003223.80244 -21021108.20742  20453697.129    20453694.065
  21051506.904   -26281919.61244 -20428988.35242  21051508.739    21051505.822
 04  5 20  3  5 30.0000000  0  6G16G13G 4G27G 1G20
  21327787.485   -22692424.81744 -17493570.67742  21327789.539    21327785.753
  21903880.264   -21484404.98443 -16731536.74042  21903883.129    21903879.334
  24312289.906    -8978182.21243  -6720521.25242  24312292.240    24312291.746
  23675084.121   -10368524.47543  -7896667.75142  23675086.470    23675086.777
  20452420.878   -27009919.73144 -21026325.80942  20452422.949    20452419.858
  21064152.802   -26215465.12744 -20377205.67142  21064154.629    21064151.725
 04  5 20  3  6  0.0000000  0  6G16G13G 4G27G 1G20
  21329341.243   -22684259.69344 -17487208.22642  21329343.296    21329339.494
  21890944.064   -21552385.06543 -16784508.18042  21890946.915    21890943.127
  24317419.845    -8951224.62743  -6699515.42042  24317422.181    24317421.571
  23661157.723   -10441707.82043  -7953693.62942  23661160.092    23661160.359
  20451197.535   -27016348.34244 -21031335.10642  20451199.619    20451196.513
  21076889.051   -26148535.82944 -20325053.00242  21076890.876    21076887.965
 04  5 20  3  6 30.0000000  0  6G16G13G 4G27G 1G20
  21331007.761   -22675502.03744 -17480384.06242  21331009.822    21331005.975
  21878035.595   -21620219.29043 -16837365.96742  21878038.455    21878034.653
  24322637.061    -8923807.87543  -6678151.80342  24322639.515    24322638.929
  23647262.808   -10514725.73043  -8010590.58542  23647265.174    23647265.403
  20450025.895   -27022505.19044 -21036132.64242  20450028.005    20450024.890
  21089716.033   -26081129.70144 -20272528.78042  21089717.876    21089714.957
 04  5 20  3  7  0.0000000  0  6G16G13G 4G27G 1G20
  21332788.034   -22666146.56144 -17473094.06342  21332790.101    21332786.236
  21865156.130   -21687901.16243 -16890105.03642  21865158.975    21865155.188
  24327942.485    -8895928.13143  -6656427.40042  24327944.968    24327944.379
  23633400.430   -10587572.58243  -8067354.25242  23633402.777    23633402.968
  20448907.189   -27028383.94244 -21040713.48242  20448909.307    20448906.184
  21102634.416   -26013243.47144 -20219630.46542  21102636.236    21102633.322
 04  5 20  3  7 30.0000000  0  6G16G13G 4G27G 1G20
  21334681.071   -22656198.57444 -17465342.36842  21334683.120    21334679.244
  21852304.991   -21755434.14543 -16942728.08942  21852307.829    21852304.062
  24333334.800    -8867592.00443  -6634347.39042  24333337.233    24333336.653
  23619569.776   -10660252.70843  -8123987.99942  23619572.107    23619572.263
  20447840.664   -27033988.48044 -21045080.64842  20447842.765    20447839.651
  21115642.926   -25944883.52844 -20166363.02342  21115644.729    21115641.847
 04  5 20  3  8  0.0000000  0  6G16G13G 4G27G 1G20
  21336686.902   -22645657.82343 -17457128.77842  21336688.938    21336685.060
  21839482.483   -21822816.65143 -16995233.88742  21839485.322    21839481.560
  24338813.715    -8838800.35243  -6611912.39942  24338816.276    24338815.620
  23605771.027   -10732765.35443  -8180491.24642  23605773.352    23605773.435
  20446826.612   -27039317.36044 -21049233.01942  20446828.698    20446825.586
  21128741.252   -25876051.39144 -20112727.63342  21128743.093    21128740.207
 04  5 20  3  8 30.0000000  0  6G16G13G 4G27G 1G20
  21338806.173   -22634520.82643 -17448450.58542  21338808.225    21338804.345
  21826689.611   -21890043.55843 -17047618.43942  21826692.454    21826688.671
  24344379.681    -8809551.15243  -6589120.89042  24344382.245    24344381.667
  23592004.935   -10805106.31343  -8236860.72642  23592007.246    23592007.264
  20445865.912   -27044365.81544 -21053166.88142  20445868.001    20445864.887
  21141929.884   -25806744.74544 -20058722.49442  21141931.707    21141928.864
 04  5 20  3  9  0.0000000  0  6G16G13G 4G27G 1G20
  21341037.906   -22622792.85943 -17439311.89542  21341039.950    21341036.071
  21813925.667   -21957118.35943 -17099884.47042  21813928.524    21813924.721
  24350031.456    -8779851.01943  -6565978.00242  24350034.051    24350033.503
  23578270.614   -10877280.25543  -8293100.06542  23578272.869    23578272.936
  20444957.806   -27049137.93144 -21056885.41642  20444959.898    20444956.773
  21155207.514   -25736970.57644 -20004353.06042  21155209.318    21155206.482
 04  5 20  3  9 30.0000000  0  6G16G13G 4G27G 1G20
  21343382.329   -22610472.70844 -17429711.76442  21343384.385    21343380.489
  21801191.179   -22024038.23243 -17152029.76842  21801194.053    21801190.253
  24355769.060    -8749700.03343  -6542483.80542  24355771.638    24355771.076
  23564568.412   -10949285.23443  -8349207.73442  23564570.676    23564570.723
  20444102.776   -27053631.12744 -21060386.60642  20444104.873    20444101.757
  21168574.053   -25666729.16944 -19949619.54842  21168575.854    21168573.014
 04  5 20  3 10  0.0000000  0  6G16G13G 4G27G 1G20
  21345839.525   -22597560.14144 -17419650.00642  21345841.559    21345837.661
  21788486.536   -22090801.29943 -17204052.88742  21788489.432    21788485.637
  24361592.231    -8719099.42643  -6518639.22142  24361594.798    24361594.292
  23550898.588   -11021120.30743  -8405183.01842  23550900.850    23550900.865
  20443301.164   -27057843.74844 -21063669.17142  20443303.234    20443300.124
  21182029.292   -25596021.49644 -19894522.69242  21182031.112    21182028.282
 04  5 20  3 10 30.0000000  0  6G16G13G 4G27G 1G20
  21348408.962   -22584057.58944 -17409128.52042  21348411.006    21348407.103
  21775811.607   -22157408.46843 -17255954.53142  21775814.480    21775810.675
  24367500.260    -8688052.81643  -6494447.13442  24367502.779    24367502.307
  23537260.721   -11092787.27443  -8461027.31442  23537262.996    23537262.972
  20442552.721   -27061776.82044 -21066733.90042  20442554.797    20442551.698
  21195572.488   -25524851.61644 -19839065.67442  21195574.307    21195571.497
 04  5 20  3 11  0.0000000  0  6G16G13G 4G27G 1G20
  21351091.597   -22569960.23043 -17398143.55342  21351093.651    21351089.738
  21763167.640   -22223852.72643 -17307729.23342  21763170.509    21763166.691
  24373493.790    -8656556.62243  -6469904.70542  24373496.368    24373495.908
  23523655.962   -11164280.35443  -8516736.11242  23523658.202    23523658.195
  20441858.693   -27065424.07444 -21069575.92142  20441860.773    20441857.647
  21209204.306   -25453216.15144 -19783245.87442  21209206.103    21209203.310
 04  5 20  3 11 30.0000000  0  6G16G13G 4G27G 1G20
  21353885.638   -22555277.29543 -17386702.29042  21353887.690    21353883.814
  21750553.188   -22290141.84343 -17359383.04342  21750556.060    21750552.225
  24379570.971    -8624621.17643  -6445020.01442  24379573.547    24379573.052
  23510082.697   -11235607.89043  -8572315.92742  23510084.944    23510084.914
  20441217.527   -27068793.35544 -21072201.33942  20441219.611    20441216.502
  21222922.649   -25381125.85944 -19727071.66442  21222924.486    21222921.681
 04  5 20  3 12  0.0000000  0  6G16G13G 4G27G 1G20
  21356792.136   -22540003.54143 -17374800.64342  21356794.169    21356790.300
  21737969.625   -22356268.67143 -17410910.39642  21737972.491    21737968.681
  24385732.393    -8592242.91843  -6419790.24442  24385734.921    24385734.501
  23496542.070   -11306764.06043  -8627762.22042  23496544.305    23496544.252
  20440630.514   -27071878.02944 -21074604.98142  20440632.602    20440629.508
  21236728.309   -25308576.88144 -19670540.03542  21236730.111    21236727.332
 04  5 20  3 12 30.0000000  0  6G16G13G 4G27G 1G20
  21359811.303   -22524137.64643 -17362437.59542  21359813.342    21359809.458
  21725417.532   -22422230.13943 -17462308.89942  21725420.393    21725416.591
  24391978.133    -8559421.37143  -6394215.06942  24391980.686    24391980.328
  23483034.480   -11377746.61443  -8683073.21442  23483036.709    23483036.610
  20440098.257   -27074675.20144 -21076784.59942  20440100.317    20440097.215
  21250621.229   -25235569.20444 -19613650.98042  21250623.034    21250620.272
 04  5 20  3 13  0.0000000  0  6G16G13G 4G27G 1G20
  21362941.773   -22507686.81043 -17349618.74742  21362943.810    21362939.952
  21712895.912   -22488031.63543 -17513582.75142  21712898.781    21712894.929
  24398306.567    -8526165.40743  -6368301.38142  24398309.162    24398308.809
  23469558.706   -11448562.09443  -8738254.02242  23469560.908    23469560.732
  20439619.564   -27077190.72944 -21078744.75842  20439621.638    20439618.542
  21264599.746   -25162111.75644 -19556411.45842  21264601.531    21264598.806
 04  5 20  3 13 30.0000000  0  6G16G13G 4G27G 1G20
  21366183.944   -22490649.02343 -17336342.53342  21366185.978    21366182.119
  21700405.530   -22553668.99943 -17564728.71442  21700408.395    21700404.502
  24404717.929    -8492473.87343  -6342048.30142  24404720.522    24404720.118
  23456115.328   -11519207.36143  -8793302.20542  23456117.525    23456117.257
  20439195.178   -27079420.94344 -21080482.58942  20439197.253    20439194.146
  21278664.033   -25088203.55944 -19498820.68642  21278665.816    21278663.130
 04  5 20  3 14  0.0000000  0  6G16G13G 4G27G 1G20
  21369538.350   -22473021.43344 -17322606.73542  21369540.393    21369536.527
  21687947.229   -22619137.81243 -17615743.33742  21687950.077    21687946.149
  24411212.415    -8458345.42043  -6315454.76242  24411215.022    24411214.596
  23442705.058   -11589678.73343  -8848214.89142  23442707.210    23442706.893
  20438825.896   -27081361.50244 -21081994.72342  20438827.979    20438824.860
  21292814.349   -25013843.34144 -19440877.70342  21292816.139    21292813.480
 04  5 20  3 14 30.0000000  0  6G16G13G 4G27G 1G20
  21373004.000   -22454809.10643 -17308415.29342  21373006.068    21373002.199
  21675520.508   -22684440.65043 -17666628.63142  21675523.353    21675519.389
  24417788.887    -8423786.13743  -6288525.50542  24417791.458    24417791.050
  23429327.019   -11659980.31143  -8902995.25942  23429329.235    23429328.855
  20438511.126   -27083015.57444 -21083283.61242  20438513.220    20438510.118
  21307049.527   -24939037.27144 -19382587.30042  21307051.305    21307048.667
 04  5 20  3 15  0.0000000  0  6G16G13G 4G27G 1G20
  21376580.814   -22436012.62643 -17293768.66942  21376582.879    21376579.029
  21663125.534   -22749576.40843 -17717383.73442  21663128.379    21663124.417
  24424446.973    -8388798.24943  -6261262.27442  24424449.519    24424449.026
  23415981.336   -11730111.98343  -8957643.23942  23415983.562    23415983.120
  20438251.013   -27084382.41444 -21084348.68442  20438253.104    20438250.008
  21321369.106   -24863787.38444 -19323951.06742  21321370.906    21321368.279
 04  5 20  3 15 30.0000000  0  6G16G13G 4G27G 1G20
  21380269.260   -22416629.55743 -17278664.96442  21380271.311    21380267.488
  21650763.218   -22814540.53343 -17768005.09442  21650766.064    21650762.124
  24431186.902    -8353380.10943  -6233663.80242  24431189.415    24431188.961
  23402668.638   -11800070.30543  -9012156.14642  23402670.834    23402670.454
  20438046.344   -27085458.01544 -21085186.81842  20438048.426    20438045.316
  21335773.302   -24788092.94744 -19264968.43342  21335775.097    21335772.497
 04  5 20  3 16  0.0000000  0  6G16G13G 4G27G 1G20
  21384068.546   -22396664.16043 -17263107.49742  21384070.575    21384066.749
  21638433.061   -22879335.77443 -17818494.86342  21638435.881    21638431.969
  24438007.662    -8317537.32243  -6205734.43642  24438010.147    24438009.695
  23389388.309   -11869858.58143  -9066536.54642  23389390.501    23389390.119
  20437896.611   -27086244.98444 -21085800.04942  20437898.675    20437895.544
  21350261.034   -24711959.53744 -19205643.74142  21350262.831    21350260.247
 04  5 20  3 16 30.0000000  0  6G16G13G 4G27G 1G20
  21387978.629   -22376116.53243 -17247096.34242  21387980.647    21387976.804
  21626135.602   -22943959.14343 -17868850.70642  21626138.421    21626134.532
  24444909.008    -8281270.92943  -6177474.98142  24444911.477    24444911.037
  23376140.528   -11939475.68643  -9120783.55342  23376142.695    23376142.382
  20437802.142   -27086741.60744 -21086187.02942  20437804.196    20437801.052
  21364832.092   -24635388.19944 -19145977.80642  21364833.897    21364831.320
 04  5 20  3 17  0.0000000  0  6G16G13G 4G27G 1G20
  21392000.105   -22354983.47343 -17230629.01142  21392002.136    21391998.264
  21613871.790   -23008405.71043 -17919068.78042  21613874.585    21613870.748
  24451891.213    -8244579.30543  -6148884.17342  24451893.695    24451893.353
  23362926.163   -12008917.54843  -9174894.02842  23362928.266    23362927.953
  20437763.815   -27086943.01044 -21086343.96542  20437765.893    20437762.726
  21379486.834   -24558377.21743 -19085969.30942  21379488.612    21379486.072
 04  5 20  3 17 30.0000000  0  6G16G13G 4G27G 1G20
  21396131.800   -22333271.06843 -17213710.23642  21396133.831    21396129.978
  21601640.804   -23072679.80043 -17969152.45342  21601643.595    21601639.760
  24458953.058    -8207469.62243  -6119967.63442  24458955.533    24458955.119
  23349744.040   -12078189.45143  -9228872.04742  23349746.190    23349745.878
  20437780.806   -27086853.78744 -21086274.43542  20437782.880    20437779.710
  21394223.771   -24480934.26744 -19025624.19942  21394225.557    21394222.996
 04  5 20  3 18  0.0000000  0  6G16G13G 4G27G 1G20
  21400373.927   -22310978.40443 -17196339.31342  21400375.956    21400372.111
  21589443.305   -23136778.03543 -18019099.10042  21589446.069    21589442.232
  24466094.335    -8169942.04843  -6090725.45742  24466096.839    24466096.477
  23336594.717   -12147289.31943  -9282716.02442  23336596.873    23336596.527
  20437853.615   -27086471.07244 -21085976.21542  20437855.698    20437852.553
  21409042.873   -24403059.51143 -18964942.62142  21409044.664    21409042.110
 04  5 20  3 18 30.0000000  0  6G16G13G 4G27G 1G20
  21404726.476   -22288105.46843 -17178516.22842  21404728.505    21404724.675
  21577279.704   -23200698.25243 -18068907.03542  21577282.463    21577278.571
  24473314.882    -8131998.03343  -6061158.78342  24473317.379    24473317.057
  23323478.344   -12216216.06443  -9336425.09642  23323480.495    23323480.151
  20437982.574   -27085793.36844 -21085448.13542  20437984.678    20437981.502
  21423943.882   -24324754.34143 -18903925.65442  21423945.677    21423943.125
 04  5 20  3 19  0.0000000  0  6G16G13G 4G27G 1G20
  21409189.085   -22264654.16243 -17160242.46642  21409191.146    21409187.280
  21565150.012   -23264440.21543 -18118576.07342  21565152.770    21565148.841
  24480614.162    -8093640.44343  -6031269.85342  24480616.646    24480616.383
  23310394.716   -12284970.60743  -9389999.98142  23310396.878    23310396.550
  20438167.691   -27084820.66144 -21084690.17342  20438169.781    20438166.604
  21438926.163   -24246021.94443 -18842575.78242  21438927.974    21438925.450
 04  5 20  3 19 30.0000000  0  6G16G13G 4G27G 1G20
  21413761.497   -22240625.89343 -17141519.11842  21413763.556    21413759.686
  21553054.453   -23328002.79144 -18168105.32642  21553057.204    21553053.244
  24487991.599    -8054871.79043  -6001060.60142  24487994.060    24487993.928
  23297343.890   -12353553.08543  -9443440.79242  23297346.041    23297345.684
  20438409.004   -27083552.49444 -21083701.99242  20438411.089    20438407.931
  21453989.305   -24166864.85443 -18780894.95942  21453991.111    21453988.596
 04  5 20  3 20  0.0000000  0  6G16G13G 4G27G 1G20
  21418443.195   -22216023.26643 -17122348.21742  21418445.261    21418441.386
  21540992.897   -23391386.63944 -18217495.31542  21540995.653    21540991.664
  24495446.659    -8015695.68443  -5970533.85442  24495449.123    24495448.928
  23284325.424   -12421965.18343  -9496748.82942  23284327.596    23284327.246
  20438706.368   -27081989.73244 -21082484.25342  20438708.462    20438705.318
  21469132.498   -24087287.04443 -18718886.29942  21469134.313    21469131.782
 04  5 20  3 20 30.0000000  0  6G16G13G 4G27G 1G20
  21423235.125   -22190841.41943 -17102725.97742  21423237.213    21423233.326
  21528966.737   -23454584.38044 -18266740.28242  21528969.496    21528965.512
  24502979.975    -7976108.45643  -5939686.73542  24502982.468    24502982.168
  23271340.613   -12490200.68243  -9549919.25842  23271342.758    23271342.387
  20439061.118   -27080125.42644 -21081031.54342  20439063.220    20439060.080
  21484356.490   -24007284.66043 -18656546.82142  21484358.300    21484355.766
 04  5 20  3 21  0.0000000  0  6G16G13G 4G27G 1G20
  21428135.299   -22165090.98443 -17082660.68342  21428137.365    21428133.459
  21516974.381   -23517604.37544 -18315846.74842  21516977.161    21516973.200
  24510589.168    -7936121.96043  -5908528.51242  24510591.617    24510591.427
  23258387.456   -12558269.39843  -9602959.73442  23258389.670    23258389.263
  20439471.556   -27077968.63744 -21079350.93042  20439473.638    20439470.516
  21499658.944   -23926870.10143 -18593886.17642  21499660.740    21499658.176
 04  5 20  3 21 30.0000000  0  6G16G13G 4G27G 1G20
  21433145.958   -22138759.63643 -17062142.73342  21433148.043    21433144.140
  21505018.699   -23580431.73744 -18364803.11142  21505021.478    21505017.548
  24518276.460    -7895725.15943  -5877050.56142  24518278.894    24518278.699
  23245468.682   -12626157.65543  -9655859.57442  23245470.887    23245470.483
  20439940.376   -27075504.94144 -21077431.16442  20439942.473    20439939.341
  21515041.930   -23846032.03243 -18530895.51642  21515043.772    21515041.177
 04  5 20  3 22  0.0000000  0  6G16G13G 4G27G 1G20
  21438265.111   -22111858.33943 -17041180.66842  21438267.176    21438263.271
  21493098.007   -23643075.12643 -18413616.11042  21493100.794    21493096.905
  24526039.585    -7854929.76743  -5845262.04642  24526042.027    24526041.887
  23232582.347   -12693875.18843  -9708626.37142  23232584.618    23232584.151
  20440465.858   -27072743.41344 -21075279.31642  20440467.964    20440464.841
  21530503.221   -23764782.54643 -18467584.27942  21530505.048    21530502.481
 04  5 20  3 22 30.0000000  0  6G16G13G 4G27G 1G20
  21443492.130   -22084390.15443 -17019776.86742  21443494.178    21443490.277
  21481212.165   -23705535.42344 -18462286.44442  21481214.952    21481211.102
  24533877.742    -7813740.19043  -5813166.35942  24533880.123    24533880.034
  23219728.160   -12761423.99043  -9761261.70042  23219730.457    23219729.938
  20441047.794   -27069685.24844 -21072896.31842  20441049.902    20441046.801
  21546041.979   -23683125.96943 -18403955.81042  21546043.818    21546041.253
 04  5 20  3 23  0.0000000  0  6G16G13G 4G27G 1G20
  21448828.493   -22056347.38743 -16997925.34242  21448830.524    21448826.628
  21469363.258   -23767801.87343 -18510805.72442  21469366.036    21469362.175
  24541792.147    -7772149.87443  -5780758.41342  24541794.524    24541794.488
  23206907.782   -12828795.07143  -9813758.55142  23206910.095    23206909.508
  20441688.034   -27066320.77944 -21070274.64142  20441690.137    20441687.056
  21561659.414   -23601055.95843 -18340005.19042  21561661.256    21561658.697
 04  5 20  3 23 30.0000000  0  6G16G13G 4G27G 1G20
  21454272.861   -22027736.89043 -16975631.42842  21454274.912    21454270.995
  21457550.312   -23829879.29044 -18559177.70642  21457553.077    21457549.204
  24549781.320    -7730166.67543  -5748044.30742  24549783.758    24549783.721
  23194120.229   -12895994.03443  -9866121.27142  23194122.548    23194121.866
  20442385.591   -27062655.05544 -21067418.21942  20442387.698    20442384.625
  21577353.997   -23518580.45243 -18275738.59942  21577355.817    21577353.315
 04  5 20  3 24  0.0000000  0  6G16G13G 4G27G 1G20
  21459825.339   -21998558.45543 -16952894.96742  21459827.404    21459823.443
  21445773.827   -23891764.96444 -18607400.27942  21445776.614    21445772.715
  24557845.054    -7687791.49643  -5715024.77742  24557847.508    24557847.535
  23181365.591   -12963019.56143  -9918348.86342  23181367.952    23181367.242
  20443140.909   -27058685.82344 -21064325.29742  20443143.036    20443139.918
  21593125.555   -23435700.40943 -18211156.78842  21593127.376    21593124.900
 04  5 20  3 24 30.0000000  0  6G16G13G 4G27G 1G20
  21465485.768   -21968812.70043 -16929716.44742  21465487.826    21465483.831
  21434034.289   -23953456.62944 -18655471.67142  21434037.070    21434033.118
  24565983.150    -7645026.06843  -5681701.16442  24565985.437    24565985.561
  23168644.064   -13029870.92543  -9970440.73642  23168646.423    23168645.728
  20443954.245   -27054411.66244 -21060994.76942  20443956.394    20443953.259
  21608973.737   -23352417.71543 -18146261.23442  21608975.549    21608973.109
 04  5 20  3 25  0.0000000  0  6G16G13G 4G27G 1G20
  21471253.417   -21938503.55843 -16906098.92642  21471255.475    21471251.459
  21422331.309   -24014956.18444 -18703393.36442  21422334.094    21422330.109
  24574194.511    -7601875.10843  -5648077.11242  24574196.746    24574197.049
  23155955.251   -13096550.72343 -10022398.92342  23155957.545    23155956.895
  20444825.219   -27049834.59044 -21057428.21142  20444827.354    20444824.225
  21624897.570   -23268737.56443 -18081055.97442  21624899.370    21624896.955
 04  5 20  3 25 30.0000000  0  6G16G13G 4G27G 1G20
  21477128.392   -21907630.33143 -16882041.85442  21477130.473    21477126.424
  21410665.546   -24076260.07344 -18751162.58842  21410668.337    21410664.331
  24582479.119    -7558339.41343  -5614153.27842  24582481.357    24582481.697
  23143299.426   -13163057.14643 -10074222.02442  23143301.704    23143301.039
  20445754.376   -27044951.77844 -21053623.41642  20445756.505    20445753.388
  21640896.958   -23184660.46443 -18015541.40042  21640898.755    21640896.341
 04  5 20  3 26  0.0000000  0  6G16G13G 4G27G 1G20
  21483110.455   -21876194.30343 -16857546.24042  21483112.494    21483108.484
  21399037.288   -24137366.86144 -18798778.22642  21399040.088    21399036.078
  24590836.606    -7514421.23843  -5579931.41642  24590838.885    24590838.990
  23130676.598   -13229390.05643 -10125909.90842  23130678.849    23130678.209
  20446741.870   -27039762.44244 -21049579.77342  20446743.982    20446740.902
  21656971.469   -23100188.69443 -17949719.29742  21656973.260    21656970.824
 04  5 20  3 26 30.0000000  0  6G16G13G 4G27G 1G20
  21489199.616   -21844195.43443 -16832612.05542  21489201.666    21489197.636
  21387447.044   -24198273.84744 -18846238.18042  21387449.867    21387445.813
  24599266.626    -7470121.43443  -5545412.16542  24599269.050    24599268.978
  23118087.088   -13295547.96043 -10177461.40842  23118089.337    23118088.690
  20447788.103   -27034264.32544 -21045295.51442  20447790.236    20447787.157
  21673120.849   -23015323.37243 -17883590.52642  21673122.643    21673120.195
 04  5 20  3 27  0.0000000  0  6G16G13G 4G27G 1G20
  21495395.381   -21811636.34443 -16807241.32942  21495397.442    21495393.418
  21375894.814   -24258981.14144 -18893542.52742  21375897.641    21375893.543
  24607768.562    -7425443.62643  -5510598.36142  24607770.920    24607771.004
  23105530.647   -13361532.27443 -10228877.65842  23105532.892    23105532.217
  20448892.980   -27028458.19344 -21040771.23742  20448895.101    20448892.035
  21689344.390   -22930068.20943 -17817157.96842  21689346.217    21689343.760
 04  5 20  3 27 30.0000000  0  6G16G13G 4G27G 1G20
  21501697.281   -21778519.61743 -16781436.08142  21501699.345    21501695.311
  21364380.644   -24319488.53644 -18940691.11042  21364383.438    21364379.330
  24616341.720    -7380391.24843  -5475492.66742  24616344.100    24616344.191
  23093007.006   -13427344.06943 -10280159.48242  23093009.260    23093008.564
  20450056.420   -27022344.17344 -21036007.05142  20450058.559    20450055.475
  21705641.445   -22844426.79543 -17750424.43042  21705643.309    21705640.810
 04  5 20  3 28  0.0000000  0  6G16G13G 4G27G 1G20
  21508105.662   -21744843.25643 -16755194.75042  21508107.730    21508103.701
  21352905.325   -24379791.48644 -18987680.38542  21352908.136    21352904.024
  24624986.295    -7334963.71643  -5440094.67542  24624988.764    24624988.762
  23080516.765   -13492980.35143 -10331304.54942  23080519.004    23080518.313
  20451279.141   -27015918.63644 -21031000.12342  20451281.265    20451278.184
  21722012.105   -22758398.59343 -17683389.52142  21722013.969    21722011.465
 04  5 20  3 28 30.0000000  0  6G16G13G 4G27G 1G20
  21514619.493   -21710612.84843 -16728521.69642  21514621.548    21514617.551
  21341468.535   -24439891.92844 -19034511.85942  21341471.358    21341467.268
  24633701.117    -7289167.33043  -5404409.24142  24633703.539    24633703.550
  23068059.212   -13558444.88443 -10382315.77742  23068061.449    23068060.750
  20452560.558   -27009184.67344 -21025752.86742  20452562.671    20452559.600
  21738455.179   -22671989.88743 -17616058.11642  21738457.026    21738454.553
 04  5 20  3 29  0.0000000  0  6G16G13G 4G27G 1G20
  21521239.090   -21675826.57243 -16701415.50342  21521241.158    21521237.161
  21330071.056   -24499786.01444 -19081182.53442  21330073.879    21330069.761
  24642486.236    -7243001.44443  -5368435.87342  24642488.646    24642488.830
  23055634.882   -13623734.69343 -10433190.85342  23055637.160    23055636.409
  20453901.416   -27002138.38444 -21020262.23842  20453903.527    20453900.452
  21754970.742   -22585200.23043 -17548429.86242  21754972.575    21754970.141
 04  5 20  3 29 30.0000000  0  6G16G13G 4G27G 1G20
  21527963.608   -21640489.04943 -16673879.76442  21527965.681    21527961.637
  21318712.416   -24559475.80044 -19127694.01442  21318715.232    21318711.121
  24651340.658    -7196471.65343  -5332178.96042  24651343.048    24651343.039
  23043243.245   -13688852.79843 -10483932.13742  23043245.545    23043244.749
  20455301.269   -26994782.10944 -21014530.05942  20455303.381    20455300.287
  21771557.751   -22498035.19843 -17480509.09542  21771559.583    21771557.142
 04  5 20  3 30  0.0000000  0  7G16G 3G13G 4G27G 1G20
  21534792.594   -21604602.51843 -16645916.23242  21534794.638    21534790.624
  24577482.421    -4679644.66153  -3503444.66452  24577484.676    24577485.663
  21307392.866   -24618960.15544 -19174045.42042  21307395.687    21307391.581
  24660263.791    -7149581.02343  -5295640.88642  24660266.079    24660266.089
  23030884.161   -13753799.99643 -10534540.23042  23030886.464    23030885.595
  20456760.109   -26987115.79444 -21008556.29042  20456762.238    20456759.112
  21788215.563   -22410497.87843 -17412298.23142  21788217.423    21788214.968
 04  5 20  3 30 30.0000000  0  7G16G 3G13G 4G27G 1G20
  21541724.832   -21568173.15743 -16617529.71542  21541726.879    21541722.910
  24562694.260    -4757356.34243  -3563999.06342  24562696.429    24562697.419
  21296111.781   -24678242.57044 -19220239.47242  21296114.596    21296110.483
  24669254.105    -7102336.79243  -5258827.25342  24669256.417    24669256.448
  23018556.692   -13818581.12243 -10585018.93142  23018558.966    23018558.052
  20458277.160   -26979143.51044 -21002344.10742  20458279.280    20458276.169
  21804942.798   -22322595.83843 -17343803.16942  21804944.656    21804942.222
 04  5 20  3 31  0.0000000  0  7G16G 3G13G 4G27G 1G20
  21548764.372   -21531180.03043 -16588703.88942  21548766.404    21548762.474
  24547929.212    -4834946.81843  -3624459.01442  24547931.413    24547932.268
  21284873.655   -24737299.24744 -19266257.62042  21284876.452    21284872.339
  24678315.473    -7054719.13043  -5221722.64842  24678317.780    24678317.865
  23006265.058   -13883173.76843 -10635350.77442  23006267.368    23006266.365
  20459856.808   -26970842.11144 -20995875.47242  20459858.953    20459855.842
  21821743.259   -22234309.10543 -17275008.33842  21821745.096    21821742.669
 04  5 20  3 31 30.0000000  0  7G16G 3G13G 4G27G 1G20
  21555907.590   -21493642.01643 -16559453.48042  21555909.624    21555905.699
  24533184.493    -4912430.46443  -3684835.74242  24533186.765    24533187.462
  21273675.411   -24796146.39544 -19312112.49642  21273678.218    21273674.060
  24687444.217    -7006747.84243  -5184342.50642  24687446.556    24687446.559
  22994006.051   -13947595.17543 -10685549.18642  22994008.317    22994007.272
  20461495.968   -26962228.24544 -20989163.35442  20461498.087    20461494.982
  21838613.084   -22145657.70143 -17205929.35942  21838614.945    21838612.505
 04  5 20  3 32  0.0000000  0  7G16G 3G13G 4G27G 1G20
  21563154.546   -21455559.12143 -16529778.49542  21563156.542    21563152.637
  24518460.932    -4989802.83743  -3745125.75442  24518463.246    24518463.956
  21262517.643   -24854780.77344 -19357801.58142  21262520.469    21262516.272
  24696640.124    -6958423.64443  -5146687.34842  24696642.526    24696642.443
  22981779.841   -14011843.93743 -10735613.05742  22981782.109    22981781.047
  20463195.039   -26953299.48944 -20982205.87242  20463197.164    20463194.048
  21855552.103   -22056642.50343 -17136566.89742  21855553.998    21855551.566
 04  5 20  3 32 30.0000000  0  7G16G 3G13G 4G27G 1G20
  21570505.894   -21416927.59943 -16499676.00042  21570507.881    21570503.956
  24503760.025    -5067055.44343  -3805322.42842  24503762.412    24503763.128
  21251401.635   -24913195.64744 -19403319.62842  21251404.450    21251400.241
  24705903.643    -6909743.94143  -5108755.18142  24705906.031    24705906.043
  22969587.481   -14075914.80343 -10785538.31542  22969589.758    22969588.633
  20464955.178   -26944049.92644 -20974998.40942  20464957.299    20464954.160
  21872560.880   -21967260.92743 -17066918.96342  21872562.770    21872560.336
 04  5 20  3 33  0.0000000  0  7G16G 3G13G 4G27G 1G20
  21577960.685   -21377752.47443 -16469149.92442  21577962.672    21577958.720
  24489081.856    -5144188.96943  -3865426.30942  24489084.219    24489084.929
  21240326.966   -24971393.26344 -19448668.37942  21240329.773    21240325.551
  24715233.648    -6860714.82743  -5070550.75442  24715236.086    24715236.019
  22957428.326   -14139811.14943 -10835327.57842  22957430.605    22957429.469
  20466775.829   -26934482.24544 -20967543.05742  20466777.963    20466774.805
  21889638.272   -21877518.94143 -16996990.19442  21889640.136    21889637.726
 04  5 20  3 33 30.0000000  0  7G16G 3G13G 4G27G 1G20
  21585517.901   -21338038.93043 -16438204.30142  21585519.909    21585515.935
  24474426.213    -5221203.88643  -3925437.79242  24474428.621    24474429.356
  21229293.228   -25029375.72644 -19493849.47842  21229296.046    21229291.815
  24724629.031    -6811342.10343  -5032078.58742  24724631.602    24724631.465
  22945301.682   -14203536.79343 -10884983.82842  22945303.941    22945302.829
  20468656.486   -26924599.29444 -20959842.04242  20468658.618    20468655.450
  21906783.022   -21787422.71443 -16926785.38842  21906784.931    21906782.516
 04  5 20  3 34  0.0000000  0  7G16G 3G13G 4G27G 1G20
  21593178.080   -21297784.39043 -16406837.12842  21593180.106    21593176.091
  24459794.515    -5298092.80243  -3985351.08142  24459797.071    24459797.708
  21218301.575   -25087137.06344 -19538858.27342  21218304.401    21218300.168
  24734090.097    -6761624.23043  -4993337.47442  24734092.584    24734092.485
  22933208.329   -14267087.42543 -10934503.69642  22933210.561    22933209.444
  20470598.086   -26914396.05444 -20951891.45142  20470600.220    20470597.064
  21923995.532   -21696970.72743 -16856303.37342  21923997.416    21923995.018
 04  5 20  3 34 30.0000000  0  7G16G 3G13G 4G27G 1G20
  21600940.822   -21256990.86643 -16375049.95742  21600942.845    21600938.829
  24445187.453    -5374853.16943  -4045164.19542  24445190.000    24445190.547
  21207352.103   -25144676.57944 -19583694.21642  21207354.935    21207350.705
  24743616.339    -6711564.04943  -4954329.62042  24743618.852    24743618.769
  22921148.162   -14330463.40643 -10983887.46742  22921150.446    22921149.266
  20472600.699   -26903872.16044 -20943691.00242  20472602.836    20472599.674
  21941275.122   -21606165.93143 -16785546.43742  21941277.012    21941274.656
 04  5 20  3 35  0.0000000  0  7G16G 3G13G 4G27G 1G20
  21608805.346   -21215662.57043 -16342846.08042  21608807.371    21608803.339
  24430604.902    -5451484.59843  -4104876.86042  24430607.412    24430607.897
  21196444.615   -25201995.48144 -19628358.24942  21196447.437    21196443.241
  24753206.654    -6661166.84643  -4915059.16242  24753209.213    24753209.189
  22909120.727   -14393667.45543 -11033137.27142  22909123.014    22909121.846
  20474664.008   -26893029.45444 -20935242.13542  20474666.124    20474662.966
  21958620.914   -21515013.46043 -16714518.58742  21958622.791    21958620.439
 04  5 20  3 35 30.0000000  0  7G16G 3G13G 4G27G 1G20
  21616772.435   -21173795.30244 -16310222.22242  21616774.450    21616770.430
  24416048.570    -5527978.50443  -4164482.36342  24416051.101    24416051.425
  21185580.469   -25259086.65944 -19672844.83842  21185583.281    21185579.116
  24762861.769    -6610429.37843  -4875523.55742  24762864.337    24762864.371
  22897127.110   -14456693.88043 -11082248.67142  22897129.366    22897128.161
  20476789.160   -26881861.71844 -20926539.99142  20476791.284    20476788.115
  21976033.430   -21423510.25343 -16643217.43542  21976035.307    21976032.979
 04  5 20  3 36  0.0000000  0  7G16G 3G13G 4G27G 1G20
  21624840.181   -21131398.86943 -16277186.02742  21624842.212    21624838.204
  24401517.447    -5604339.64143  -4223984.40442  24401519.963    24401520.367
  21174758.494   -25315956.36344 -19717158.85142  21174761.281    21174757.130
  24772579.668    -6559362.01443  -4835730.90042  24772582.231    24772582.210
  22885165.759   -14519550.76243 -11131227.94042  22885168.044    22885166.725
  20478974.827   -26870375.94344 -20917590.02742  20478976.944    20478973.774
  21993510.709   -21331666.68343 -16571651.05842  21993512.582    21993510.259
 04  5 20  3 36 30.0000000  0  7G16G 3G13G 4G27G 1G20
  21633009.714   -21088467.56443 -16243733.05442  21633011.740    21633007.751
  24387013.459    -5680557.60843  -4283374.88642  24387016.003    24387016.379
  21163980.327   -25372595.81544 -19761293.44542  21163983.108    21163978.962
  24782361.189    -6507960.13643  -4795677.57342  24782363.675    24782363.829
  22873238.070   -14582230.75843 -11180069.37442  22873240.332    22873238.968
  20481222.490   -26858564.37044 -20908386.19542  20481224.599    20481221.456
  22011053.568   -21239478.37643 -16499816.05242  22011055.442    22011053.175
 04  5 20  3 37  0.0000000  0  7G16G 3G13G 4G27G 1G20
  21641280.021   -21045006.75843 -16209867.48442  21641282.037    21641278.033
  24372536.738    -5756632.92943  -4342654.22642  24372539.100    24372539.607
  21153245.579   -25429007.23944 -19805250.36442  21153248.330    21153244.166
  24792205.130    -6456230.05543  -4755368.49542  24792207.544    24792207.895
  22861343.381   -14644737.42043 -11228775.75242  22861345.617    22861344.226
  20483531.634   -26846429.77844 -20898930.66742  20483533.733    20483530.581
  22028660.886   -21146951.44443 -16427717.18542  22028662.745    22028660.516
 04  5 20  3 37 30.0000000  0  7G16G 3G13G 4G27G 1G20
  21649650.626   -21001018.85543 -16175591.18342  21649652.631    21649648.608
  24358087.647    -5832563.27343  -4401820.59342  24358089.956    24358090.314
  21142554.333   -25485190.00944 -19849029.11242  21142557.091    21142552.896
  24802111.001    -6404174.76643  -4714806.00942  24802113.450    24802113.843
  22849481.448   -14707071.81943 -11277347.90242  22849483.695    22849482.270
  20485902.238   -26833972.03944 -20889223.33342  20485904.365    20485901.230
  22046331.968   -21054089.31543 -16355357.12442  22046333.835    22046331.624
 04  5 20  3 38  0.0000000  0  7G16G 3G13G 4G27G 1G20
  21658121.416   -20956504.58743 -16140904.72942  21658123.432    21658119.393
  24343666.833    -5908344.80243  -4460871.00042  24343669.239    24343669.311
  21131907.090   -25541141.69744 -19892627.79742  21131909.835    21131905.609
  24812078.419    -6351796.03243  -4673991.49042  24812080.875    24812081.268
  22837652.511   -14769232.67143 -11325784.83042  22837654.794    22837653.388
  20488334.677   -26821189.43544 -20879262.85142  20488336.794    20488333.658
  22064066.572   -20960893.56043 -16282737.09642  22064068.435    22064066.207
 04  5 20  3 38 30.0000000  0  7G16G 3G13G 4G27G 1G20
  21666692.643   -20911462.59543 -16105807.06242  21666694.645    21666690.575
  24329275.480    -5983971.37543  -4519800.66942  24329277.914    24329277.911
  21121304.700   -25596857.42444 -19936042.61942  21121307.469    21121303.204
  24822107.415    -6299093.41143  -4632924.58242  24822109.925    24822110.312
  22825857.187   -14831217.14043 -11374084.30742  22825859.466    22825858.069
  20490829.693   -26808078.07544 -20869046.20142  20490831.815    20490828.652
  22081864.786   -20867363.59343 -16209856.64342  22081866.654    22081864.408
 04  5 20  3 39  0.0000000  0  7G16G 3G13G 4G27G 1G20
  21675363.208   -20865898.37543 -16070302.46342  21675365.251    21675361.151
  24314913.508    -6059443.66243  -4578610.10842  24314915.813    24314915.944
  21110746.833   -25652339.24744 -19979275.17642  21110749.625    21110745.335
  24832196.934    -6246073.16243  -4591610.17442  24832199.351    24832199.809
  22814094.708   -14893028.88743 -11422249.19242  22814097.005    22814095.640
  20493386.649   -26794641.07144 -20858575.79842  20493388.775    20493385.623
  22099725.355   -20773505.78543 -16136720.72842  22099727.227    22099724.993
 04  5 20  3 39 30.0000000  0  7G16G 3G13G 4G27G 1G20
  21684132.877   -20819813.42843 -16034392.11142  21684134.912    21684130.831
  24300581.561    -6134758.09543  -4637296.54642  24300583.863    24300583.928
  21100233.799   -25707585.54044 -20022324.21042  21100236.581    21100232.295
  24842346.446    -6192737.35043  -4550049.89242  24842348.881    24842349.268
  22802365.190   -14954667.68243 -11470279.31842  22802367.443    22802366.105
  20496005.767   -26780877.46144 -20847850.90442  20496007.888    20496004.737
  22117647.789   -20679322.81443 -16063331.44542  22117649.670    22117647.435
 04  5 20  3 40  0.0000000  0  7G16G 3G13G 4G27G 1G20
  21693001.586   -20773207.98743 -15998076.17942  21693003.639    21692999.557
  24286280.515    -6209910.07643  -4695856.38042  24286282.819    24286282.839
  21089766.124   -25762593.52444 -20065187.55042  21089768.879    21089764.590
  24852555.741    -6139087.50043  -4508244.89742  24852558.109    24852558.547
  22790668.781   -15016132.12643 -11518173.59442  22790671.065    22790669.712
  20498687.442   -26766785.06344 -20836869.81242  20498689.563    20498686.418
  22135631.899   -20584815.57543 -15989689.46242  22135633.820    22135631.612
 04  5 20  3 40 30.0000000  0  7G16G 3G13G 4G27G 1G20
  21701968.702   -20726085.45243 -15961357.31242  21701970.730    21701966.648
  24272010.607    -6284898.05243  -4754288.42942  24272012.978    24272012.981
  21079343.782   -25817363.06444 -20107865.08742  21079346.557    21079342.250
  24862824.000    -6085127.43743  -4466198.19042  24862826.461    24862826.950
  22779005.302   -15077423.78943 -11565933.23442  22779007.567    22779006.223
  20501431.559   -26752364.58544 -20825633.07342  20501433.667    20501430.536
  22153676.911   -20489988.39243 -15915798.18242  22153678.848    22153676.685
 04  5 20  3 41  0.0000000  0  7G16G 3G13G 4G27G 1G20
  21711034.082   -20678446.47843 -15924236.02042  21711036.115    21711032.036
  24257772.718    -6359717.98343  -4812589.51742  24257775.082    24257775.078
  21068967.323   -25871891.65744 -20150354.87542  21068970.072    21068965.770
  24873151.017    -6030858.92743  -4423911.13042  24873153.473    24873154.001
  22767374.866   -15138541.64243 -11613557.42642  22767377.142    22767375.797
  20504238.440   -26737614.19344 -20814139.25342  20504240.563    20504237.450
  22171782.522   -20394842.71543 -15841658.74042  22171784.457    22171782.347
 04  5 20  3 41 30.0000000  0  7G16G 3G13G 4G27G 1G20
  21720197.354   -20630293.05643 -15886713.86642  21720199.408    21720195.314
  24243567.400    -6434366.80543  -4870757.26142  24243569.788    24243569.799
  21058637.015   -25926177.71344 -20192655.67342  21058639.744    21058635.458
  24883536.153    -5976284.66343  -4381385.81042  24883538.647    24883539.265
  22755777.521   -15199485.71543 -11661046.21642  22755779.802    22755778.437
  20507108.228   -26722533.39744 -20802387.98342  20507110.336    20507107.221
  22189948.290   -20299381.19543 -15767273.18542  22189950.187    22189948.104
 04  5 20  3 42  0.0000000  0  7G16G 3G13G 4G27G 1G20
  21729458.449   -20581625.56843 -15848791.13342  21729460.511    21729456.419
  24229395.461    -6508840.21443  -4928788.33942  24229397.891    24229397.875
  21048353.418   -25980218.33744 -20234765.22942  21048356.131    21048351.842
  24893979.233    -5921405.74443  -4338623.11342  24893981.869    24893982.535
  22744213.490   -15260254.81743 -11708398.66542  22744215.757    22744214.344
  20510041.272   -26707120.12444 -20790377.63542  20510043.377    20510040.262
  22208173.820   -20203605.48643 -15692642.79642  22208175.712    22208173.653
 04  5 20  3 42 30.0000000  0  7G16G 3G13G 4G27G 1G20
  21738816.251   -20532449.94743 -15810472.45542  21738818.295    21738814.195
  24215256.825    -6583139.06443  -4986683.38342  24215259.178    24215259.075
  21038116.042   -26034016.06244 -20276685.51142  21038118.760    21038114.441
  24904478.947    -5866228.96243  -4295628.29242  24904481.510    24904482.460
  22732681.943   -15320852.97243 -11755617.91142  22732684.224    22732682.792
  20513036.999   -26691377.47544 -20778110.63042  20513039.101    20513036.001
  22226457.909   -20107522.10443 -15617772.65142  22226459.797    22226457.736
 04  5 20  3 43  0.0000000  0  7G16G 3G13G 4G27G 1G20
  21748270.769   -20482766.08743 -15771757.74742  21748272.803    21748268.713
  24201152.269    -6657258.15743  -5044438.35842  24201154.698    24201154.512
  21027925.621   -26087567.15944 -20318413.61742  21027928.321    21027923.979
  24915035.346    -5810754.82643  -4252401.77742  24915037.858    24915038.927
  22721183.360   -15381278.17143 -11802702.40342  22721185.614    22721184.160
  20516095.914   -26675302.78244 -20765584.89442  20516098.021    20516094.898
  22244800.418   -20011131.55043 -15542663.15842  22244802.331    22244800.280
 04  5 20  3 43 30.0000000  0  6G16G 3G13G27G 1G20
  21757824.621   -20432560.21543 -15732636.28042  21757826.654    21757822.591
  24187085.476    -6731179.02243  -5102038.88142  24187087.879    24187087.621
  21017785.293   -26140854.77844 -20359936.41642  21017788.023    21017783.654
  22709720.612   -15441514.93743 -11849640.05742  22709722.854    22709721.385
  20519221.090   -26658879.93244 -20752787.85842  20519223.174    20519220.045
  22263203.804   -19914421.27343 -15467304.54542  22263205.676    22263203.673
 04  5 20  3 44  0.0000000  0  6G16G 3G13G27G 1G20
  21767471.636   -20381864.75243 -15693133.31042  21767473.662    21767469.618
  24173051.138    -6804929.12943  -5159506.34442  24173053.557    24173053.183
  21007689.630   -26193907.73444 -20401276.36542  21007692.358    21007687.979
  22698287.934   -15501593.87043 -11896454.72542  22698290.169    22698288.637
  20522406.822   -26642138.70244 -20739742.73842  20522408.925    20522405.782
  22281661.722   -19817424.44043 -15391722.64542  22281663.557    22281661.587
 04  5 20  3 44 30.0000000  0  6G16G 3G13G27G 1G20
  21777214.715   -20330664.26743 -15653236.81442  21777216.752    21777212.741
  24159053.283    -6878487.70643  -5216824.57642  24159055.601    24159055.241
  20997642.292   -26246706.68944 -20442418.38842  20997645.017    20997640.642
  22686888.621   -15561497.54543 -11943132.82442  22686890.848    22686889.242
  20525656.636   -26625060.82144 -20726435.29542  20525658.727    20525655.580
  22300176.965   -19720126.25043 -15315905.93542  22300178.774    22300176.872
 04  5 20  3 45  0.0000000  0  6G16G 3G13G27G 1G20
  21787052.999   -20278963.76143 -15612950.68742  21787055.032    21787051.010
  24145091.753    -6951854.92243  -5273993.68342  24145094.158    24145093.817
  20987642.929   -26299253.70144 -20483364.09342  20987645.625    20987641.242
  22675522.007   -15621229.06743 -11989676.78942  22675524.265    22675522.622
  20528970.029   -26607648.81244 -20712867.49342  20528972.105    20528968.965
  22318748.455   -19622532.44043 -15239858.87742  22318750.284    22318748.399
 04  5 20  3 45 30.0000000  0  6G16G 3G13G27G 1G20
  21796986.544   -20226762.57843 -15572274.42542  21796988.586    21796984.552
  24131167.878    -7025025.03843  -5331009.22042  24131170.205    24131169.773
  20977692.310   -26351544.50844 -20524110.16042  20977695.022    20977690.614
  22664188.623   -15680786.05643 -12036084.76042  22664190.890    22664189.197
  20532347.620   -26589899.51144 -20699036.86742  20532349.693    20532346.520
  22337376.240   -19524643.03143 -15163581.46342  22337378.058    22337376.170
 04  5 20  3 46  0.0000000  0  6G16G 3G13G27G 1G20
  21807014.186   -20174066.95843 -15531212.88542  21807016.232    21807012.166
  24117281.279    -7097999.24843  -5387872.10242  24117283.565    24117283.073
  20967789.943   -26403581.70844 -20564658.60942  20967792.659    20967788.252
  22652887.629   -15740172.79143 -12082360.05542  22652889.885    22652888.201
  20535788.698   -26571816.50644 -20684946.21442  20535790.797    20535787.598
  22356058.914   -19426465.11343 -15087079.23242  22356060.758    22356058.864
 04  5 20  3 46 30.0000000  0  6G16G 3G13G27G 1G20
  21817135.911   -20120876.88143 -15489766.05042  21817137.999    21817133.867
  24103432.924    -7170772.56543  -5444578.43842  24103435.180    24103434.538
  20957936.535   -26455361.55644 -20605006.52042  20957939.291    20957934.855
  22641619.447   -15799387.31443 -12128501.15342  22641621.640    22641619.969
  20539293.772   -26553397.14744 -20670593.46442  20539295.873    20539292.673
  22374796.356   -19327999.37543 -15010352.72042  22374798.221    22374796.304
 04  5 20  3 47  0.0000000  0  6G16G 3G13G27G 1G20
  21827351.396   -20067194.19843 -15447935.36642  21827353.473    21827349.315
  24089623.323    -7243341.68943  -5501125.67442  24089625.644    24089624.997
  20948132.454   -26506882.23844 -20645152.47942  20948135.214    20948130.791
  22630384.000   -15858429.57443 -12174508.02642  22630386.184    22630384.521
  20542863.025   -26534640.55544 -20655977.93442  20542865.126    20542861.913
  22393588.090   -19229248.39443 -14933403.93142  22393589.956    22393588.021
 04  5 20  3 47 30.0000000  0  6G16G 3G13G27G 1G20
  21837661.085   -20013016.22043 -15405718.74542  21837663.163    21837659.007
  24075854.095    -7315699.08743  -5557507.91742  24075856.423    24075855.707
  20938378.801   -26558137.97744 -20685091.99042  20938381.548    20938377.126
  22619182.268   -15917294.83643 -12220376.98442  22619184.403    22619182.731
  20546497.500   -26515541.36444 -20641095.44442  20546499.580    20546496.378
  22412434.472   -19130210.27743 -14856231.41142  22412436.359    22412434.396
 04  5 20  3 48  0.0000000  0  6G16G 3G13G27G 1G20
  21848062.985   -19958353.80943 -15363124.64842  21848065.050    21848060.899
  24062124.031    -7387850.47043  -5613729.63642  24062126.322    24062125.640
  20928674.175   -26609136.02644 -20724830.70042  20928676.934    20928672.497
  22608012.443   -15975992.35143 -12266115.23942  22608014.578    22608012.869
  20550195.572   -26496107.84044 -20625952.43542  20550197.681    20550194.449
  22431333.288   -19030896.77443 -14778844.30542  22431335.147    22431333.150
 04  5 20  3 48 30.0000000  0  6G16G 3G13G27G 1G20
  21858558.167   -19903201.22843 -15320148.59442  21858560.215    21858556.086
  24048435.188    -7459785.25143  -5669782.56442  24048437.488    24048436.845
  20919020.410   -26659866.81044 -20764361.15742  20919023.156    20919018.720
  22596875.998   -16034514.37943 -12311716.74742  22596878.173    22596876.390
  20553958.868   -26476331.59744 -20610542.37342  20553960.958    20553957.754
  22450285.471   -18931302.79743 -14701238.65442  22450287.328    22450285.284
 04  5 20  3 49  0.0000000  0  6G16G 3G13G27G 1G20
  21869145.576   -19847563.93043 -15276794.83642  21869147.609    21869143.482
  24034787.578    -7531503.35243  -5725666.67242  24034789.888    24034789.274
  20909417.212   -26710331.82944 -20803684.52742  20909419.953    20909415.530
  22585772.374   -16092864.12443 -12357184.00742  22585774.539    22585772.716
  20557786.925   -26456215.06544 -20594867.16142  20557789.024    20557785.783
  22469289.904   -18831434.20443 -14623419.01142  22469291.778    22469289.682
 04  5 20  3 49 30.0000000  0  6G16G 3G13G27G 1G20
  21879824.661   -19791444.89343 -15233065.70642  21879826.687    21879822.575
  24021181.539    -7603002.54743  -5781380.20142  24021183.926    24021183.331
  20899864.635   -26760530.89644 -20842800.65742  20899867.371    20899862.946
  22574701.279   -16151042.85143 -12402518.01642  22574703.427    22574701.594
  20561679.566   -26435759.02744 -20578927.39742  20561681.664    20561678.452
  22488345.781   -18731295.07243 -14545388.56942  22488347.681    22488345.593
 04  5 20  3 50  0.0000000  0  6G16G 3G13G27G 1G20
  21890595.226   -19734845.09743 -15188961.95342  21890597.259    21890593.126
  24007617.973    -7674278.81943  -5836920.02442  24007620.380    24007619.741
  20890363.206   -26810461.10344 -20881707.29042  20890365.944    20890361.517
  22563662.947   -16209049.24943 -12447717.72642  22563665.108    22563663.291
  20565637.221   -26414961.36044 -20562721.42942  20565639.309    20565636.111
  22507452.885   -18630886.78243 -14467148.39342  22507454.811    22507452.684
 04  5 20  3 50 30.0000000  0  6G16G 3G13G27G 1G20
  21901456.856   -19677766.70843 -15144485.27442  21901458.910    21901454.763
  23994097.405    -7745329.25143  -5892283.88542  23994099.840    23994099.155
  20880913.220   -26860120.98844 -20920403.28042  20880915.962    20880911.524
  22552657.347   -16266883.80143 -12492783.53342  22552659.500    22552657.668
  20569659.938   -26393821.82444 -20546249.06642  20569662.019    20569658.841
  22526610.668   -18530212.29943 -14388700.78842  22526612.569    22526610.431
 04  5 20  3 51  0.0000000  0  6G16G 3G13G27G 1G20
  21912408.784   -19620214.02243 -15099639.00842  21912410.816    21912406.676
  23980620.004    -7816152.98243  -5947471.09842  23980622.391    23980621.783
  20871514.605   -26909510.97844 -20958888.95342  20871517.342    20871512.885
  22541684.023   -16324548.73943 -12537717.18142  22541686.194    22541684.315
  20573747.420   -26372341.89444 -20529511.44842  20573749.506    20573746.336
  22545818.134   -18429276.53543 -14310049.58642  22545820.054    22545817.940
 04  5 20  3 51 30.0000000  0  6G16G 3G13G27G 1G20
  21923451.279   -19562185.33343 -15054421.83142  21923453.341    21923449.139
  23967187.132    -7886743.09743  -6002476.27542  23967189.483    23967188.817
  20862168.320   -26958625.93444 -20997160.32542  20862171.064    20862166.591
  22530743.715   -16382040.28643 -12582515.73842  22530745.876    22530743.962
  20577900.551   -26350517.09544 -20512505.10842  20577902.630    20577899.464
  22565075.563   -18328078.40743 -14231193.94442  22565077.468    22565075.341
 04  5 20  3 52  0.0000000  0  6G16G 3G13G27G 1G20
  21934583.986   -19503682.59943 -15008835.26242  21934586.030    21934581.830
  23953799.241    -7957096.40543  -6057296.92642  23953801.676    23953800.910
  20852874.763   -27007463.85444 -21035215.83142  20852877.489    20852873.023
  22519836.447   -16439358.29543 -12627179.04842  22519838.586    22519836.656
  20582119.444   -26328346.64744 -20495229.42842  20582121.526    20582118.390
  22584382.423   -18226620.40443 -14152135.80242  22584384.310    22584382.213
 04  5 20  3 52 30.0000000  0  6G16G 3G13G27G 1G20
  21945805.648   -19444712.41043 -14962884.44842  21945807.702    21945803.464
  23940456.190    -8027214.15943  -6111934.04442  23940458.623    23940457.807
  20843633.412   -27056027.28944 -21073057.44742  20843636.153    20843631.705
  22508961.314   -16496507.17443 -12671710.57942  22508963.471    22508961.523
  20586403.413   -26305834.32544 -20477687.35642  20586405.483    20586402.339
  22603737.316   -18124909.92043 -14072880.92542  22603739.205    22603737.111
 04  5 20  3 53  0.0000000  0  6G16G 3G13G27G 1G20
  21957116.611   -19385272.93243 -14916567.95842  21957118.654    21957114.419
  23927159.285    -8097089.48843  -6166382.23542  23927161.708    23927160.929
  20834445.245   -27104311.35544 -21110681.37842  20834447.994    20834443.524
  22498119.019   -16553483.55843 -12716107.70642  22498121.166    22498119.206
  20590753.258   -26282975.72244 -20459875.46342  20590755.321    20590752.190
  22623140.439   -18022945.92243 -13993428.51442  22623142.341    22623140.268
 04  5 20  3 53 30.0000000  0  6G16G 3G13G27G 1G20
  21968516.228   -19325367.43443 -14869888.33042  21968518.294    21968514.058
  23913908.904    -8166720.50843  -6220640.07142  23913911.295    23913910.548
  20825310.413   -27152315.20144 -21148086.94842  20825313.157    20825308.672
  22487309.372   -16610288.28743 -12760371.07942  22487311.516    22487309.519
  20595168.948   -26259771.17144 -20441793.99442  20595171.013    20595167.867
  22642591.142   -17920731.95243 -13913781.30742  22642593.030    22642590.991
 04  5 20  3 54  0.0000000  0  6G16G 3G13G27G 1G20
  21980003.953   -19264998.87043 -14822847.87142  21980006.023    21980001.834
  23900705.415    -8236105.02543  -6274705.82242  23900707.761    23900707.023
  20816229.051   -27200038.02044 -21185273.53542  20816231.812    20816227.300
  22476532.251   -16666922.30843 -12804501.43342  22476534.381    22476532.373
  20599650.404   -26236221.00044 -20423443.20842  20599652.461    20599649.313
  22662088.675   -17818271.63343 -13833942.14042  22662090.554    22662088.584
 04  5 20  3 54 30.0000000  0  6G16G 3G13G27G 1G20
  21991579.610   -19204168.25343 -14775447.37642  21991581.663    21991577.477
  23887549.733    -8305238.63943  -6328576.07242  23887552.054    23887551.197
  20807201.729   -27247476.83544 -21222238.82442  20807204.483    20807199.963
  22465787.818   -16723384.52143 -12848497.90542  22465789.927    22465787.911
  20604197.971   -26212323.32344 -20404821.63542  20604200.061    20604196.894
  22681632.852   -17715566.57443 -13753912.27042  22681634.694    22681632.748
 04  5 20  3 55  0.0000000  0  6G16G 3G13G27G 1G20
  22003242.308   -19142880.40643 -14727690.60442  22003244.353    22003240.165
  23874441.765    -8374121.08043  -6382250.58842  23874444.110    23874443.203
  20798228.176   -27294632.97044 -21258983.83042  20798230.948    20798226.413
  22455075.504   -16779677.84743 -12892362.76642  22455077.646    22455075.583
  20608811.215   -26188080.52444 -20385931.13542  20608813.303    20608810.124
  22701222.498   -17612622.60143 -13673696.23642  22701224.320    22701222.409
 04  5 20  3 55 30.0000000  0  7G16G 3G13G27G 1G 8G20
  22014989.422   -19081148.71443 -14679587.96942  22014991.469    22014987.304
  23861380.008    -8442760.47443  -6435735.73442  23861382.387    23861381.460
  20789306.651   -27341515.81744 -21295515.89142  20789309.427    20789304.874
  22444393.171   -16835813.53643 -12936104.80142  22444395.306    22444393.237
  20613488.136   -26163503.12844 -20366779.91742  20613490.215    20613487.033
  24871692.194    -5748878.85853  -4443825.65252  24871693.530    24871695.577
  22720854.968   -17509453.51543 -13593304.78442  22720856.784    22720854.906
 04  5 20  3 56  0.0000000  0  7G16G 3G13G27G 1G 8G20
  22026824.152   -19018956.75243 -14631126.68442  22026826.204    22026822.028
  23848368.634    -8511135.22643  -6489014.65742  23848370.952    23848370.090
  20780440.981   -27388105.09744 -21331819.19542  20780443.765    20780439.204
  22433744.422   -16891772.89943 -12979709.44742  22433746.551    22433744.461
  20618232.403   -26138571.90844 -20347352.99242  20618234.460    20618231.275
  24854611.295    -5838638.63643  -4513768.10742  24854612.508    24854614.747
  22740533.284   -17406043.18043 -13512725.35542  22740535.130    22740533.280
 04  5 20  3 56 30.0000000  0  7G16G 3G13G27G 1G 8G20
  22038746.995   -18956301.86043 -14582304.67742  22038749.032    22038744.840
  23835409.215    -8579237.17543  -6542081.01542  23835411.486    23835410.626
  20771632.489   -27434393.97644 -21367888.43842  20771635.267    20771630.704
  22423130.105   -16947551.16243 -13023172.96942  22423132.265    22423130.156
  20623045.034   -26113281.30244 -20327646.02642  20623047.092    20623043.901
  24837549.645    -5928297.27543  -4583631.76142  24837550.968    24837553.098
  22760257.868   -17302389.54843 -13431956.35042  22760259.764    22760257.978
 04  5 20  3 57  0.0000000  0  7G16G 3G13G27G 1G 8G20
  22050754.949   -18893199.59043 -14533134.06242  22050756.993    22050752.776
  23822499.714    -8647076.55843  -6594942.77542  23822502.042    23822501.158
  20762878.876   -27480394.48444 -21403732.96242  20762881.643    20762877.080
  22412547.705   -17003161.59843 -13066505.70742  22412549.875    22412547.776
  20627923.653   -26087643.92244 -20307668.84242  20627925.724    20627922.527
  24820504.770    -6017868.04043  -4653426.92942  24820506.155    24820508.181
  22780025.736   -17198508.85943 -13351010.40942  22780027.623    22780025.888
 04  5 20  3 57 30.0000000  0  7G16G 3G13G27G 1G 8G20
  22062848.914   -18829645.39443 -14483611.30542  22062850.951    22062846.726
  23809641.993    -8714644.02343  -6647592.65442  23809644.344    23809643.351
  20754181.729   -27526098.22644 -21439346.23442  20754184.496    20754179.916
  22401998.478   -17058597.92243 -13109702.78442  22402000.638    22401998.516
  20632869.612   -26061652.74244 -20287415.97142  20632871.667    20632868.489
  24803477.953    -6107343.68043  -4723147.97942  24803479.347    24803481.347
  22799837.571   -17094397.28743 -13269884.57042  22799839.399    22799837.702
 04  5 20  3 58  0.0000000  0  7G16G 3G13G27G 1G 8G20
  22075027.075   -18765648.53643 -14433743.62942  22075029.121    22075024.872
  23796835.263    -8781943.51343  -6700033.71942  23796837.628    23796836.584
  20745540.020   -27571510.52544 -21474732.40442  20745542.804    20745538.223
  22391481.064   -17113867.08443 -13152769.61342  22391483.211    22391481.096
  20637881.643   -26035314.22544 -20266892.44842  20637883.722    20637880.534
  24786468.001    -6196730.58843  -4792799.89442  24786469.330    24786471.291
  22819691.527   -16990064.26743 -13188586.15842  22819693.373    22819691.617
 04  5 20  3 58 30.0000000  0  7G16G 3G13G27G 1G 8G20
  22087289.690   -18701207.99043 -14383530.21442  22087291.721    22087287.487
  23784080.738    -8848968.66143  -6752260.99842  23784083.145    23784082.014
  20736954.724   -27616626.50844 -21509887.68442  20736957.507    20736952.892
  22380996.025   -17168966.01643 -13195703.77142  22380998.196    22380996.060
  20642960.490   -26008624.75544 -20246095.45542  20642962.562    20642959.358
  24769475.692    -6286024.93543  -4862379.68042  24769476.957    24769478.842
  22839587.704   -16885509.60443 -13107115.04042  22839589.522    22839587.753
 04  5 20  3 59  0.0000000  0  7G16G 3G13G27G 1G 8G20
  22099636.489   -18636324.94543 -14332971.99142  22099638.526    22099634.335
  23771379.210    -8915715.21743  -6804271.20542  23771381.587    23771380.470
  20728426.343   -27661443.40344 -21544809.91042  20728429.112    20728424.490
  22370543.601   -17223893.62143 -13238504.43342  22370545.767    22370543.630
  20648106.463   -25981582.55144 -20225023.60542  20648108.527    20648105.326
  24752501.285    -6375225.33843  -4931886.27142  24752502.581    24752504.424
  22859525.674   -16780735.10343 -13025472.61142  22859527.495    22859525.695
 04  5 20  3 59 30.0000000  0  7G16G 3G13G27G 1G 8G20
  22112067.414   -18571000.14843 -14282069.53742  22112069.426    22112065.238
  23758731.584    -8982178.77443  -6856060.87442  23758733.932    23758732.808
  20719955.428   -27705958.20044 -21579496.73542  20719958.194    20719953.583
  22360123.992   -17278648.64443 -13281170.60742  22360126.174    22360124.049
  20653319.957   -25954185.44544 -20203675.20642  20653322.038    20653318.813
  24735545.166    -6464329.70543  -5001318.03342  24735546.472    24735548.151
  22879505.180   -16675741.92743 -12943659.78942  22879507.049    22879505.289
 04  5 20  4  0  0.0000000  0  7G16G 3G13G27G 1G 8G20
  22124580.228   -18505244.66243 -14230831.49142  22124582.255    22124578.102
  23746136.671    -9048364.98643  -6907634.43242  23746139.035    23746137.868
  20711540.703   -27750177.70944 -21613953.46842  20711543.482    20711538.873
  22349735.621   -17333239.87743 -13323709.14742  22349737.740    22349735.627
  20658599.382   -25926441.82644 -20182056.79842  20658601.473    20658598.252
  24718605.820    -6553346.06843  -5070681.20742  24718607.062    24718608.782
  22899524.157   -16570541.73543 -12861685.67442  22899526.025    22899524.308
 04  5 20  4  0 30.0000000  0  7G16G 3G13G27G 1G 8G20
  22137176.368   -18439051.52843 -14179252.42442  22137178.375    22137174.222
  23733596.813    -9114261.83943  -6958982.52242  23733599.120    23733597.951
  20703184.194   -27794091.40744 -21648171.90742  20703186.959    20703182.357
  22339380.089   -17387658.27243 -13366113.00942  22339382.218    22339380.092
  20663946.575   -25898342.23144 -20160161.00742  20663948.666    20663945.429
  24701684.947    -6642265.03443  -5139968.51942  24701686.195    24701687.755
  22919583.810   -16465127.98643 -12779545.13842  22919585.618    22919583.948
 04  5 20  4  1  0.0000000  0  7G16G 3G13G27G 1G 8G20
  22149854.563   -18372427.26843 -14127337.40942  22149856.578    22149852.390
  23721111.893    -9179870.24043  -7010105.84442  23721114.233    23721112.968
  20694885.467   -27837701.39944 -21682153.69342  20694888.240    20694883.618
  22329056.647   -17441907.92843 -13408385.39142  22329058.819    22329056.641
  20669360.855   -25869889.92444 -20137990.37842  20669362.970    20669359.709
  24684781.948    -6731090.39843  -5209182.88642  24684783.148    24684784.582
  22939682.733   -16359507.63143 -12697243.61042  22939684.553    22939682.890
 04  5 20  4  1 30.0000000  0  7G16G 3G13G27G 1G 8G20
  22162614.036   -18305375.73143 -14075089.45742  22162616.064    22162611.880
  23708682.087    -9245188.81643  -7061003.33342  23708684.362    23708683.122
  20686644.567   -27881007.71544 -21715898.85742  20686647.332    20686642.679
  22318765.063   -17495990.40443 -13450527.50142  22318767.228    22318765.009
  20674842.087   -25841085.89144 -20115545.67142  20674844.186    20674840.933
  24667896.434    -6819822.97243  -5278324.92842  24667897.650    24667899.179
  22959820.234   -16253684.76343 -12614784.29142  22959822.005    22959820.357
 04  5 20  4  2  0.0000000  0  7G16G 3G13G27G 1G 8G20
  22175455.927   -18237891.02143 -14022503.97642  22175457.919    22175453.798
  23696309.497    -9310206.91143  -7111666.65442  23696311.787    23696310.490
  20678463.247   -27924000.75044 -21749399.89342  20678466.001    20678461.346
  22308506.688   -17549898.06743 -13492533.39942  22308508.880    22308506.628
  20680391.780   -25811921.97444 -20092820.53542  20680393.884    20680390.639
  24651030.279    -6908454.48943  -5347388.21042  24651031.544    24651032.934
  22979997.141   -16147654.55343 -12532163.40542  22979998.933    22979997.253
 04  5 20  4  2 30.0000000  0  7G16G 3G13G27G 1G 8G20
  22188377.774   -18169986.33443 -13969591.23542  22188379.772    22188375.615
  23683992.715    -9374931.85643  -7162101.56242  23683994.928    23683993.615
  20670339.822   -27966689.54944 -21782663.86342  20670342.575    20670337.901
  22298279.598   -17603641.51343 -13534411.33142  22298281.774    22298279.509
  20686008.046   -25782408.25044 -20069822.82442  20686010.158    20686006.914
  24634181.502    -6996995.10543  -5416380.75142  24634182.734    24634184.055
  23000210.945   -16041430.41043 -12449391.39142  23000212.721    23000211.059
 04  5 20  4  3  0.0000000  0  7G16G 3G13G27G 1G 8G20
  22201380.273   -18101657.80443 -13916348.21642  22201382.286    22201378.098
  23671733.372    -9439354.23443  -7212300.70042  23671735.660    23671734.362
  20662275.818   -28009066.02544 -21815684.45742  20662278.582    20662273.883
  22288084.914   -17657214.76543 -13576156.65442  22288087.053    22288084.805
  20691692.185   -25752537.82044 -20046547.16342  20691694.297    20691691.055
  24617351.211    -7085438.02543  -5485297.10942  24617352.403    24617353.605
  23020462.362   -15935008.60643 -12366465.35242  23020464.142    23020462.496
 04  5 20  4  3 30.0000000  0  7G16G 3G13G27G 1G 8G20
  22214462.936   -18032908.08943 -13862777.00642  22214464.930    22214460.733
  23659532.028    -9503472.25143  -7262262.68742  23659534.246    23659533.028
  20654271.406   -28051129.29244 -21848460.99642  20654274.186    20654269.474
  22277922.487   -17710618.50043 -13617769.88542  22277924.605    22277922.352
  20697444.185   -25722310.92844 -20022993.74842  20697446.270    20697443.048
  24600539.530    -7173783.41843  -5554137.49342  24600540.769    24600541.621
  23040750.688   -15828392.84143 -12283388.18342  23040752.467    23040750.883
 04  5 20  4  4  0.0000000  0  7G16G 3G13G27G 1G 8G20
  22227624.660   -17963742.85943 -13808882.02642  22227626.671    22227622.446
  23647388.587    -9567285.85743  -7311987.46142  23647390.777    23647389.597
  20646326.373   -28092880.66944 -21880994.50842  20646329.141    20646324.421
  22267791.706   -17763855.88043 -13659253.49242  22267793.840    22267791.539
  20703263.480   -25691730.24144 -19999164.64342  20703265.574    20703262.361
  24583746.014    -7262033.66243  -5622903.76242  24583747.146    24583747.792
  23061074.789   -15721588.97443 -12200164.44842  23061076.590    23061075.030
 04  5 20  4  4 30.0000000  0  7G16G 3G13G27G 1G 8G20
  22240866.109   -17894158.39043 -13754660.35642  22240868.145    22240863.906
  23635304.733    -9630786.17743  -7361468.12542  23635306.973    23635305.732
  20638442.134   -28134312.41644 -21913278.95342  20638444.914    20638440.166
  22257693.692   -17816920.99443 -13700602.85842  22257695.843    22257693.508
  20709151.362   -25660789.25444 -19975054.78242  20709153.460    20709150.229
  24566971.661    -7350182.58643  -5691591.03542  24566972.903    24566973.430
  23081435.282   -15614593.79443 -12116791.63742  23081437.147    23081435.594
 04  5 20  4  5  0.0000000  0  7G16G 3G13G27G 1G 8G20
  22254185.837   -17824162.61743 -13700118.20542  22254187.863    22254183.664
  23623280.080    -9693975.85943  -7410706.74142  23623282.247    23623280.966
  20630617.948   -28175428.63144 -21945317.53342  20630620.722    20630615.973
  22247627.402   -17869819.48743 -13741822.39542  22247629.553    22247627.201
  20715106.786   -25629493.32344 -19950668.34542  20715108.879    20715105.653
  24550215.524    -7438235.85943  -5760203.82242  24550216.738    24550217.284
  23101830.626   -15507415.76343 -12033276.33642  23101832.497    23101830.956
 04  5 20  4  5 30.0000000  0  7G16G 3G13G27G 1G 8G20
  22267583.718   -17753756.15543 -13645256.03242  22267585.769    22267581.553
  23611315.396    -9756849.92843  -7459699.40542  23611317.608    23611316.291
  20622854.479   -28216225.78244 -21977107.49542  20622857.250    20622852.517
  22237593.080   -17922549.85143 -13782910.91642  22237595.250    22237592.870
  20721130.202   -25597840.02944 -19926003.43942  20721132.301    20721129.056
  24533478.113    -7526190.51943  -5828739.74342  24533479.328    24533479.931
  23122260.578   -15400055.75843 -11949619.25842  23122262.452    23122260.915
 04  5 20  4  6  0.0000000  0  7G16G 3G13G27G 1G 8G20
  22281059.353   -17682941.10643 -13590075.47342  22281061.412    22281057.192
  23599411.284    -9819405.35543  -7508443.80242  23599413.658    23599412.288
  20615152.091   -28256702.00844 -22008647.38542  20615154.856    20615150.116
  22227590.790   -17975111.93843 -13823868.31242  22227592.974    22227590.566
  20727221.759   -25565828.79844 -19901059.62242  20727223.852    20727220.597
  24516759.661    -7614045.91243  -5897198.34142  24516760.751    24516761.465
  23142724.700   -15292516.34343 -11865822.36942  23142726.563    23142725.043
 04  5 20  4  6 30.0000000  0  7G16G 3G13G27G 1G 8G20
  22294612.176   -17611720.49343 -13534578.90142  22294614.247    22294610.045
  23587568.396    -9881639.70943  -7556937.99942  23587570.752    23587569.366
  20607510.993   -28296856.09244 -22039936.25942  20607513.765    20607509.018
  22217620.437   -18027506.37943 -13864695.07842  22217622.596    22217620.159
  20733381.388   -25533459.78144 -19875837.01842  20733383.466    20733380.205
  24500059.923    -7701802.39543  -5965579.84242  24500061.114    24500061.908
  23163222.295   -15184800.91243 -11781888.33142  23163224.148    23163222.677
 04  5 20  4  7  0.0000000  0  7G16G 3G13G27G 1G 8G20
  22308241.598   -17540097.58143 -13478768.84242  22308243.639    22308239.460
  23575787.006    -9943550.75243  -7605180.27442  23575789.338    23575788.042
  20599931.336   -28336687.40544 -22070973.62842  20599934.092    20599929.340
  22207681.773   -18079734.07943 -13905391.91042  22207683.948    22207681.515
  20739608.989   -25500733.41444 -19850335.94942  20739611.070    20739607.800
  24483379.026    -7789460.53043  -6033884.74042  24483380.091    24483380.977
  23183752.764   -15076913.15243 -11697820.01642  23183754.573    23183753.077
 04  5 20  4  7 30.0000000  0  7G16G 3G13G27G 1G 8G20
  22321947.866   -17468070.96243 -13422644.20042  22321949.888    22321945.675
  23564068.437   -10005132.09943  -7653165.63042  23564070.740    23564069.463
  20592414.080   -28376190.66844 -22101755.36942  20592416.837    20592412.081
  22197775.479   -18131791.58543 -13945956.12642  22197777.668    22197775.253
  20745905.388   -25467645.58344 -19824553.22742  20745907.467    20745904.221
  24466717.635    -7877015.93343  -6102109.58242  24466718.884    24466719.479
  23204316.107   -14968852.19343 -11613616.72042  23204317.948    23204316.439
 04  5 20  4  8  0.0000000  0  7G16G 3G13G27G 1G 8G20
  22335729.670   -17395647.25743 -13366210.15242  22335731.683    22335727.447
  23552412.356   -10066384.96043  -7700895.02742  23552414.699    23552413.292
  20584958.809   -28415368.32444 -22132283.38942  20584961.557    20584956.800
  22187900.789   -18183683.15143 -13986391.04842  22187902.962    22187900.537
  20752269.851   -25434200.23244 -19798491.92442  20752271.899    20752268.655
  24450075.178    -7964472.39943  -6170257.35342  24450076.374    24450076.964
  23224911.088   -14860625.11843 -11529283.98742  23224912.924    23224911.415
 04  5 20  4  8 30.0000000  0  7G16G 3G13G27G 1G 8G20
  22349586.491   -17322829.29443 -13309468.88242  22349588.505    22349584.245
  23540819.308   -10127306.75243  -7748366.46842  23540821.600    23540820.155
  20577565.832   -28454218.59544 -22162556.31042  20577568.573    20577563.813
  22178057.634   -18235409.12743 -14026696.95042  22178059.786    22178057.336
  20758702.366   -25400397.12744 -19772151.84342  20758704.425    20758701.184
  24433451.547    -8051829.62443  -6238327.77742  24433452.791    24433453.370
  23245537.040   -14752235.07743 -11444824.24042  23245538.956    23245537.378
 04  5 20  4  9  0.0000000  0  7G16G 3G13G27G 1G 8G20
  22363518.456   -17249616.48443 -13252419.94942  22363520.431    22363516.194
  23529290.260   -10187891.88243  -7795575.54842  23529292.619    23529291.152
  20570235.967   -28492737.25244 -22192570.83542  20570238.689    20570233.941
  22168246.484   -18286966.93943 -14066871.81642  22168248.620    22168246.131
  20765203.555   -25366233.16144 -19745530.57642  20765205.610    20765202.369
  24416847.357    -8139084.80143  -6306318.69342  24416848.502    24416849.133
  23266194.097   -14643681.77843 -11360237.31042  23266196.028    23266194.418
 04  5 20  4  9 30.0000000  0  7G16G 3G13G27G 1G 8G20
  22377525.008   -17176011.45043 -13195065.38042  22377527.022    22377522.759
  23517825.811   -10248137.59643  -7842520.16942  23517828.170    23517826.636
  20562969.423   -28530923.08144 -22222326.01042  20562972.158    20562967.409
  22158467.278   -18338356.68143 -14106915.70442  22158469.434    22158466.923
  20771773.461   -25331708.12744 -19718627.95342  20771775.519    20771772.253
  24400262.689    -8226237.30243  -6374229.59042  24400263.866    24400264.478
  23286881.629   -14534968.23643 -11275525.50942  23286883.549    23286881.959
 04  5 20  4 10  0.0000000  0  7G16G 3G13G27G 1G 8G20
  22391605.569   -17102017.59443 -13137407.85042  22391607.564    22391603.324
  23506426.314   -10308042.10743  -7889198.91442  23506428.646    23506427.042
  20555766.374   -28568775.19244 -22251821.14542  20555769.125    20555764.380
  22148719.836   -18389579.57243 -14146829.58842  22148722.001    22148719.459
  20778411.949   -25296822.60144 -19691444.42742  20778414.024    20778410.767
  24383697.315    -8313288.07243  -6442061.20142  24383698.443    24383699.155
  23307598.964   -14426098.31843 -11190691.86042  23307600.877    23307599.217
 04  5 20  4 10 30.0000000  0  7G16G 3G13G27G 1G 8G20
  22405759.598   -17027637.61243 -13079449.44042  22405761.577    22405757.362
  23495092.350   -10367602.67643  -7935609.65242  23495094.618    23495092.901
  20548627.184   -28606291.98844 -22281055.00242  20548629.908    20548625.164
  22139004.107   -18440636.00243 -14186613.76742  22139006.242    22139003.686
  20785119.070   -25261576.53044 -19663979.96042  20785121.147    20785117.899
  24367151.476    -8400236.82643  -6509813.38342  24367152.504    24367153.114
  23328345.366   -14317075.31743 -11105738.94042  23328347.295    23328345.676
 04  5 20  4 11  0.0000000  0  7G16G 3G13G27G 1G 8G20
  22419986.308   -16952875.80943 -13021193.50442  22419988.285    22419984.079
  23483823.966   -10426818.31343  -7981751.63142  23483826.190    23483824.469
  20541551.673   -28643474.04344 -22310028.01242  20541554.404    20541549.632
  22129319.675   -18491527.81043 -14226269.65942  22129321.820    22129319.228
  20791894.554   -25225971.13644 -19636235.50242  20791896.645    20791893.388
  24350624.660    -8487084.78043  -6577486.97142  24350625.812    24350626.440
  23349120.106   -14207903.36843 -11020669.94142  23349122.068    23349120.494
 04  5 20  4 11 30.0000000  0  7G16G 3G13G27G 1G 8G20
  22434286.159   -16877729.82943 -12962638.20042  22434288.123    22434283.909
  23472622.588   -10485681.45343  -8027618.90642  23472624.833    23472623.108
  20534541.156   -28680314.58444 -22338734.91842  20534543.881    20534539.094
  22119667.438   -18542250.47043 -14265793.75242  22119669.575    22119666.971
  20798739.350   -25190001.48244 -19608207.19842  20798741.450    20798738.181
  24334118.171    -8573826.52443  -6645077.80242  24334119.267    24334119.919
  23369923.531   -14098580.72643 -10935483.51742  23369925.547    23369923.955
 04  5 20  4 12  0.0000000  0  7G16G 3G13G27G 1G 8G20
  22448657.590   -16802207.44243 -12903789.59742  22448659.583    22448655.352
  23461487.796   -10544194.80043  -8073213.62842  23461490.012    23461488.332
  20527594.883   -28716817.58144 -22367178.81242  20527597.599    20527592.783
  22110046.318   -18592809.56943 -14305190.39842  22110048.465    22110045.827
  20805652.470   -25153672.79844 -19579899.13742  20805654.541    20805651.284
  24317630.943    -8660467.43843  -6712590.09942  24317632.005    24317632.515
  23390754.117   -13989115.75543 -10850186.17942  23390756.092    23390754.507
 04  5 20  4 12 30.0000000  0  7G16G 3G13G27G 1G 8G20
  22463100.885   -16726307.32243 -12844646.65042  22463102.887    22463098.672
  23450420.856   -10602351.47943  -8118530.42342  23450423.064    23450421.397
  20520713.860   -28752977.55544 -22395355.40742  20520716.568    20520711.764
  22100457.034   -18643201.23443 -14344456.56842  22100459.205    22100456.533
  20812634.725   -25116980.86044 -19551308.01342  20812636.798    20812633.537
  24301163.626    -8747003.13043  -6780020.37042  24301164.663    24301165.185
  23411611.961   -13879507.36143 -10764777.09742  23411613.956    23411612.339
 04  5 20  4 13  0.0000000  0  7G16G 3G13G27G 1G 8G20
  22477615.795   -16650030.74043 -12785210.36242  22477617.811    22477613.639
  23439422.528   -10660147.60943  -8163566.26242  23439424.751    23439423.080
  20513898.684   -28788791.55544 -22423262.40842  20513901.384    20513896.572
  22090899.829   -18693424.48943 -14383591.52042  22090901.973    22090899.275
  20819686.376   -25079924.21844 -19522432.70742  20819688.443    20819685.183
  24284716.641    -8833431.90943  -6847367.30742  24284717.736    24284718.229
  23432496.797   -13769757.08243 -10679257.43942  23432498.830    23432497.207
 04  5 20  4 13 30.0000000  0  7G16G 3G13G27G 1G 8G20
  22492200.663   -16573386.59743 -12725487.65642  22492202.697    22492198.514
  23428492.119   -10717586.83743  -8208324.01142  23428494.332    23428492.662
  20507148.396   -28824264.36944 -22450903.54242  20507151.127    20507146.328
  22081373.435   -18743485.76543 -14422600.25442  22081375.571    22081372.868
  20826806.248   -25042508.99544 -19493277.98542  20826808.308    20826805.058
  24268288.840    -8919760.02243  -6914635.81842  24268289.908    24268290.375
  23453406.861   -13659874.29443 -10593634.53542  23453408.818    23453407.260
 04  5 20  4 14  0.0000000  0  7G16G 3G13G27G 1G 8G20
  22506856.117   -16496371.68643 -12665476.04942  22506858.139    22506854.004
  23417631.266   -10774660.42843  -8252796.84542  23417633.444    23417631.836
  20500464.472   -28859388.45144 -22478272.93542  20500467.214    20500462.425
  22071878.908   -18793379.46943 -14461478.41242  22071881.046    22071878.362
  20833995.502   -25004729.08144 -19463839.09242  20833997.601    20833994.341
  24251881.498    -9005980.82043  -6981820.71842  24251882.470    24251882.954
  23474342.731   -13549855.73143 -10507905.83142  23474344.730    23474343.128
 04  5 20  4 14 30.0000000  0  7G16G 3G13G27G 1G 8G20
  22521581.238   -16418990.58343 -12605179.08742  22521583.276    22521579.147
  23406840.038   -10831368.23043  -8296984.65642  23406842.177    23406840.557
  20493846.787   -28894164.54044 -22505371.15942  20493849.543    20493844.759
  22062415.837   -18843108.03843 -14500227.90142  22062417.960    22062415.275
  20841253.779   -24966586.53344 -19434117.62142  20841255.865    20841252.618
  24235494.034    -9092096.98643  -7048924.09342  24235495.046    24235495.504
  23495303.480   -13439706.73543 -10422075.49142  23495305.458    23495303.889
 04  5 20  4 15  0.0000000  0  7G16G 3G13G27G 1G 8G20
  22536375.898   -16341244.18243 -12544597.47842  22536377.915    22536373.797
  23396119.364   -10887705.37843  -8340883.64042  23396121.506    23396119.873
  20487295.994   -28928589.23444 -22532195.56942  20487298.726    20487293.935
  22052984.509   -18892669.89943 -14538847.49142  22052986.621    22052983.928
  20848581.470   -24928079.34544 -19404112.01642  20848583.559    20848580.291
  24219126.984    -9178105.65843  -7115943.68142  24219128.049    24219128.493
  23516288.830   -13329428.31643 -10336144.31742  23516290.762    23516289.272
 04  5 20  4 15 30.0000000  0  7G16G 3G13G27G 1G 8G20
  22551238.523   -16263140.42343 -12483737.40842  22551240.548    22551236.446
  23385468.663   -10943675.05243  -8384496.27742  23385470.780    23385469.121
  20480811.276   -28962666.68644 -22558749.40842  20480813.994    20480809.187
  22043583.841   -18942070.64343 -14577341.52642  22043585.949    22043583.240
  20855977.496   -24889212.89244 -19373826.47242  20855979.588    20855976.342
  24202779.348    -9264012.60743  -7182884.02142  24202780.360    24202780.809
  23537297.192   -13219028.93843 -10250118.87842  23537299.064    23537297.685
 04  5 20  4 16  0.0000000  0  8G16G 3G13G27G 1G19G 8G20
  22566169.688   -16184676.46643 -12422596.66342  22566171.713    22566167.633
  23374889.439   -10999268.99643  -8427816.14742  23374891.591    23374889.862
  20474393.991   -28996389.76944 -22585027.12142  20474396.714    20474391.872
  22034214.815   -18991304.98043 -14615705.89342  22034216.921    22034214.205
  20863442.999   -24849981.40844 -19343256.48242  20863445.108    20863441.849
  24726482.821    -4441903.82353  -3432298.99952  24726485.095    24726483.168
  24186452.145    -9349811.71443  -7249740.31742  24186453.120    24186453.657
  23558329.125   -13108505.88043 -10163997.08542  23558330.956    23558329.574
 04  5 20  4 16 30.0000000  0  8G16G 3G13G27G 1G19G 8G20
  22581169.136   -16105854.10643 -12361176.63942  22581171.137    22581167.020
  23364382.412   -11054483.54543  -8470840.39442  23364384.595    23364382.759
  20468044.549   -29029756.27344 -22611026.97742  20468047.264    20468042.405
  22024877.529   -19040372.41043 -14653940.20242  22024879.657    22024876.946
  20870978.104   -24810384.07444 -19312401.41842  20870980.233    20870976.972
  24710360.879    -4526624.67743  -3498315.08142  24710363.173    24710361.268
  24170145.777    -9435501.83343  -7316511.70042  24170146.702    24170147.210
  23579384.092   -12997861.19143 -10077780.50842  23579385.944    23579384.586
 04  5 20  4 17  0.0000000  0  8G16G 3G13G27G 1G19G 8G20
  22596235.979   -16026677.55843 -12299480.63042  22596237.967    22596233.827
  23353947.733   -11109317.89043  -8513568.36942  23353949.942    23353948.009
  20461762.973   -29062766.07344 -22636748.86642  20461765.709    20461760.826
  22015571.644   -19089274.92043 -14692046.00442  22015573.780    22015571.057
  20878582.588   -24770422.33644 -19281262.40442  20878584.689    20878581.447
  24694243.982    -4611318.59843  -3564310.16942  24694246.346    24694244.397
  24153859.852    -9521084.51743  -7383199.35342  24153860.752    24153861.242
  23600461.420   -12887099.45443  -9991472.71042  23600463.249    23600461.922
 04  5 20  4 17 30.0000000  0  8G16G 3G13G27G 1G19G 8G20
  22611369.348   -15947151.21243 -12237512.04942  22611371.314    22611367.197
  23343585.579   -11163771.04243  -8555999.31842  23343587.844    23343585.857
  20455549.208   -29095419.64244 -22662193.18342  20455551.945    20455547.022
  22006296.766   -19138014.36743 -14730024.74542  22006298.924    22006296.214
  20886256.043   -24730098.03344 -19249840.87042  20886258.147    20886254.910
  24678132.394    -4695984.86243  -3630283.69642  24678134.766    24678132.823
  24137594.121    -9606561.06543  -7449804.31142  24137595.029    24137595.383
  23621560.071   -12776225.52843  -9905077.48442  23621561.899    23621560.525
 04  5 20  4 18  0.0000000  0  8G16G 3G13G27G 1G19G 8G20
  22626569.297   -15867274.75243 -12175270.65542  22626571.277    22626567.178
  23333297.044   -11217837.61743  -8598129.03442  23333299.296    23333297.262
  20449404.118   -29127712.24544 -22687356.22942  20449406.848    20449401.910
  21997053.468   -19186588.00943 -14767874.28642  21997055.621    21997052.903
  20893999.118   -24689407.91044 -19218134.28042  20894001.220    20893997.979
  24662027.095    -4780617.28043  -3696230.85642  24662029.597    24662027.740
  24121349.076    -9691928.85043  -7516324.53042  24121350.008    24121350.294
  23642680.049   -12665239.27943  -9818594.74542  23642681.929    23642680.534
 04  5 20  4 18 30.0000000  0  8G16G 3G13G27G 1G19G 8G20
  22641835.393   -15787050.86043 -12112758.53842  22641837.378    22641833.284
  23323082.538   -11271515.04443  -8639955.53742  23323084.742    23323082.747
  20443327.973   -29159642.44244 -22712236.87442  20443330.710    20443325.774
  21987841.696   -19234996.16043 -14805594.87542  21987843.806    21987841.063
  20901811.822   -24648351.97644 -19186142.65142  20901813.914    20901810.655
  24645928.891    -4865213.17343  -3762149.55542  24645931.377    24645929.464
  24105124.859    -9777186.93543  -7582759.25442  24105125.790    24105126.105
  23663820.860   -12554143.57243  -9732026.71942  23663822.771    23663821.392
 04  5 20  4 19  0.0000000  0  8G16G 3G13G27G 1G19G 8G20
  22657166.318   -15706486.35043 -12049980.99342  22657168.297    22657164.183
  23312941.673   -11324805.22243  -8681480.26842  23312943.909    23312941.902
  20437320.252   -29191213.18144 -22736837.41942  20437322.999    20437318.053
  21978660.545   -19283243.35543 -14843190.05142  21978662.637    21978659.854
  20909693.290   -24606934.53444 -19153869.31742  20909695.415    20909692.109
  24629837.408    -4949774.07443  -3828040.99342  24629839.805    24629837.946
  24088920.733    -9862339.47843  -7649111.74442  24088921.708    24088921.925
  23684981.160   -12442945.43843  -9645378.88042  23684983.090    23684981.756
 04  5 20  4 19 30.0000000  0  8G16G 3G13G27G 1G19G 8G20
  22672562.810   -15625577.13043 -11986934.84342  22672564.808    22672560.700
  23302876.296   -11377698.71243  -8722695.88042  23302878.565    23302876.526
  20431382.511   -29222416.11244 -22761151.37042  20431385.256    20431380.314
  21969511.212   -19331323.16843 -14880654.79942  21969513.303    21969510.486
  20917644.842   -24565148.71744 -19121308.94142  20917646.971    20917643.700
  24613754.354    -5034290.37343  -3893897.68142  24613756.693    24613754.940
  24072737.955    -9947379.63043  -7715376.65342  24072739.007    24072739.111
  23706161.619   -12331641.38743  -9558648.49142  23706163.548    23706162.258
 04  5 20  4 20  0.0000000  0  8G16G 3G13G27G 1G19G 8G20
  22688023.558   -15544330.50943 -11923625.78042  22688025.572    22688021.386
  23292886.028   -11430197.61943  -8763604.04942  23292888.322    23292886.209
  20425514.150   -29253254.44244 -22785181.21442  20425516.891    20425511.959
  21960392.844   -19379240.35743 -14917992.82742  21960394.921    21960392.104
  20925665.654   -24522999.16144 -19088465.13042  20925667.744    20925664.501
  24597679.565    -5118763.65243  -3959720.84642  24597681.810    24597680.024
  24056575.753   -10032312.23043  -7781557.78842  24056576.746    24056576.725
  23727360.870   -12220238.69543  -9471841.24542  23727362.814    23727361.513
 04  5 20  4 20 30.0000000  0  8G16G 3G13G27G 1G19G 8G20
  22703548.255   -15462747.80443 -11860054.83342  22703550.255    22703546.028
  23282971.624   -11482298.11943  -8804201.74942  23282973.887    23282971.738
  20419715.709   -29283725.43444 -22808924.82842  20419718.448    20419713.494
  21951305.605   -19426993.86843 -14955203.31342  21951307.686    21951304.895
  20933755.928   -24480484.48244 -19055336.80842  20933758.024    20933754.768
  24581613.667    -5203189.79143  -4025507.27242  24581615.892    24581614.145
  24040434.340   -10117135.01843  -7847653.33542  24040435.386    24040435.263
  23748578.595   -12108739.23743  -9384958.63442  23748580.457    23748579.217
 04  5 20  4 21  0.0000000  0  8G16G 3G13G27G 1G19G 8G20
  22719136.471   -15380831.25243 -11796223.74042  22719138.483    22719134.202
  23273133.479   -11533997.54643  -8844486.95042  23273135.719    23273133.511
  20413987.496   -29313827.36744 -22832380.86042  20413990.231    20413985.265
  21942249.560   -19474583.63043 -14992286.20042  21942251.626    21942248.859
  20941915.761   -24437604.26144 -19021923.64242  20941917.868    20941914.610
  24565557.397    -5287565.46743  -4091254.37642  24565559.628    24565557.770
  24024313.966   -10201847.91343  -7913663.28742  24024315.061    24024314.867
  23769814.249   -11997145.38943  -9298002.44342  23769816.065    23769814.879
 04  5 20  4 21 30.0000000  0  8G16G 3G13G27G 1G19G 8G20
  22734787.614   -15298583.90143 -11732134.88942  22734789.611    22734785.353
  23263372.095   -11585293.43743  -8884457.68842  23263374.330    23263372.163
  20408329.772   -29343558.78444 -22855548.17742  20408332.527    20408327.546
  21933224.595   -19522010.01243 -15029241.78042  21933226.650    21933223.894
  20950145.113   -24394358.69344 -18988225.79742  20950147.221    20950143.972
  24549511.244    -5371888.16843  -4156960.22542  24549513.482    24549511.562
  24008214.610   -10286450.45743  -7979587.24542  24008215.689    24008215.451
  23791067.339   -11885460.21543  -9210975.08742  23791069.122    23791067.948
 04  5 20  4 22  0.0000000  0  8G16G 3G13G27G 1G19G 8G20
  22750500.813   -15216010.42343 -11667791.90442  22750502.786    22750498.550
  23253687.584   -11636185.67943  -8924113.91142  23253689.755    23253687.582
  20402742.409   -29372920.41144 -22878427.35442  20402745.182    20402740.201
  21924230.202   -19569275.60843 -15066072.07342  21924232.278    21924229.492
  20958443.551   -24350750.22144 -18954245.17042  20958445.643    20958442.386
  24533475.125    -5456157.75143  -4222624.68842  24533477.396    24533475.423
  23992135.963   -10370944.27943  -8045426.47742  23992137.004    23992136.664
  23812336.757   -11773689.00543  -9123880.67742  23812338.559    23812337.359
 04  5 20  4 22 30.0000000  0  8G16G 3G13G27G 1G19G 8G20
  22766276.849   -15133106.70443 -11603191.58242  22766278.830    22766274.590
  23244081.711   -11686664.67443  -8963448.11142  23244083.886    23244081.658
  20397227.038   -29401903.97044 -22901011.93942  20397229.787    20397224.792
  21915267.718   -19616373.63143 -15102771.78842  21915269.783    21915266.993
  20966812.342   -24306771.95244 -18919976.39442  20966814.438    20966811.150
  24517451.121    -5540363.81943  -4288239.65342  24517453.460    24517451.376
  23976079.177   -10455322.83143  -8111175.90542  23976080.144    23976079.819
  23833623.257   -11661827.68643  -9036716.07742  23833625.053    23833623.926
 04  5 20  4 23  0.0000000  0  8G16G 3G13G27G 1G19G 8G20
  22782113.926   -15049882.24743 -11538341.34742  22782115.931    22782111.700
  23234553.605   -11736734.92843  -9002463.81142  23234555.760    23234553.537
  20391782.521   -29430514.95444 -22923306.19842  20391785.291    20391780.277
  21906335.701   -19663311.36643 -15139346.60142  21906337.791    21906335.001
  20975250.193   -24262430.74144 -18885424.80842  20975252.294    20975249.007
  24501438.554    -5624510.13543  -4353808.07642  24501440.752    24501438.679
  23960042.985   -10539593.07843  -8176840.91942  23960043.939    23960043.618
  23854925.100   -11549885.93443  -8949488.79242  23854926.919    23854925.812
 04  5 20  4 23 30.0000000  0  8G16G 3G13G27G 1G19G 8G20
  22798012.211   -14966336.25343 -11473240.56342  22798014.202    22798009.958
  23225104.328   -11786390.68443  -9041156.52942  23225106.505    23225104.261
  20386409.880   -29458748.34044 -22945306.22542  20386412.637    20386407.626
  21897434.877   -19710085.47743 -15175793.91942  21897436.942    21897434.142
  20983757.763   -24217723.05044 -18850587.65842  20983759.868    20983756.611
  24485438.515    -5708590.54543  -4419325.13942  24485440.727    24485438.491
  23944028.234   -10623750.75343  -8242418.21242  23944029.179    23944028.830
  23876242.363   -11437863.12443  -8862198.33742  23876244.258    23876243.053
 04  5 20  4 24  0.0000000  0  8G16G 3G13G27G 1G19G 8G20
  22813971.684   -14882468.65243 -11407889.17342  22813973.681    22813969.420
  23215734.922   -11835626.97543  -9079522.39042  23215737.108    23215734.903
  20381109.861   -29486600.12844 -22967008.91142  20381112.604    20381107.589
  21888565.597   -19756693.81143 -15212112.06442  21888567.650    21888564.816
  20992335.565   -24172646.37444 -18815462.98642  20992337.647    20992334.429
  24469451.984    -5792599.80443  -4484786.75342  24469454.222    24469451.885
  23928035.385   -10707793.30443  -8307905.79942  23928036.356    23928035.995
  23897575.003   -11325759.84043  -8774845.19442  23897576.918    23897575.638
 04  5 20  4 24 30.0000000  0  8G16G 3G13G27G 1G19G 8G20
  22829990.189   -14798290.48543 -11342295.80242  22829992.242    22829988.019
  23206444.170   -11884449.87143  -9117566.12542  23206446.319    23206444.167
  20375881.117   -29514077.37644 -22988419.74842  20375883.837    20375878.832
  21879726.273   -19803144.68443 -15248307.50542  21879728.332    21879725.451
  21000981.978   -24127209.08844 -18780057.32042  21000984.051    21000980.873
  24453477.974    -5876543.26743  -4550197.09942  24453480.204    24453477.800
  23912062.981   -10791728.52443  -8373309.75842  23912063.901    23912063.529
  23918920.789   -11213587.11043  -8687437.92042  23918922.751    23918921.381
 04  5 20  4 25  0.0000000  0  8G16G 3G13G27G 1G19G 8G20
  22846069.088   -14713795.40343 -11276455.47042  22846071.131    22846066.889
  23197234.248   -11932847.74743  -9155278.67142  23197236.442    23197234.286
  20370725.682   -29541169.15244 -23009530.20942  20370728.442    20370723.428
  21870918.546   -19849429.26543 -15284373.37042  21870920.614    21870917.743
  21009698.757   -24081402.10744 -18744363.57542  21009700.829    21009697.678
  24437518.775    -5960408.91943  -4615546.81042  24437521.072    24437518.591
  23896112.781   -10875547.35143  -8438623.03342  23896113.642    23896113.291
  23940280.980   -11101338.74543  -8599971.67942  23940282.949    23940281.492
 04  5 20  4 25 30.0000000  0  8G16G 3G13G27G 1G19G 8G20
  22862206.701   -14628991.61443 -11210374.58642  22862208.761    22862204.464
  23188104.721   -11980823.39143  -9192662.22942  23188106.941    23188104.737
  20365642.811   -29567879.83644 -23030343.72942  20365645.549    20365640.542
  21862141.353   -19895553.46443 -15320314.25842  21862143.425    21862140.569
  21018484.838   -24035231.01644 -18708386.11142  21018486.895    21018483.763
  24421573.906    -6044199.38743  -4680837.93742  24421576.184    24421573.622
  23880183.609   -10959255.44043  -8503850.01442  23880184.488    23880184.049
  23961653.899   -10989023.29243  -8512453.18942  23961655.844    23961654.416
